<?xml version='1.0' encoding='UTF-8'?><gpx version="1.1" creator="JPX - https://github.com/jenetics/jpx" xmlns="http://www.topografix.com/GPX/1/1"><trk><trkseg><trkpt lat="-35.64048682808008" lon="144.20895565193666"><ele>88.0</ele><time>2026-05-04T03:33:38.002Z</time></trkpt><trkpt lat="-35.64039159300074" lon="144.20897362765913"><ele>88.0</ele><time>2026-05-04T03:33:40.002Z</time></trkpt><trkpt lat="-35.64031343281339" lon="144.20901810771494"><ele>88.0</ele><time>2026-05-04T03:33:42.002Z</time></trkpt><trkpt lat="-35.64023064873673" lon="144.2091113531755"><ele>88.0</ele><time>2026-05-04T03:33:44.002Z</time></trkpt><trkpt lat="-35.640135785660796" lon="144.2091806756679"><ele>88.0</ele><time>2026-05-04T03:33:46.002Z</time></trkpt><trkpt lat="-35.64001757547076" lon="144.20916750852496"><ele>88.2</ele><time>2026-05-04T03:33:49.002Z</time></trkpt><trkpt lat="-35.639923294598084" lon="144.20920812135515"><ele>88.4</ele><time>2026-05-04T03:33:51.002Z</time></trkpt><trkpt lat="-35.639886505950436" lon="144.20933569074592"><ele>88.60000000000001</ele><time>2026-05-04T03:33:52.002Z</time></trkpt><trkpt lat="-35.63981981653591" lon="144.2094513466584"><ele>88.80000000000001</ele><time>2026-05-04T03:33:53.002Z</time></trkpt><trkpt lat="-35.63972950657309" lon="144.20953740670615"><ele>89.0</ele><time>2026-05-04T03:33:54.002Z</time></trkpt><trkpt lat="-35.63965780212722" lon="144.20961388761268"><ele>89.0</ele><time>2026-05-04T03:33:55.002Z</time></trkpt><trkpt lat="-35.63960297206982" lon="144.20970485649283"><ele>89.0</ele><time>2026-05-04T03:33:56.002Z</time></trkpt><trkpt lat="-35.63957183404649" lon="144.20982997619424"><ele>89.0</ele><time>2026-05-04T03:33:57.002Z</time></trkpt><trkpt lat="-35.63953281309767" lon="144.2099422992473"><ele>89.0</ele><time>2026-05-04T03:33:58.002Z</time></trkpt><trkpt lat="-35.63948294391677" lon="144.2100552063938"><ele>89.0</ele><time>2026-05-04T03:33:59.002Z</time></trkpt><trkpt lat="-35.63940665452969" lon="144.21013241877722"><ele>89.16666666666667</ele><time>2026-05-04T03:34:00.002Z</time></trkpt><trkpt lat="-35.63933453200184" lon="144.2102217889054"><ele>89.33333333333334</ele><time>2026-05-04T03:34:01.002Z</time></trkpt><trkpt lat="-35.63926639503893" lon="144.2102670130381"><ele>89.5</ele><time>2026-05-04T03:34:02.002Z</time></trkpt><trkpt lat="-35.63921484327074" lon="144.21021732041245"><ele>89.66666666666667</ele><time>2026-05-04T03:34:04.002Z</time></trkpt><trkpt lat="-35.63924353921883" lon="144.21013836566323"><ele>89.83333333333333</ele><time>2026-05-04T03:34:06.002Z</time></trkpt><trkpt lat="-35.63930548620095" lon="144.21007770057585"><ele>90.0</ele><time>2026-05-04T03:34:07.003Z</time></trkpt><trkpt lat="-35.63937419192122" lon="144.21001215394668"><ele>90.0</ele><time>2026-05-04T03:34:08.003Z</time></trkpt><trkpt lat="-35.639474780187626" lon="144.2100343118516"><ele>90.0</ele><time>2026-05-04T03:34:10.003Z</time></trkpt><trkpt lat="-35.63947224943414" lon="144.2101495210761"><ele>90.0</ele><time>2026-05-04T03:34:12.003Z</time></trkpt><trkpt lat="-35.63946096503487" lon="144.21023400662506"><ele>90.0</ele><time>2026-05-04T03:34:13.003Z</time></trkpt><trkpt lat="-35.63937012321318" lon="144.21026936247685"><ele>90.0</ele><time>2026-05-04T03:34:16.003Z</time></trkpt><trkpt lat="-35.63923227208816" lon="144.21031911660936"><ele>90.0</ele><time>2026-05-04T03:34:17.003Z</time></trkpt><trkpt lat="-35.63912462320077" lon="144.2103595625499"><ele>90.0</ele><time>2026-05-04T03:34:18.003Z</time></trkpt><trkpt lat="-35.63904020712535" lon="144.21044106358505"><ele>90.0</ele><time>2026-05-04T03:34:19.003Z</time></trkpt><trkpt lat="-35.638985001276936" lon="144.21055623654146"><ele>90.0</ele><time>2026-05-04T03:34:20.003Z</time></trkpt><trkpt lat="-35.63893894605894" lon="144.21068010268743"><ele>90.0</ele><time>2026-05-04T03:34:21.003Z</time></trkpt><trkpt lat="-35.638891319161914" lon="144.21080248890897"><ele>90.0</ele><time>2026-05-04T03:34:22.003Z</time></trkpt><trkpt lat="-35.63883615282712" lon="144.21093267196667"><ele>90.0</ele><time>2026-05-04T03:34:23.003Z</time></trkpt><trkpt lat="-35.63878425683158" lon="144.21108645814053"><ele>90.0</ele><time>2026-05-04T03:34:24.003Z</time></trkpt><trkpt lat="-35.6387084400752" lon="144.21124364699992"><ele>90.0</ele><time>2026-05-04T03:34:25.003Z</time></trkpt><trkpt lat="-35.63861620691988" lon="144.2114001144335"><ele>90.6</ele><time>2026-05-04T03:34:26.003Z</time></trkpt><trkpt lat="-35.63854461795362" lon="144.2115232771234"><ele>91.2</ele><time>2026-05-04T03:34:27.003Z</time></trkpt><trkpt lat="-35.63848345518069" lon="144.21162239374834"><ele>91.80000000000001</ele><time>2026-05-04T03:34:28.003Z</time></trkpt><trkpt lat="-35.63843621538593" lon="144.21170250614418"><ele>92.4</ele><time>2026-05-04T03:34:29.003Z</time></trkpt><trkpt lat="-35.63837800746963" lon="144.21177270142633"><ele>93.0</ele><time>2026-05-04T03:34:30.003Z</time></trkpt><trkpt lat="-35.638327099171306" lon="144.21182295389568"><ele>93.0</ele><time>2026-05-04T03:34:31.003Z</time></trkpt><trkpt lat="-35.63837395935113" lon="144.2119274670583"><ele>93.0</ele><time>2026-05-04T03:34:33.003Z</time></trkpt><trkpt lat="-35.63836552941414" lon="144.21203481042403"><ele>93.0</ele><time>2026-05-04T03:34:34.003Z</time></trkpt><trkpt lat="-35.63832689508586" lon="144.21213921359703"><ele>93.0</ele><time>2026-05-04T03:34:35.003Z</time></trkpt><trkpt lat="-35.63828874534673" lon="144.21222981567317"><ele>93.0</ele><time>2026-05-04T03:34:36.003Z</time></trkpt><trkpt lat="-35.63825082222956" lon="144.21231282107598"><ele>93.0</ele><time>2026-05-04T03:34:37.003Z</time></trkpt><trkpt lat="-35.63817097953441" lon="144.21239524742893"><ele>93.0</ele><time>2026-05-04T03:34:39.003Z</time></trkpt><trkpt lat="-35.63807776416576" lon="144.2123705715178"><ele>93.0</ele><time>2026-05-04T03:34:40.003Z</time></trkpt><trkpt lat="-35.63800187984121" lon="144.21241646820627"><ele>93.0</ele><time>2026-05-04T03:34:41.003Z</time></trkpt><trkpt lat="-35.63798246949203" lon="144.212559762278"><ele>93.0</ele><time>2026-05-04T03:34:43.003Z</time></trkpt><trkpt lat="-35.6379744725817" lon="144.21265541322396"><ele>93.0</ele><time>2026-05-04T03:34:44.002Z</time></trkpt><trkpt lat="-35.63795889182499" lon="144.21275120140427"><ele>93.0</ele><time>2026-05-04T03:34:45.002Z</time></trkpt><trkpt lat="-35.63795949324565" lon="144.21286452490673"><ele>93.0</ele><time>2026-05-04T03:34:47.002Z</time></trkpt><trkpt lat="-35.63794406092151" lon="144.21296875478032"><ele>93.0</ele><time>2026-05-04T03:34:52.002Z</time></trkpt><trkpt lat="-35.63799895122938" lon="144.21307581845412"><ele>93.0</ele><time>2026-05-04T03:34:54.002Z</time></trkpt><trkpt lat="-35.63802765709693" lon="144.21317858230123"><ele>93.0</ele><time>2026-05-04T03:34:56.002Z</time></trkpt><trkpt lat="-35.63797183215819" lon="144.21323996955468"><ele>93.0</ele><time>2026-05-04T03:34:58.001Z</time></trkpt><trkpt lat="-35.637904961922345" lon="144.21323310694189"><ele>92.83333333333333</ele><time>2026-05-04T03:34:59.001Z</time></trkpt><trkpt lat="-35.63783921597589" lon="144.21321925021104"><ele>92.66666666666667</ele><time>2026-05-04T03:35:00.001Z</time></trkpt><trkpt lat="-35.6377586098197" lon="144.21322179238766"><ele>92.5</ele><time>2026-05-04T03:35:01.001Z</time></trkpt><trkpt lat="-35.63767926438537" lon="144.21322493999503"><ele>92.33333333333334</ele><time>2026-05-04T03:35:02.001Z</time></trkpt><trkpt lat="-35.637571321161495" lon="144.21325540061616"><ele>92.16666666666667</ele><time>2026-05-04T03:35:04.001Z</time></trkpt><trkpt lat="-35.637482758542504" lon="144.2132532933902"><ele>92.0</ele><time>2026-05-04T03:35:06.001Z</time></trkpt><trkpt lat="-35.637419027584976" lon="144.21316892633428"><ele>92.19999999999999</ele><time>2026-05-04T03:35:12.001Z</time></trkpt><trkpt lat="-35.63739543189268" lon="144.21302601174577"><ele>92.4</ele><time>2026-05-04T03:35:14.001Z</time></trkpt><trkpt lat="-35.63734751764525" lon="144.21296203617172"><ele>92.6</ele><time>2026-05-04T03:35:15.001Z</time></trkpt><trkpt lat="-35.637270238953974" lon="144.21293061904595"><ele>92.80000000000001</ele><time>2026-05-04T03:35:16.001Z</time></trkpt><trkpt lat="-35.63716704778122" lon="144.21296624679746"><ele>93.0</ele><time>2026-05-04T03:35:17.001Z</time></trkpt><trkpt lat="-35.63705555252768" lon="144.21304930574482"><ele>93.0</ele><time>2026-05-04T03:35:18.001Z</time></trkpt><trkpt lat="-35.63701343671004" lon="144.21297864938725"><ele>93.0</ele><time>2026-05-04T03:35:20.001Z</time></trkpt><trkpt lat="-35.637047652212644" lon="144.21287631959387"><ele>93.0</ele><time>2026-05-04T03:35:21.001Z</time></trkpt><trkpt lat="-35.63706187601765" lon="144.21270425356647"><ele>93.0</ele><time>2026-05-04T03:35:22.001Z</time></trkpt><trkpt lat="-35.63701717677599" lon="144.21263842287127"><ele>93.0</ele><time>2026-05-04T03:35:25.001Z</time></trkpt><trkpt lat="-35.636890737106086" lon="144.212644075486"><ele>91.80000000000001</ele><time>2026-05-04T03:35:27.001Z</time></trkpt><trkpt lat="-35.63676217216479" lon="144.2127146520003"><ele>90.6</ele><time>2026-05-04T03:35:28.001Z</time></trkpt><trkpt lat="-35.636700761801244" lon="144.2128198460999"><ele>89.4</ele><time>2026-05-04T03:35:29.001Z</time></trkpt><trkpt lat="-35.6366328681861" lon="144.2128569337888"><ele>88.19999999999999</ele><time>2026-05-04T03:35:33.001Z</time></trkpt><trkpt lat="-35.63655543321239" lon="144.21287901817593"><ele>87.0</ele><time>2026-05-04T03:35:34.001Z</time></trkpt><trkpt lat="-35.636471742942106" lon="144.21288569762206"><ele>87.0</ele><time>2026-05-04T03:35:36.001Z</time></trkpt><trkpt lat="-35.63650851213007" lon="144.21274884653442"><ele>87.0</ele><time>2026-05-04T03:35:38.001Z</time></trkpt><trkpt lat="-35.63653963580477" lon="144.21266908644932"><ele>87.0</ele><time>2026-05-04T03:35:39.001Z</time></trkpt><trkpt lat="-35.63657033035799" lon="144.21256676174337"><ele>87.0</ele><time>2026-05-04T03:35:41.001Z</time></trkpt><trkpt lat="-35.63655777741671" lon="144.21245177615432"><ele>87.0</ele><time>2026-05-04T03:35:42.001Z</time></trkpt><trkpt lat="-35.636501438512774" lon="144.2123658717765"><ele>87.0</ele><time>2026-05-04T03:35:43.001Z</time></trkpt><trkpt lat="-35.63640970225954" lon="144.21230325934403"><ele>87.0</ele><time>2026-05-04T03:35:44.001Z</time></trkpt><trkpt lat="-35.636332974758425" lon="144.21226496722747"><ele>87.0</ele><time>2026-05-04T03:35:45.001Z</time></trkpt><trkpt lat="-35.636250435916445" lon="144.21228812563837"><ele>87.0</ele><time>2026-05-04T03:35:46.001Z</time></trkpt><trkpt lat="-35.63615582608231" lon="144.21234144245315"><ele>87.0</ele><time>2026-05-04T03:35:48.001Z</time></trkpt><trkpt lat="-35.63614212194262" lon="144.2124330961413"><ele>86.8</ele><time>2026-05-04T03:35:50.001Z</time></trkpt><trkpt lat="-35.636101865960626" lon="144.2125013676604"><ele>86.6</ele><time>2026-05-04T03:35:52.001Z</time></trkpt><trkpt lat="-35.63601436904732" lon="144.2124355813791"><ele>86.39999999999999</ele><time>2026-05-04T03:35:54.001Z</time></trkpt><trkpt lat="-35.63597203980108" lon="144.21234319778242"><ele>86.19999999999999</ele><time>2026-05-04T03:35:55.001Z</time></trkpt><trkpt lat="-35.63596365585048" lon="144.2121824649633"><ele>86.0</ele><time>2026-05-04T03:35:57.001Z</time></trkpt><trkpt lat="-35.63600615449669" lon="144.2120683417489"><ele>86.0</ele><time>2026-05-04T03:35:58.001Z</time></trkpt><trkpt lat="-35.6360515017276" lon="144.21198352852417"><ele>86.0</ele><time>2026-05-04T03:35:59.001Z</time></trkpt><trkpt lat="-35.63607496180882" lon="144.2119038801535"><ele>86.0</ele><time>2026-05-04T03:36:00.001Z</time></trkpt><trkpt lat="-35.63609656225569" lon="144.21180050567725"><ele>86.0</ele><time>2026-05-04T03:36:01.001Z</time></trkpt><trkpt lat="-35.63610545049157" lon="144.2116760829694"><ele>86.0</ele><time>2026-05-04T03:36:02.001Z</time></trkpt><trkpt lat="-35.63610792748675" lon="144.21149972966361"><ele>87.4</ele><time>2026-05-04T03:36:03.001Z</time></trkpt><trkpt lat="-35.636117855946004" lon="144.2113750808934"><ele>88.8</ele><time>2026-05-04T03:36:04.001Z</time></trkpt><trkpt lat="-35.63610535082804" lon="144.2112621504189"><ele>90.2</ele><time>2026-05-04T03:36:06.001Z</time></trkpt><trkpt lat="-35.636041459349705" lon="144.21117124740252"><ele>91.60000000000001</ele><time>2026-05-04T03:36:08.001Z</time></trkpt><trkpt lat="-35.635974029170626" lon="144.21119680119438"><ele>93.0</ele><time>2026-05-04T03:36:09.001Z</time></trkpt><trkpt lat="-35.63587373987237" lon="144.21121502497832"><ele>93.0</ele><time>2026-05-04T03:36:10.001Z</time></trkpt><trkpt lat="-35.63578164079141" lon="144.21125675658212"><ele>93.0</ele><time>2026-05-04T03:36:11.001Z</time></trkpt><trkpt lat="-35.63571423545417" lon="144.2112524703782"><ele>93.0</ele><time>2026-05-04T03:36:12.001Z</time></trkpt><trkpt lat="-35.63563348613555" lon="144.2112126019631"><ele>93.0</ele><time>2026-05-04T03:36:14.001Z</time></trkpt><trkpt lat="-35.63569640560327" lon="144.21107708443978"><ele>93.0</ele><time>2026-05-04T03:36:17.001Z</time></trkpt><trkpt lat="-35.63577473845599" lon="144.21100339536326"><ele>93.0</ele><time>2026-05-04T03:36:18.001Z</time></trkpt><trkpt lat="-35.63586805176568" lon="144.21094308658098"><ele>93.0</ele><time>2026-05-04T03:36:19.001Z</time></trkpt><trkpt lat="-35.63590376893265" lon="144.210869736549"><ele>93.0</ele><time>2026-05-04T03:36:20.001Z</time></trkpt><trkpt lat="-35.63589676822699" lon="144.2107807870735"><ele>93.0</ele><time>2026-05-04T03:36:21.001Z</time></trkpt><trkpt lat="-35.635862014447035" lon="144.21069598493125"><ele>93.0</ele><time>2026-05-04T03:36:22.001Z</time></trkpt><trkpt lat="-35.63581597992729" lon="144.21063687672824"><ele>93.0</ele><time>2026-05-04T03:36:23.001Z</time></trkpt><trkpt lat="-35.63574085483953" lon="144.21056950510223"><ele>92.80000000000001</ele><time>2026-05-04T03:36:24.001Z</time></trkpt><trkpt lat="-35.635646352736366" lon="144.2104858781264"><ele>92.6</ele><time>2026-05-04T03:36:25.001Z</time></trkpt><trkpt lat="-35.63556434643343" lon="144.21039331720868"><ele>92.4</ele><time>2026-05-04T03:36:26.001Z</time></trkpt><trkpt lat="-35.63549117814833" lon="144.2103126035588"><ele>92.19999999999999</ele><time>2026-05-04T03:36:27.001Z</time></trkpt><trkpt lat="-35.635464216166774" lon="144.21017636074993"><ele>92.0</ele><time>2026-05-04T03:36:28.001Z</time></trkpt><trkpt lat="-35.635444267097" lon="144.20997740287808"><ele>92.0</ele><time>2026-05-04T03:36:29.001Z</time></trkpt><trkpt lat="-35.63539828386308" lon="144.20983359360946"><ele>92.0</ele><time>2026-05-04T03:36:30.001Z</time></trkpt><trkpt lat="-35.63535229325056" lon="144.20969555309168"><ele>92.0</ele><time>2026-05-04T03:36:31.001Z</time></trkpt><trkpt lat="-35.63533487629343" lon="144.2095859749221"><ele>92.0</ele><time>2026-05-04T03:36:32.001Z</time></trkpt><trkpt lat="-35.63535299151027" lon="144.20942871535064"><ele>92.0</ele><time>2026-05-04T03:36:33.001Z</time></trkpt><trkpt lat="-35.635348512460915" lon="144.20929408072539"><ele>92.0</ele><time>2026-05-04T03:36:34.001Z</time></trkpt><trkpt lat="-35.63532975230918" lon="144.20919720101938"><ele>92.0</ele><time>2026-05-04T03:36:35.001Z</time></trkpt><trkpt lat="-35.63524684834931" lon="144.2090902471231"><ele>92.0</ele><time>2026-05-04T03:36:36.001Z</time></trkpt><trkpt lat="-35.63513651085139" lon="144.20894327222723"><ele>92.0</ele><time>2026-05-04T03:36:37.001Z</time></trkpt><trkpt lat="-35.63506394226561" lon="144.20884492765202"><ele>92.0</ele><time>2026-05-04T03:36:38.001Z</time></trkpt><trkpt lat="-35.63499133644922" lon="144.20878547467194"><ele>92.0</ele><time>2026-05-04T03:36:39.002Z</time></trkpt><trkpt lat="-35.63491846448552" lon="144.20867194574194"><ele>92.0</ele><time>2026-05-04T03:36:41.002Z</time></trkpt><trkpt lat="-35.634930718091546" lon="144.20856837184328"><ele>92.0</ele><time>2026-05-04T03:36:44.002Z</time></trkpt><trkpt lat="-35.634995608594075" lon="144.20845438875614"><ele>92.0</ele><time>2026-05-04T03:36:46.002Z</time></trkpt><trkpt lat="-35.63498207326848" lon="144.20836133850443"><ele>92.0</ele><time>2026-05-04T03:36:48.002Z</time></trkpt><trkpt lat="-35.63490115539271" lon="144.20835098689028"><ele>92.0</ele><time>2026-05-04T03:36:49.002Z</time></trkpt><trkpt lat="-35.634768561379666" lon="144.20839744988234"><ele>92.0</ele><time>2026-05-04T03:36:51.001Z</time></trkpt><trkpt lat="-35.63468021825281" lon="144.20847812704795"><ele>92.0</ele><time>2026-05-04T03:36:53.001Z</time></trkpt><trkpt lat="-35.63463673294388" lon="144.2085579812318"><ele>92.0</ele><time>2026-05-04T03:36:56.001Z</time></trkpt><trkpt lat="-35.63461696875497" lon="144.20870854498958"><ele>92.0</ele><time>2026-05-04T03:36:59.001Z</time></trkpt><trkpt lat="-35.63458595908157" lon="144.20883667490898"><ele>92.0</ele><time>2026-05-04T03:37:00.001Z</time></trkpt><trkpt lat="-35.63452934923335" lon="144.2089762131427"><ele>92.0</ele><time>2026-05-04T03:37:01.001Z</time></trkpt><trkpt lat="-35.634478672641535" lon="144.2091463156089"><ele>91.75</ele><time>2026-05-04T03:37:02.001Z</time></trkpt><trkpt lat="-35.63442119527246" lon="144.20929881199825"><ele>91.5</ele><time>2026-05-04T03:37:03.001Z</time></trkpt><trkpt lat="-35.634382922554494" lon="144.209403036057"><ele>91.25</ele><time>2026-05-04T03:37:04.001Z</time></trkpt><trkpt lat="-35.63442621697116" lon="144.2095681665649"><ele>91.0</ele><time>2026-05-04T03:37:06.001Z</time></trkpt><trkpt lat="-35.634443751093514" lon="144.20966500063503"><ele>91.0</ele><time>2026-05-04T03:37:08.001Z</time></trkpt><trkpt lat="-35.634386217170146" lon="144.20970809872824"><ele>91.0</ele><time>2026-05-04T03:37:10.001Z</time></trkpt><trkpt lat="-35.63433990530669" lon="144.20977879130757"><ele>91.0</ele><time>2026-05-04T03:37:11.001Z</time></trkpt><trkpt lat="-35.634284805251184" lon="144.2098609940841"><ele>91.0</ele><time>2026-05-04T03:37:12.001Z</time></trkpt><trkpt lat="-35.63417697519583" lon="144.20990819908542"><ele>91.0</ele><time>2026-05-04T03:37:15.001Z</time></trkpt><trkpt lat="-35.63409507824553" lon="144.2099223391484"><ele>91.0</ele><time>2026-05-04T03:37:16.001Z</time></trkpt><trkpt lat="-35.634012444094985" lon="144.20992504653483"><ele>91.0</ele><time>2026-05-04T03:37:17.001Z</time></trkpt><trkpt lat="-35.633949910262295" lon="144.20994417712413"><ele>91.0</ele><time>2026-05-04T03:37:18.001Z</time></trkpt><trkpt lat="-35.633879852337394" lon="144.20995738958155"><ele>91.0</ele><time>2026-05-04T03:37:19.001Z</time></trkpt><trkpt lat="-35.63381673154759" lon="144.20995606244912"><ele>91.0</ele><time>2026-05-04T03:37:20.001Z</time></trkpt><trkpt lat="-35.633859169533835" lon="144.2100325050851"><ele>91.0</ele><time>2026-05-04T03:37:23.001Z</time></trkpt><trkpt lat="-35.63386685363076" lon="144.21014612824337"><ele>91.0</ele><time>2026-05-04T03:37:25.001Z</time></trkpt><trkpt lat="-35.633822526511985" lon="144.2102232609778"><ele>91.0</ele><time>2026-05-04T03:37:28.001Z</time></trkpt><trkpt lat="-35.63374239642638" lon="144.2102685588521"><ele>89.0</ele><time>2026-05-04T03:37:29Z</time></trkpt><trkpt lat="-35.6332624275336" lon="144.21069942063042"><ele>89.0</ele><time>2026-05-04T03:37:32Z</time></trkpt><trkpt lat="-35.6331501764303" lon="144.2107837920755"><ele>89.0</ele><time>2026-05-04T03:37:33Z</time></trkpt><trkpt lat="-35.633053584980516" lon="144.21075651416197"><ele>89.0</ele><time>2026-05-04T03:37:34Z</time></trkpt><trkpt lat="-35.63297289810202" lon="144.21072638055844"><ele>89.0</ele><time>2026-05-04T03:37:35Z</time></trkpt><trkpt lat="-35.63287605031276" lon="144.21070267430386"><ele>89.0</ele><time>2026-05-04T03:37:36Z</time></trkpt><trkpt lat="-35.63279474494998" lon="144.2107124116"><ele>89.0</ele><time>2026-05-04T03:37:37Z</time></trkpt><trkpt lat="-35.632806320583164" lon="144.21090235332332"><ele>89.0</ele><time>2026-05-04T03:37:38Z</time></trkpt><trkpt lat="-35.632755003741465" lon="144.21096530191383"><ele>89.0</ele><time>2026-05-04T03:37:39Z</time></trkpt><trkpt lat="-35.632672903243986" lon="144.21085454745986"><ele>89.0</ele><time>2026-05-04T03:37:40Z</time></trkpt><trkpt lat="-35.632607460343124" lon="144.21083172983458"><ele>89.0</ele><time>2026-05-04T03:37:42Z</time></trkpt><trkpt lat="-35.63262378343963" lon="144.2106757929731"><ele>89.0</ele><time>2026-05-04T03:37:51Z</time></trkpt><trkpt lat="-35.63260004948329" lon="144.2105926330665"><ele>89.0</ele><time>2026-05-04T03:37:53Z</time></trkpt><trkpt lat="-35.63252781656832" lon="144.21053595401509"><ele>89.0</ele><time>2026-05-04T03:37:55Z</time></trkpt><trkpt lat="-35.63248236655509" lon="144.21047659172623"><ele>89.0</ele><time>2026-05-04T03:37:56Z</time></trkpt><trkpt lat="-35.63242997268072" lon="144.2104282943675"><ele>89.0</ele><time>2026-05-04T03:37:57Z</time></trkpt><trkpt lat="-35.63237466831318" lon="144.21038283450488"><ele>89.0</ele><time>2026-05-04T03:37:58Z</time></trkpt><trkpt lat="-35.63235122397482" lon="144.21026691221385"><ele>89.0</ele><time>2026-05-04T03:38:01Z</time></trkpt><trkpt lat="-35.63230360925786" lon="144.21019032880645"><ele>89.0</ele><time>2026-05-04T03:38:04Z</time></trkpt><trkpt lat="-35.63224339473521" lon="144.2100982628985"><ele>89.0</ele><time>2026-05-04T03:38:07Z</time></trkpt><trkpt lat="-35.632181579537054" lon="144.21005678039046"><ele>89.0</ele><time>2026-05-04T03:38:09Z</time></trkpt><trkpt lat="-35.632100363307906" lon="144.2100133804174"><ele>89.0</ele><time>2026-05-04T03:38:11Z</time></trkpt><trkpt lat="-35.63202772342168" lon="144.20999101110857"><ele>89.0</ele><time>2026-05-04T03:38:14Z</time></trkpt><trkpt lat="-35.63195588913919" lon="144.2099785574862"><ele>89.33333333333334</ele><time>2026-05-04T03:38:17Z</time></trkpt><trkpt lat="-35.63187287241286" lon="144.21000603771924"><ele>89.66666666666667</ele><time>2026-05-04T03:38:20Z</time></trkpt><trkpt lat="-35.63180390055273" lon="144.21000692666604"><ele>90.0</ele><time>2026-05-04T03:38:23Z</time></trkpt><trkpt lat="-35.63176057011687" lon="144.20992970331048"><ele>90.33333333333333</ele><time>2026-05-04T03:38:25Z</time></trkpt><trkpt lat="-35.63176044842345" lon="144.20984405698653"><ele>90.66666666666666</ele><time>2026-05-04T03:38:27Z</time></trkpt><trkpt lat="-35.6317214319619" lon="144.20975845501778"><ele>91.0</ele><time>2026-05-04T03:38:30Z</time></trkpt><trkpt lat="-35.63170181888683" lon="144.20967407660947"><ele>91.0</ele><time>2026-05-04T03:38:32Z</time></trkpt><trkpt lat="-35.6316875837131" lon="144.20953153145402"><ele>91.0</ele><time>2026-05-04T03:38:35Z</time></trkpt><trkpt lat="-35.630891869947064" lon="144.20854812631896"><ele>90.0</ele><time>2026-05-04T03:38:38Z</time></trkpt><trkpt lat="-35.630732642731715" lon="144.20846800687383"><ele>89.0</ele><time>2026-05-04T03:38:39Z</time></trkpt><trkpt lat="-35.63062670540432" lon="144.20841782510357"><ele>88.0</ele><time>2026-05-04T03:38:40Z</time></trkpt><trkpt lat="-35.63059746095381" lon="144.20830506834548"><ele>87.0</ele><time>2026-05-04T03:38:41Z</time></trkpt><trkpt lat="-35.63060256947228" lon="144.2081697417132"><ele>87.0</ele><time>2026-05-04T03:38:42Z</time></trkpt><trkpt lat="-35.630313758124494" lon="144.20813628485817"><ele>87.0</ele><time>2026-05-04T03:38:46.001Z</time></trkpt><trkpt lat="-35.63031798862249" lon="144.2080178898438"><ele>87.0</ele><time>2026-05-04T03:38:48.001Z</time></trkpt><trkpt lat="-35.63028986166633" lon="144.2079425106"><ele>87.0</ele><time>2026-05-04T03:38:50.001Z</time></trkpt><trkpt lat="-35.63019312756694" lon="144.2078660648725"><ele>87.0</ele><time>2026-05-04T03:38:53.001Z</time></trkpt><trkpt lat="-35.63015107421857" lon="144.20779915530582"><ele>87.0</ele><time>2026-05-04T03:38:54.001Z</time></trkpt><trkpt lat="-35.63053672094415" lon="144.20810900869606"><ele>87.0</ele><time>2026-05-04T03:38:55.001Z</time></trkpt><trkpt lat="-35.63045393767962" lon="144.2079801617529"><ele>87.0</ele><time>2026-05-04T03:38:56.001Z</time></trkpt><trkpt lat="-35.63035536756675" lon="144.20786617013073"><ele>87.0</ele><time>2026-05-04T03:38:57.001Z</time></trkpt><trkpt lat="-35.63025073327284" lon="144.20776984904933"><ele>87.0</ele><time>2026-05-04T03:38:58.001Z</time></trkpt><trkpt lat="-35.63012817015366" lon="144.20768201974383"><ele>87.0</ele><time>2026-05-04T03:38:59.001Z</time></trkpt><trkpt lat="-35.630041056654626" lon="144.2076275915047"><ele>87.0</ele><time>2026-05-04T03:39:00.001Z</time></trkpt><trkpt lat="-35.629962371187126" lon="144.20752566037274"><ele>87.0</ele><time>2026-05-04T03:39:01.001Z</time></trkpt><trkpt lat="-35.62988553244447" lon="144.20742578822802"><ele>87.0</ele><time>2026-05-04T03:39:02.001Z</time></trkpt><trkpt lat="-35.62984137094952" lon="144.2073638024648"><ele>87.0</ele><time>2026-05-04T03:39:03.001Z</time></trkpt><trkpt lat="-35.62974644920462" lon="144.20714450024576"><ele>87.66666666666667</ele><time>2026-05-04T03:39:04.001Z</time></trkpt><trkpt lat="-35.62970166530119" lon="144.20697420752091"><ele>88.33333333333334</ele><time>2026-05-04T03:39:05.001Z</time></trkpt><trkpt lat="-35.62962355328689" lon="144.20685107045483"><ele>89.0</ele><time>2026-05-04T03:39:06.001Z</time></trkpt><trkpt lat="-35.62986416576706" lon="144.20701675872695"><ele>89.0</ele><time>2026-05-04T03:39:07.001Z</time></trkpt><trkpt lat="-35.62978960960881" lon="144.20694522559634"><ele>89.0</ele><time>2026-05-04T03:39:08Z</time></trkpt><trkpt lat="-35.629675052946084" lon="144.20691691156634"><ele>89.0</ele><time>2026-05-04T03:39:09Z</time></trkpt><trkpt lat="-35.62958825701953" lon="144.20687314863613"><ele>89.0</ele><time>2026-05-04T03:39:10Z</time></trkpt><trkpt lat="-35.62950530601446" lon="144.2068539912474"><ele>89.0</ele><time>2026-05-04T03:39:11Z</time></trkpt><trkpt lat="-35.62944290369088" lon="144.20678001727077"><ele>88.80000000000001</ele><time>2026-05-04T03:39:12Z</time></trkpt><trkpt lat="-35.62941367266985" lon="144.2066893490063"><ele>88.60000000000001</ele><time>2026-05-04T03:39:13Z</time></trkpt><trkpt lat="-35.629362917586036" lon="144.20658461313553"><ele>88.4</ele><time>2026-05-04T03:39:14Z</time></trkpt><trkpt lat="-35.62925633406997" lon="144.2064561359541"><ele>88.2</ele><time>2026-05-04T03:39:15Z</time></trkpt><trkpt lat="-35.629152898620035" lon="144.20641389775093"><ele>88.0</ele><time>2026-05-04T03:39:16Z</time></trkpt><trkpt lat="-35.62911397881565" lon="144.20635202911708"><ele>88.60000000000001</ele><time>2026-05-04T03:39:17Z</time></trkpt><trkpt lat="-35.629078905752856" lon="144.20620352023172"><ele>89.2</ele><time>2026-05-04T03:39:19Z</time></trkpt><trkpt lat="-35.62905310551233" lon="144.20611296594947"><ele>89.8</ele><time>2026-05-04T03:39:20Z</time></trkpt><trkpt lat="-35.62905055489872" lon="144.20603281433026"><ele>90.4</ele><time>2026-05-04T03:39:21Z</time></trkpt><trkpt lat="-35.629005228805525" lon="144.20589582002773"><ele>91.0</ele><time>2026-05-04T03:39:23Z</time></trkpt><trkpt lat="-35.62893996456684" lon="144.2058011929194"><ele>91.0</ele><time>2026-05-04T03:39:24Z</time></trkpt><trkpt lat="-35.628904835960164" lon="144.2057205561051"><ele>91.0</ele><time>2026-05-04T03:39:25Z</time></trkpt><trkpt lat="-35.62888745989071" lon="144.20557667064213"><ele>91.0</ele><time>2026-05-04T03:39:27Z</time></trkpt><trkpt lat="-35.628804783595946" lon="144.2054893286339"><ele>91.0</ele><time>2026-05-04T03:39:29Z</time></trkpt><trkpt lat="-35.628784072057336" lon="144.20536983084537"><ele>91.0</ele><time>2026-05-04T03:39:31Z</time></trkpt><trkpt lat="-35.628829847438446" lon="144.2052635452654"><ele>90.8</ele><time>2026-05-04T03:39:35Z</time></trkpt><trkpt lat="-35.62887614205537" lon="144.20516399018493"><ele>90.6</ele><time>2026-05-04T03:39:37Z</time></trkpt><trkpt lat="-35.62893037069015" lon="144.20507271130157"><ele>90.4</ele><time>2026-05-04T03:39:38Z</time></trkpt><trkpt lat="-35.62897428268476" lon="144.20495703034237"><ele>90.2</ele><time>2026-05-04T03:39:39Z</time></trkpt><trkpt lat="-35.628971905859984" lon="144.20484785098813"><ele>90.0</ele><time>2026-05-04T03:39:40Z</time></trkpt><trkpt lat="-35.62888339331644" lon="144.20476468569677"><ele>89.8</ele><time>2026-05-04T03:39:42Z</time></trkpt><trkpt lat="-35.628799486357345" lon="144.20472624675122"><ele>89.6</ele><time>2026-05-04T03:39:43Z</time></trkpt><trkpt lat="-35.62867474008981" lon="144.20467629301174"><ele>89.4</ele><time>2026-05-04T03:39:44Z</time></trkpt><trkpt lat="-35.62856989447803" lon="144.2046238406365"><ele>89.2</ele><time>2026-05-04T03:39:45Z</time></trkpt><trkpt lat="-35.62850905526259" lon="144.20454254694684"><ele>89.0</ele><time>2026-05-04T03:39:46Z</time></trkpt><trkpt lat="-35.62847283423413" lon="144.20445895304346"><ele>88.6</ele><time>2026-05-04T03:39:47Z</time></trkpt><trkpt lat="-35.628459221646175" lon="144.20436545272298"><ele>88.2</ele><time>2026-05-04T03:39:48Z</time></trkpt><trkpt lat="-35.62843941827799" lon="144.20428243547934"><ele>87.8</ele><time>2026-05-04T03:39:49Z</time></trkpt><trkpt lat="-35.62837941223157" lon="144.20418334657325"><ele>87.39999999999999</ele><time>2026-05-04T03:39:51Z</time></trkpt><trkpt lat="-35.62830838495161" lon="144.20406876263203"><ele>87.0</ele><time>2026-05-04T03:39:53Z</time></trkpt><trkpt lat="-35.62820565346146" lon="144.20406792679282"><ele>87.0</ele><time>2026-05-04T03:39:56Z</time></trkpt><trkpt lat="-35.62814656789635" lon="144.20401972022532"><ele>87.0</ele><time>2026-05-04T03:40:00Z</time></trkpt><trkpt lat="-35.628143203224354" lon="144.20392756191663"><ele>87.0</ele><time>2026-05-04T03:40:03Z</time></trkpt><trkpt lat="-35.62814186504473" lon="144.20382307399268"><ele>87.0</ele><time>2026-05-04T03:40:05Z</time></trkpt><trkpt lat="-35.62813838152371" lon="144.20373121066683"><ele>87.0</ele><time>2026-05-04T03:40:06Z</time></trkpt><trkpt lat="-35.62816017893709" lon="144.20361929973768"><ele>87.0</ele><time>2026-05-04T03:40:07Z</time></trkpt><trkpt lat="-35.62816909068426" lon="144.20347369002562"><ele>87.19999999999999</ele><time>2026-05-04T03:40:08Z</time></trkpt><trkpt lat="-35.62816768526584" lon="144.2033104645778"><ele>87.4</ele><time>2026-05-04T03:40:09Z</time></trkpt><trkpt lat="-35.62815629191107" lon="144.20319215856577"><ele>87.6</ele><time>2026-05-04T03:40:10Z</time></trkpt><trkpt lat="-35.62810666977125" lon="144.20312857880143"><ele>87.80000000000001</ele><time>2026-05-04T03:40:11Z</time></trkpt><trkpt lat="-35.628009762378625" lon="144.20312069524854"><ele>88.0</ele><time>2026-05-04T03:40:12Z</time></trkpt><trkpt lat="-35.627904089500035" lon="144.20315899515472"><ele>88.0</ele><time>2026-05-04T03:40:13Z</time></trkpt><trkpt lat="-35.62784259708379" lon="144.20318415948373"><ele>88.0</ele><time>2026-05-04T03:40:14Z</time></trkpt><trkpt lat="-35.627826678091196" lon="144.20309650036145"><ele>88.0</ele><time>2026-05-04T03:40:16Z</time></trkpt><trkpt lat="-35.627858838930436" lon="144.20300852511554"><ele>88.0</ele><time>2026-05-04T03:40:17Z</time></trkpt><trkpt lat="-35.62781588292553" lon="144.2029313864813"><ele>88.0</ele><time>2026-05-04T03:40:18Z</time></trkpt><trkpt lat="-35.62773342540757" lon="144.20289157272654"><ele>88.0</ele><time>2026-05-04T03:40:19Z</time></trkpt><trkpt lat="-35.62764242488652" lon="144.20287133898648"><ele>87.66666666666666</ele><time>2026-05-04T03:40:20Z</time></trkpt><trkpt lat="-35.62757267710503" lon="144.2028375326569"><ele>87.33333333333333</ele><time>2026-05-04T03:40:21Z</time></trkpt><trkpt lat="-35.627509820163446" lon="144.2027878251155"><ele>87.0</ele><time>2026-05-04T03:40:22Z</time></trkpt><trkpt lat="-35.627460844860316" lon="144.20273075182644"><ele>86.66666666666667</ele><time>2026-05-04T03:40:23Z</time></trkpt><trkpt lat="-35.62739453045488" lon="144.20274853398314"><ele>86.33333333333334</ele><time>2026-05-04T03:40:25Z</time></trkpt><trkpt lat="-35.62744673943483" lon="144.20284471463046"><ele>86.0</ele><time>2026-05-04T03:40:27Z</time></trkpt><trkpt lat="-35.62751637111416" lon="144.2028599704276"><ele>86.0</ele><time>2026-05-04T03:40:28Z</time></trkpt><trkpt lat="-35.6275923960407" lon="144.20288849832852"><ele>86.0</ele><time>2026-05-04T03:40:29Z</time></trkpt><trkpt lat="-35.62767070337768" lon="144.2029261012574"><ele>86.0</ele><time>2026-05-04T03:40:30Z</time></trkpt><trkpt lat="-35.62776230372801" lon="144.2029568368551"><ele>86.0</ele><time>2026-05-04T03:40:31Z</time></trkpt><trkpt lat="-35.627847649520994" lon="144.20297841266694"><ele>86.0</ele><time>2026-05-04T03:40:32Z</time></trkpt><trkpt lat="-35.62791285045004" lon="144.20301297533456"><ele>86.0</ele><time>2026-05-04T03:40:33Z</time></trkpt><trkpt lat="-35.62799502173102" lon="144.20306814450396"><ele>86.0</ele><time>2026-05-04T03:40:35Z</time></trkpt><trkpt lat="-35.62793724069338" lon="144.20310657286944"><ele>86.0</ele><time>2026-05-04T03:40:38Z</time></trkpt><trkpt lat="-35.62787431101435" lon="144.20305429435143"><ele>86.0</ele><time>2026-05-04T03:40:41Z</time></trkpt><trkpt lat="-35.6278480396166" lon="144.2029733250336"><ele>86.0</ele><time>2026-05-04T03:40:45Z</time></trkpt><trkpt lat="-35.62774433568036" lon="144.20290937651978"><ele>86.0</ele><time>2026-05-04T03:40:47Z</time></trkpt><trkpt lat="-35.62760853619841" lon="144.20287251527802"><ele>86.0</ele><time>2026-05-04T03:40:49Z</time></trkpt><trkpt lat="-35.62752802941206" lon="144.20282471523672"><ele>86.0</ele><time>2026-05-04T03:40:50Z</time></trkpt><trkpt lat="-35.62746188242233" lon="144.20273880894504"><ele>86.0</ele><time>2026-05-04T03:40:51.001Z</time></trkpt><trkpt lat="-35.627396533578114" lon="144.2026993734789"><ele>86.0</ele><time>2026-05-04T03:40:52.001Z</time></trkpt><trkpt lat="-35.62731125345125" lon="144.20277227658968"><ele>86.0</ele><time>2026-05-04T03:40:53.001Z</time></trkpt><trkpt lat="-35.627210696858725" lon="144.20290133459318"><ele>86.0</ele><time>2026-05-04T03:40:54.001Z</time></trkpt><trkpt lat="-35.62713124854888" lon="144.20301159506187"><ele>86.0</ele><time>2026-05-04T03:40:55.001Z</time></trkpt><trkpt lat="-35.62709784645362" lon="144.20313265493527"><ele>86.0</ele><time>2026-05-04T03:40:56.001Z</time></trkpt><trkpt lat="-35.627112034108904" lon="144.20329005028267"><ele>86.0</ele><time>2026-05-04T03:40:57.001Z</time></trkpt><trkpt lat="-35.62717434020876" lon="144.20347421473775"><ele>86.6</ele><time>2026-05-04T03:40:58.001Z</time></trkpt><trkpt lat="-35.627229959551244" lon="144.20361233592823"><ele>87.19999999999999</ele><time>2026-05-04T03:40:59Z</time></trkpt><trkpt lat="-35.627247607928616" lon="144.20374720708529"><ele>87.80000000000001</ele><time>2026-05-04T03:41:00Z</time></trkpt><trkpt lat="-35.62724198556751" lon="144.2038396455158"><ele>88.4</ele><time>2026-05-04T03:41:11Z</time></trkpt><trkpt lat="-35.62724692959497" lon="144.2039549442035"><ele>89.0</ele><time>2026-05-04T03:41:14Z</time></trkpt><trkpt lat="-35.62725075945919" lon="144.20411454398888"><ele>89.33333333333334</ele><time>2026-05-04T03:41:16Z</time></trkpt><trkpt lat="-35.62723027841841" lon="144.20420621718483"><ele>89.66666666666667</ele><time>2026-05-04T03:41:17Z</time></trkpt><trkpt lat="-35.62711758246306" lon="144.2042471611487"><ele>90.0</ele><time>2026-05-04T03:41:19Z</time></trkpt><trkpt lat="-35.62705680657565" lon="144.20422629424482"><ele>90.33333333333333</ele><time>2026-05-04T03:41:20Z</time></trkpt><trkpt lat="-35.626986882402214" lon="144.20422648899674"><ele>90.66666666666666</ele><time>2026-05-04T03:41:22Z</time></trkpt><trkpt lat="-35.62688004048288" lon="144.20416814726843"><ele>91.0</ele><time>2026-05-04T03:41:24Z</time></trkpt><trkpt lat="-35.626784324531215" lon="144.20420728135093"><ele>91.19999999999999</ele><time>2026-05-04T03:41:26Z</time></trkpt><trkpt lat="-35.626766077476645" lon="144.20430252904356"><ele>91.39999999999999</ele><time>2026-05-04T03:41:27Z</time></trkpt><trkpt lat="-35.62678077832408" lon="144.20444049684292"><ele>91.6</ele><time>2026-05-04T03:41:28Z</time></trkpt><trkpt lat="-35.62673346059755" lon="144.20457250385073"><ele>91.8</ele><time>2026-05-04T03:41:29Z</time></trkpt><trkpt lat="-35.62664795721907" lon="144.20469883321726"><ele>92.0</ele><time>2026-05-04T03:41:30Z</time></trkpt><trkpt lat="-35.62654184211138" lon="144.20483320323171"><ele>92.25</ele><time>2026-05-04T03:41:31Z</time></trkpt><trkpt lat="-35.62642331939232" lon="144.2049606787211"><ele>92.5</ele><time>2026-05-04T03:41:32Z</time></trkpt><trkpt lat="-35.62631683899402" lon="144.2050758099012"><ele>92.75</ele><time>2026-05-04T03:41:33Z</time></trkpt><trkpt lat="-35.62620390929603" lon="144.2051836353999"><ele>93.0</ele><time>2026-05-04T03:41:34Z</time></trkpt><trkpt lat="-35.626048719559506" lon="144.20528606925683"><ele>93.75</ele><time>2026-05-04T03:41:35Z</time></trkpt><trkpt lat="-35.62589717148328" lon="144.20539335226198"><ele>94.5</ele><time>2026-05-04T03:41:36Z</time></trkpt><trkpt lat="-35.62577169195218" lon="144.2054812696572"><ele>95.25</ele><time>2026-05-04T03:41:37Z</time></trkpt><trkpt lat="-35.62566201474774" lon="144.20554020254596"><ele>96.0</ele><time>2026-05-04T03:41:38Z</time></trkpt><trkpt lat="-35.62556684149777" lon="144.2055835024503"><ele>96.0</ele><time>2026-05-04T03:41:39Z</time></trkpt><trkpt lat="-35.625485606300145" lon="144.2056071679375"><ele>96.0</ele><time>2026-05-04T03:41:40Z</time></trkpt><trkpt lat="-35.62542928373902" lon="144.20556056961337"><ele>96.0</ele><time>2026-05-04T03:41:41Z</time></trkpt><trkpt lat="-35.62539044114725" lon="144.20547077906107"><ele>96.0</ele><time>2026-05-04T03:41:42Z</time></trkpt><trkpt lat="-35.625399887667896" lon="144.20535265901987"><ele>96.0</ele><time>2026-05-04T03:41:44Z</time></trkpt><trkpt lat="-35.625320657875065" lon="144.20530941555535"><ele>96.0</ele><time>2026-05-04T03:41:48Z</time></trkpt><trkpt lat="-35.625212935541704" lon="144.20533849090276"><ele>96.0</ele><time>2026-05-04T03:41:50Z</time></trkpt><trkpt lat="-35.62515603058494" lon="144.20538132272185"><ele>96.0</ele><time>2026-05-04T03:41:52Z</time></trkpt><trkpt lat="-35.62505046573643" lon="144.2053384927019"><ele>96.0</ele><time>2026-05-04T03:41:56Z</time></trkpt><trkpt lat="-35.62500081528519" lon="144.20526816739624"><ele>96.0</ele><time>2026-05-04T03:42:01Z</time></trkpt><trkpt lat="-35.62493322487138" lon="144.20527344851376"><ele>96.0</ele><time>2026-05-04T03:42:04Z</time></trkpt><trkpt lat="-35.62487810928222" lon="144.20523120363296"><ele>96.0</ele><time>2026-05-04T03:42:08Z</time></trkpt><trkpt lat="-35.62477357612767" lon="144.20525459077317"><ele>95.99999999999999</ele><time>2026-05-04T03:42:33Z</time></trkpt><trkpt lat="-35.624760260793565" lon="144.20536128166555"><ele>96.0</ele><time>2026-05-04T03:42:35Z</time></trkpt><trkpt lat="-35.62473697609494" lon="144.2054388892025"><ele>96.0</ele><time>2026-05-04T03:42:37Z</time></trkpt><trkpt lat="-35.624741192476" lon="144.20552319120966"><ele>96.0</ele><time>2026-05-04T03:42:45Z</time></trkpt><trkpt lat="-35.62480360155032" lon="144.20558370212387"><ele>96.0</ele><time>2026-05-04T03:42:49Z</time></trkpt><trkpt lat="-35.624744970978085" lon="144.2055502546285"><ele>95.99999999999999</ele><time>2026-05-04T03:43:07Z</time></trkpt><trkpt lat="-35.62467452300845" lon="144.2055605158321"><ele>96.0</ele><time>2026-05-04T03:43:10Z</time></trkpt><trkpt lat="-35.624610133449046" lon="144.20558008381985"><ele>96.0</ele><time>2026-05-04T03:43:19Z</time></trkpt><trkpt lat="-35.624539133935095" lon="144.20557687209617"><ele>96.0</ele><time>2026-05-04T03:43:22Z</time></trkpt><trkpt lat="-35.624497372975796" lon="144.20549291789573"><ele>96.0</ele><time>2026-05-04T03:43:24Z</time></trkpt><trkpt lat="-35.624481981475505" lon="144.20538287917523"><ele>96.0</ele><time>2026-05-04T03:43:26Z</time></trkpt><trkpt lat="-35.62451387221009" lon="144.20528282896998"><ele>96.0</ele><time>2026-05-04T03:43:28Z</time></trkpt><trkpt lat="-35.62456744546459" lon="144.20522744972297"><ele>96.0</ele><time>2026-05-04T03:43:30Z</time></trkpt><trkpt lat="-35.6246363477217" lon="144.20517127350922"><ele>96.0</ele><time>2026-05-04T03:43:32Z</time></trkpt><trkpt lat="-35.624703885781194" lon="144.20515347387246"><ele>96.0</ele><time>2026-05-04T03:43:36Z</time></trkpt><trkpt lat="-35.62478692849821" lon="144.20519144066822"><ele>96.0</ele><time>2026-05-04T03:43:38Z</time></trkpt><trkpt lat="-35.62482836698771" lon="144.2052514738121"><ele>96.0</ele><time>2026-05-04T03:43:40Z</time></trkpt><trkpt lat="-35.62481163807092" lon="144.20516448004255"><ele>96.0</ele><time>2026-05-04T03:43:47Z</time></trkpt><trkpt lat="-35.624733962038164" lon="144.20507668344365"><ele>96.0</ele><time>2026-05-04T03:43:50Z</time></trkpt><trkpt lat="-35.624634497986165" lon="144.2051106349719"><ele>96.0</ele><time>2026-05-04T03:43:52Z</time></trkpt><trkpt lat="-35.6245669927501" lon="144.2051940172723"><ele>96.0</ele><time>2026-05-04T03:43:54Z</time></trkpt><trkpt lat="-35.62449783666805" lon="144.2052976478427"><ele>96.0</ele><time>2026-05-04T03:43:56Z</time></trkpt><trkpt lat="-35.62449418480913" lon="144.20539897826163"><ele>96.0</ele><time>2026-05-04T03:44:01Z</time></trkpt><trkpt lat="-35.62443240038373" lon="144.2054905898076"><ele>96.0</ele><time>2026-05-04T03:44:02Z</time></trkpt><trkpt lat="-35.62435623968003" lon="144.2055154384586"><ele>95.4</ele><time>2026-05-04T03:44:04Z</time></trkpt><trkpt lat="-35.624287814856615" lon="144.20549066289232"><ele>94.8</ele><time>2026-05-04T03:44:05Z</time></trkpt><trkpt lat="-35.62426702538221" lon="144.2056301015828"><ele>94.2</ele><time>2026-05-04T03:44:07Z</time></trkpt><trkpt lat="-35.624281792318705" lon="144.20575436005245"><ele>93.60000000000001</ele><time>2026-05-04T03:44:09Z</time></trkpt><trkpt lat="-35.62426377513635" lon="144.20588898381064"><ele>93.0</ele><time>2026-05-04T03:44:12Z</time></trkpt><trkpt lat="-35.624269858788594" lon="144.20598196245564"><ele>93.0</ele><time>2026-05-04T03:44:15Z</time></trkpt><trkpt lat="-35.624248067881936" lon="144.20605662526506"><ele>93.0</ele><time>2026-05-04T03:44:17Z</time></trkpt><trkpt lat="-35.62426204430899" lon="144.20619559172275"><ele>93.0</ele><time>2026-05-04T03:44:19Z</time></trkpt><trkpt lat="-35.62426448028012" lon="144.20631174756392"><ele>93.0</ele><time>2026-05-04T03:44:20Z</time></trkpt><trkpt lat="-35.62425537876324" lon="144.2063971425708"><ele>93.0</ele><time>2026-05-04T03:44:21Z</time></trkpt><trkpt lat="-35.62419499936483" lon="144.20654683901012"><ele>92.60000000000001</ele><time>2026-05-04T03:44:22Z</time></trkpt><trkpt lat="-35.62413322671691" lon="144.20664423522487"><ele>92.2</ele><time>2026-05-04T03:44:23Z</time></trkpt><trkpt lat="-35.624040425734854" lon="144.2067587685509"><ele>91.8</ele><time>2026-05-04T03:44:24Z</time></trkpt><trkpt lat="-35.623967877553305" lon="144.20685442215927"><ele>91.4</ele><time>2026-05-04T03:44:26Z</time></trkpt><trkpt lat="-35.62394632398827" lon="144.20694733920655"><ele>91.0</ele><time>2026-05-04T03:44:28Z</time></trkpt><trkpt lat="-35.62399156583549" lon="144.20700211445092"><ele>91.0</ele><time>2026-05-04T03:44:29Z</time></trkpt><trkpt lat="-35.6240022377209" lon="144.20708889135057"><ele>91.0</ele><time>2026-05-04T03:44:31Z</time></trkpt><trkpt lat="-35.623938504232285" lon="144.20719134633612"><ele>91.0</ele><time>2026-05-04T03:44:33Z</time></trkpt><trkpt lat="-35.62390435272419" lon="144.20727476919683"><ele>91.0</ele><time>2026-05-04T03:44:37Z</time></trkpt><trkpt lat="-35.62397183882702" lon="144.20738621942834"><ele>91.0</ele><time>2026-05-04T03:44:39Z</time></trkpt><trkpt lat="-35.62402257454489" lon="144.20751964013263"><ele>90.8</ele><time>2026-05-04T03:44:41Z</time></trkpt><trkpt lat="-35.62413573710968" lon="144.2075963372296"><ele>90.6</ele><time>2026-05-04T03:44:43Z</time></trkpt><trkpt lat="-35.62417413528737" lon="144.20773941522634"><ele>90.4</ele><time>2026-05-04T03:44:45Z</time></trkpt><trkpt lat="-35.62415819616916" lon="144.20782460518987"><ele>90.2</ele><time>2026-05-04T03:44:46Z</time></trkpt><trkpt lat="-35.624185695997774" lon="144.20790330290296"><ele>90.0</ele><time>2026-05-04T03:44:48.999Z</time></trkpt><trkpt lat="-35.624283359155044" lon="144.20785558508206"><ele>90.0</ele><time>2026-05-04T03:44:52.999Z</time></trkpt><trkpt lat="-35.624296870948065" lon="144.20794099458166"><ele>90.0</ele><time>2026-05-04T03:44:55.999Z</time></trkpt><trkpt lat="-35.624281308461036" lon="144.20785050404922"><ele>90.0</ele><time>2026-05-04T03:45:00.999Z</time></trkpt><trkpt lat="-35.62428626209001" lon="144.20776520915916"><ele>90.0</ele><time>2026-05-04T03:45:07Z</time></trkpt><trkpt lat="-35.624330987477364" lon="144.2078204288322"><ele>90.0</ele><time>2026-05-04T03:45:12Z</time></trkpt><trkpt lat="-35.624289756644195" lon="144.20791620489527"><ele>90.0</ele><time>2026-05-04T03:45:17Z</time></trkpt><trkpt lat="-35.62431660619058" lon="144.20802406205684"><ele>90.0</ele><time>2026-05-04T03:45:19Z</time></trkpt><trkpt lat="-35.62437217166322" lon="144.20812417308403"><ele>90.0</ele><time>2026-05-04T03:45:21Z</time></trkpt><trkpt lat="-35.62444899932122" lon="144.20816310356864"><ele>90.0</ele><time>2026-05-04T03:45:22Z</time></trkpt><trkpt lat="-35.62448688454485" lon="144.2082583587655"><ele>90.0</ele><time>2026-05-04T03:45:23Z</time></trkpt><trkpt lat="-35.62452477667134" lon="144.20840425660882"><ele>90.0</ele><time>2026-05-04T03:45:24Z</time></trkpt><trkpt lat="-35.62457678667138" lon="144.20854366163752"><ele>90.0</ele><time>2026-05-04T03:45:25Z</time></trkpt><trkpt lat="-35.62458670237053" lon="144.20866830384222"><ele>90.0</ele><time>2026-05-04T03:45:26Z</time></trkpt><trkpt lat="-35.62462202107107" lon="144.20874424146976"><ele>90.0</ele><time>2026-05-04T03:45:28Z</time></trkpt><trkpt lat="-35.62468931026153" lon="144.20878027584388"><ele>90.0</ele><time>2026-05-04T03:45:29Z</time></trkpt><trkpt lat="-35.62476920851502" lon="144.2088226063862"><ele>90.0</ele><time>2026-05-04T03:45:30Z</time></trkpt><trkpt lat="-35.624885253435906" lon="144.20885319808605"><ele>90.0</ele><time>2026-05-04T03:45:31Z</time></trkpt><trkpt lat="-35.62499052965415" lon="144.20893323491563"><ele>90.0</ele><time>2026-05-04T03:45:32Z</time></trkpt><trkpt lat="-35.62508171649772" lon="144.20903083407094"><ele>90.0</ele><time>2026-05-04T03:45:33Z</time></trkpt><trkpt lat="-35.62513387728054" lon="144.20910669445456"><ele>90.0</ele><time>2026-05-04T03:45:34Z</time></trkpt><trkpt lat="-35.62516834363189" lon="144.20920661843834"><ele>90.0</ele><time>2026-05-04T03:45:35Z</time></trkpt><trkpt lat="-35.6251886665314" lon="144.20930365431138"><ele>90.2</ele><time>2026-05-04T03:45:36Z</time></trkpt><trkpt lat="-35.62521501991139" lon="144.20942565364345"><ele>90.4</ele><time>2026-05-04T03:45:38Z</time></trkpt><trkpt lat="-35.62528077391246" lon="144.20947713093568"><ele>90.6</ele><time>2026-05-04T03:45:41Z</time></trkpt><trkpt lat="-35.62536083343444" lon="144.20952561050515"><ele>90.8</ele><time>2026-05-04T03:45:42Z</time></trkpt><trkpt lat="-35.625438479745924" lon="144.20963557347667"><ele>91.0</ele><time>2026-05-04T03:45:44Z</time></trkpt><trkpt lat="-35.6255111457205" lon="144.2097431736014"><ele>90.83333333333333</ele><time>2026-05-04T03:45:45Z</time></trkpt><trkpt lat="-35.625536171404" lon="144.2098350476243"><ele>90.66666666666666</ele><time>2026-05-04T03:45:46Z</time></trkpt><trkpt lat="-35.62552967624868" lon="144.20994679324966"><ele>90.5</ele><time>2026-05-04T03:45:47Z</time></trkpt><trkpt lat="-35.62554041021679" lon="144.2100584287381"><ele>90.33333333333333</ele><time>2026-05-04T03:45:48Z</time></trkpt><trkpt lat="-35.62555356323706" lon="144.2101725106692"><ele>90.16666666666667</ele><time>2026-05-04T03:45:51Z</time></trkpt><trkpt lat="-35.62561933567824" lon="144.21023666943222"><ele>90.0</ele><time>2026-05-04T03:45:53Z</time></trkpt><trkpt lat="-35.62568296754911" lon="144.21024131727592"><ele>90.0</ele><time>2026-05-04T03:45:55Z</time></trkpt><trkpt lat="-35.62577344120089" lon="144.21027048499337"><ele>90.0</ele><time>2026-05-04T03:45:58Z</time></trkpt><trkpt lat="-35.6260232388233" lon="144.21035929854847"><ele>90.0</ele><time>2026-05-04T03:46:00Z</time></trkpt><trkpt lat="-35.62608929927865" lon="144.21050504729058"><ele>90.0</ele><time>2026-05-04T03:46:01Z</time></trkpt><trkpt lat="-35.6260126897532" lon="144.21057539782936"><ele>90.0</ele><time>2026-05-04T03:46:02Z</time></trkpt><trkpt lat="-35.626030714918535" lon="144.21079020557139"><ele>90.0</ele><time>2026-05-04T03:46:03Z</time></trkpt><trkpt lat="-35.626011119259026" lon="144.21096698659125"><ele>90.0</ele><time>2026-05-04T03:46:04Z</time></trkpt><trkpt lat="-35.62594558274971" lon="144.21105406264962"><ele>89.5</ele><time>2026-05-04T03:46:05Z</time></trkpt><trkpt lat="-35.625859104448566" lon="144.2110878725989"><ele>89.0</ele><time>2026-05-04T03:46:06Z</time></trkpt><trkpt lat="-35.62568833844568" lon="144.21112472837768"><ele>88.5</ele><time>2026-05-04T03:46:07Z</time></trkpt><trkpt lat="-35.62553109752442" lon="144.21117050733542"><ele>88.0</ele><time>2026-05-04T03:46:08Z</time></trkpt><trkpt lat="-35.62534987522574" lon="144.21123101111013"><ele>88.0</ele><time>2026-05-04T03:46:09Z</time></trkpt><trkpt lat="-35.625193201385926" lon="144.21127824431196"><ele>88.0</ele><time>2026-05-04T03:46:10Z</time></trkpt><trkpt lat="-35.62507529514516" lon="144.2113019816471"><ele>88.0</ele><time>2026-05-04T03:46:11Z</time></trkpt><trkpt lat="-35.62497869563791" lon="144.2113049569002"><ele>88.0</ele><time>2026-05-04T03:46:12Z</time></trkpt><trkpt lat="-35.624856243197435" lon="144.21128483459842"><ele>88.0</ele><time>2026-05-04T03:46:13Z</time></trkpt><trkpt lat="-35.62471544544348" lon="144.2112556601954"><ele>88.0</ele><time>2026-05-04T03:46:14Z</time></trkpt><trkpt lat="-35.6245481380229" lon="144.2112445337483"><ele>88.0</ele><time>2026-05-04T03:46:15Z</time></trkpt><trkpt lat="-35.62438273827988" lon="144.21124099310796"><ele>88.25</ele><time>2026-05-04T03:46:16Z</time></trkpt><trkpt lat="-35.6242257418879" lon="144.21123699725962"><ele>88.5</ele><time>2026-05-04T03:46:17Z</time></trkpt><trkpt lat="-35.624078448273835" lon="144.21121970916232"><ele>88.75</ele><time>2026-05-04T03:46:18Z</time></trkpt><trkpt lat="-35.623982753567034" lon="144.21122816285643"><ele>89.0</ele><time>2026-05-04T03:46:19Z</time></trkpt><trkpt lat="-35.623883177677776" lon="144.2112481845155"><ele>89.0</ele><time>2026-05-04T03:46:20Z</time></trkpt><trkpt lat="-35.623819021924106" lon="144.21124473809635"><ele>89.0</ele><time>2026-05-04T03:46:21Z</time></trkpt><trkpt lat="-35.623862649875996" lon="144.21116290648783"><ele>89.0</ele><time>2026-05-04T03:46:23Z</time></trkpt><trkpt lat="-35.6238308447223" lon="144.21093066717413"><ele>89.0</ele><time>2026-05-04T03:46:24Z</time></trkpt><trkpt lat="-35.62373234431149" lon="144.2107167523923"><ele>89.5</ele><time>2026-05-04T03:46:25Z</time></trkpt><trkpt lat="-35.62362415123647" lon="144.2105705789412"><ele>90.0</ele><time>2026-05-04T03:46:26Z</time></trkpt><trkpt lat="-35.623552346040306" lon="144.21045583700212"><ele>90.5</ele><time>2026-05-04T03:46:27Z</time></trkpt><trkpt lat="-35.62345354299742" lon="144.21040949368086"><ele>91.0</ele><time>2026-05-04T03:46:29Z</time></trkpt><trkpt lat="-35.62336269213182" lon="144.2103808600043"><ele>91.0</ele><time>2026-05-04T03:46:30Z</time></trkpt><trkpt lat="-35.62320553869055" lon="144.21034603450087"><ele>91.0</ele><time>2026-05-04T03:46:31Z</time></trkpt><trkpt lat="-35.62306373593242" lon="144.21031254186707"><ele>91.0</ele><time>2026-05-04T03:46:32Z</time></trkpt><trkpt lat="-35.6229066757031" lon="144.21028250331997"><ele>91.66666666666666</ele><time>2026-05-04T03:46:33Z</time></trkpt><trkpt lat="-35.62274625440332" lon="144.210229440064"><ele>92.33333333333333</ele><time>2026-05-04T03:46:33.999Z</time></trkpt><trkpt lat="-35.622608714493325" lon="144.21015558346105"><ele>93.0</ele><time>2026-05-04T03:46:34.999Z</time></trkpt><trkpt lat="-35.622466499668356" lon="144.21007440288545"><ele>93.0</ele><time>2026-05-04T03:46:35.999Z</time></trkpt><trkpt lat="-35.62236689190331" lon="144.20997749781685"><ele>93.0</ele><time>2026-05-04T03:46:36.999Z</time></trkpt><trkpt lat="-35.622256477155304" lon="144.209866510087"><ele>93.0</ele><time>2026-05-04T03:46:37.999Z</time></trkpt><trkpt lat="-35.622140944712505" lon="144.2097439492496"><ele>93.0</ele><time>2026-05-04T03:46:38.999Z</time></trkpt><trkpt lat="-35.6220479550047" lon="144.20966558325074"><ele>92.80000000000001</ele><time>2026-05-04T03:46:39.999Z</time></trkpt><trkpt lat="-35.621982134610995" lon="144.2096412651504"><ele>92.6</ele><time>2026-05-04T03:46:40.999Z</time></trkpt><trkpt lat="-35.62188817078429" lon="144.2096617796047"><ele>92.4</ele><time>2026-05-04T03:46:42.999Z</time></trkpt><trkpt lat="-35.621837219183156" lon="144.20971639904027"><ele>92.19999999999999</ele><time>2026-05-04T03:46:43.999Z</time></trkpt><trkpt lat="-35.62175202437522" lon="144.20966816956604"><ele>92.0</ele><time>2026-05-04T03:46:45.999Z</time></trkpt><trkpt lat="-35.62166283264342" lon="144.209560807506"><ele>92.0</ele><time>2026-05-04T03:46:47.999Z</time></trkpt><trkpt lat="-35.62161731065496" lon="144.20949062077574"><ele>92.0</ele><time>2026-05-04T03:46:48.999Z</time></trkpt><trkpt lat="-35.62155682863093" lon="144.20938966915685"><ele>92.0</ele><time>2026-05-04T03:46:49.999Z</time></trkpt><trkpt lat="-35.621503229664526" lon="144.2092953666299"><ele>92.0</ele><time>2026-05-04T03:46:50.999Z</time></trkpt><trkpt lat="-35.621424088022245" lon="144.20925863745055"><ele>92.0</ele><time>2026-05-04T03:46:51.999Z</time></trkpt><trkpt lat="-35.621353323717976" lon="144.20925576703493"><ele>92.0</ele><time>2026-05-04T03:46:52.999Z</time></trkpt><trkpt lat="-35.621296839834066" lon="144.20936452734458"><ele>92.0</ele><time>2026-05-04T03:46:53.999Z</time></trkpt><trkpt lat="-35.621228780279154" lon="144.2094878351385"><ele>92.0</ele><time>2026-05-04T03:46:54.999Z</time></trkpt><trkpt lat="-35.621144755811564" lon="144.2095705009028"><ele>92.0</ele><time>2026-05-04T03:46:55.999Z</time></trkpt><trkpt lat="-35.621062280433314" lon="144.20962195537277"><ele>92.0</ele><time>2026-05-04T03:46:56.999Z</time></trkpt><trkpt lat="-35.62097515095894" lon="144.20964534700082"><ele>92.0</ele><time>2026-05-04T03:46:58.999Z</time></trkpt><trkpt lat="-35.62085083423609" lon="144.20955800891917"><ele>91.83333333333334</ele><time>2026-05-04T03:47:00.999Z</time></trkpt><trkpt lat="-35.62074706045658" lon="144.20946303299837"><ele>91.66666666666667</ele><time>2026-05-04T03:47:01.999Z</time></trkpt><trkpt lat="-35.62066762556196" lon="144.20942794168514"><ele>91.5</ele><time>2026-05-04T03:47:02.999Z</time></trkpt><trkpt lat="-35.62059611257333" lon="144.2094388307728"><ele>91.33333333333333</ele><time>2026-05-04T03:47:03.999Z</time></trkpt><trkpt lat="-35.62051205486425" lon="144.20945390734582"><ele>91.16666666666666</ele><time>2026-05-04T03:47:04.999Z</time></trkpt><trkpt lat="-35.62044963481691" lon="144.20948301879696"><ele>91.0</ele><time>2026-05-04T03:47:05.999Z</time></trkpt><trkpt lat="-35.62039280252553" lon="144.20938658059765"><ele>91.0</ele><time>2026-05-04T03:47:07.999Z</time></trkpt><trkpt lat="-35.620428792946846" lon="144.2093085383262"><ele>91.0</ele><time>2026-05-04T03:47:09Z</time></trkpt><trkpt lat="-35.62042045790528" lon="144.2092187406985"><ele>91.0</ele><time>2026-05-04T03:47:10Z</time></trkpt><trkpt lat="-35.62042963546089" lon="144.20913883048848"><ele>91.0</ele><time>2026-05-04T03:47:11Z</time></trkpt><trkpt lat="-35.62046880460113" lon="144.20907350688535"><ele>91.0</ele><time>2026-05-04T03:47:13Z</time></trkpt><trkpt lat="-35.62042387417951" lon="144.20900806169627"><ele>91.0</ele><time>2026-05-04T03:47:18Z</time></trkpt><trkpt lat="-35.62042701165426" lon="144.20890891030157"><ele>91.0</ele><time>2026-05-04T03:47:27Z</time></trkpt><trkpt lat="-35.62037479430813" lon="144.20882586265503"><ele>91.19999999999999</ele><time>2026-05-04T03:47:31Z</time></trkpt><trkpt lat="-35.6203699203722" lon="144.20867127717176"><ele>91.39999999999999</ele><time>2026-05-04T03:47:33Z</time></trkpt><trkpt lat="-35.62042510910863" lon="144.2085568190324"><ele>91.6</ele><time>2026-05-04T03:47:35Z</time></trkpt><trkpt lat="-35.62046600049385" lon="144.20845306528298"><ele>91.8</ele><time>2026-05-04T03:47:37Z</time></trkpt><trkpt lat="-35.620464757485685" lon="144.20831740462793"><ele>92.0</ele><time>2026-05-04T03:47:39Z</time></trkpt><trkpt lat="-35.62043526739573" lon="144.2082411318126"><ele>92.6</ele><time>2026-05-04T03:47:40Z</time></trkpt><trkpt lat="-35.62043861709582" lon="144.20814347093201"><ele>93.19999999999999</ele><time>2026-05-04T03:47:42Z</time></trkpt><trkpt lat="-35.62044525902793" lon="144.2079868170157"><ele>93.8</ele><time>2026-05-04T03:47:44Z</time></trkpt><trkpt lat="-35.62043418008079" lon="144.20789414310107"><ele>94.4</ele><time>2026-05-04T03:47:45Z</time></trkpt><trkpt lat="-35.62043130615959" lon="144.20774670650974"><ele>95.0</ele><time>2026-05-04T03:47:47Z</time></trkpt><trkpt lat="-35.620465611304496" lon="144.20767650975574"><ele>95.0</ele><time>2026-05-04T03:47:49Z</time></trkpt><trkpt lat="-35.62051297134333" lon="144.20757374745324"><ele>95.0</ele><time>2026-05-04T03:47:51Z</time></trkpt><trkpt lat="-35.620461924261136" lon="144.20746172778652"><ele>95.0</ele><time>2026-05-04T03:47:53Z</time></trkpt><trkpt lat="-35.62038910441843" lon="144.20737292497822"><ele>95.0</ele><time>2026-05-04T03:47:55Z</time></trkpt><trkpt lat="-35.62031568945366" lon="144.2073415558802"><ele>95.0</ele><time>2026-05-04T03:47:57Z</time></trkpt><trkpt lat="-35.62022314617725" lon="144.20726603968396"><ele>95.2</ele><time>2026-05-04T03:47:59Z</time></trkpt><trkpt lat="-35.620188640780775" lon="144.2071748196004"><ele>95.4</ele><time>2026-05-04T03:48:01Z</time></trkpt><trkpt lat="-35.620248463517704" lon="144.20710324556907"><ele>95.6</ele><time>2026-05-04T03:48:03Z</time></trkpt><trkpt lat="-35.6203273894344" lon="144.20703773388743"><ele>95.8</ele><time>2026-05-04T03:48:05Z</time></trkpt><trkpt lat="-35.62041513010895" lon="144.2069764600185"><ele>96.0</ele><time>2026-05-04T03:48:08Z</time></trkpt><trkpt lat="-35.62046380792818" lon="144.20685317295403"><ele>95.4</ele><time>2026-05-04T03:48:10Z</time></trkpt><trkpt lat="-35.62049850049773" lon="144.20673480220637"><ele>94.8</ele><time>2026-05-04T03:48:13Z</time></trkpt><trkpt lat="-35.62051143296784" lon="144.2065804627893"><ele>94.2</ele><time>2026-05-04T03:48:15Z</time></trkpt><trkpt lat="-35.62050050359295" lon="144.20645108924094"><ele>93.60000000000001</ele><time>2026-05-04T03:48:17Z</time></trkpt><trkpt lat="-35.62049645876674" lon="144.2063475708414"><ele>93.0</ele><time>2026-05-04T03:48:20Z</time></trkpt><trkpt lat="-35.62050289525209" lon="144.2062363614341"><ele>93.0</ele><time>2026-05-04T03:48:22Z</time></trkpt><trkpt lat="-35.62046325159507" lon="144.206168852764"><ele>93.0</ele><time>2026-05-04T03:48:24Z</time></trkpt><trkpt lat="-35.620417080965545" lon="144.20625487548236"><ele>93.0</ele><time>2026-05-04T03:48:27Z</time></trkpt><trkpt lat="-35.620444286252024" lon="144.20637885301582"><ele>93.0</ele><time>2026-05-04T03:48:29Z</time></trkpt><trkpt lat="-35.620493545446536" lon="144.20650826354188"><ele>93.0</ele><time>2026-05-04T03:48:31Z</time></trkpt><trkpt lat="-35.62051060829381" lon="144.2066418648371"><ele>93.0</ele><time>2026-05-04T03:48:33Z</time></trkpt><trkpt lat="-35.62049297796153" lon="144.2067958366303"><ele>93.0</ele><time>2026-05-04T03:48:35Z</time></trkpt><trkpt lat="-35.62044475505281" lon="144.20691612705738"><ele>93.0</ele><time>2026-05-04T03:48:36.999Z</time></trkpt><trkpt lat="-35.62038796407213" lon="144.20701707887284"><ele>93.0</ele><time>2026-05-04T03:48:38.999Z</time></trkpt><trkpt lat="-35.6203187229963" lon="144.2070977166554"><ele>93.0</ele><time>2026-05-04T03:48:40.999Z</time></trkpt><trkpt lat="-35.620248548154095" lon="144.2071050854433"><ele>93.5</ele><time>2026-05-04T03:48:44.999Z</time></trkpt><trkpt lat="-35.62018190444995" lon="144.20700653499668"><ele>94.0</ele><time>2026-05-04T03:48:50.999Z</time></trkpt><trkpt lat="-35.62012829766953" lon="144.20696505026856"><ele>94.5</ele><time>2026-05-04T03:48:51.999Z</time></trkpt><trkpt lat="-35.62006426346606" lon="144.20693295547812"><ele>95.0</ele><time>2026-05-04T03:48:52.999Z</time></trkpt><trkpt lat="-35.620010470608676" lon="144.20687583892152"><ele>95.5</ele><time>2026-05-04T03:48:55.999Z</time></trkpt><trkpt lat="-35.620058025029266" lon="144.2067608503733"><ele>96.0</ele><time>2026-05-04T03:48:58.999Z</time></trkpt><trkpt lat="-35.62015021047368" lon="144.20670748462035"><ele>96.0</ele><time>2026-05-04T03:49:00.999Z</time></trkpt><trkpt lat="-35.62018687754835" lon="144.20662225525257"><ele>96.0</ele><time>2026-05-04T03:49:01.999Z</time></trkpt><trkpt lat="-35.620176627029664" lon="144.20650641131016"><ele>96.0</ele><time>2026-05-04T03:49:02.999Z</time></trkpt><trkpt lat="-35.62019422464892" lon="144.2064168163462"><ele>96.0</ele><time>2026-05-04T03:49:03.999Z</time></trkpt><trkpt lat="-35.62023279982031" lon="144.20633709720164"><ele>96.0</ele><time>2026-05-04T03:49:04.999Z</time></trkpt><trkpt lat="-35.620324953344586" lon="144.20626087930415"><ele>96.0</ele><time>2026-05-04T03:49:06.999Z</time></trkpt><trkpt lat="-35.62036146796534" lon="144.20618650948262"><ele>95.0</ele><time>2026-05-04T03:49:08.999Z</time></trkpt><trkpt lat="-35.62036304190044" lon="144.20608338926354"><ele>94.0</ele><time>2026-05-04T03:49:10.999Z</time></trkpt><trkpt lat="-35.62031926484166" lon="144.20600491782238"><ele>93.0</ele><time>2026-05-04T03:49:11.999Z</time></trkpt><trkpt lat="-35.620231997427965" lon="144.20589551194251"><ele>92.0</ele><time>2026-05-04T03:49:13.999Z</time></trkpt><trkpt lat="-35.62018810471669" lon="144.2058379507155"><ele>91.0</ele><time>2026-05-04T03:49:15Z</time></trkpt><trkpt lat="-35.62014300170039" lon="144.20574601998763"><ele>90.0</ele><time>2026-05-04T03:49:16Z</time></trkpt><trkpt lat="-35.62011908732269" lon="144.20564106142922"><ele>89.33333333333333</ele><time>2026-05-04T03:49:17Z</time></trkpt><trkpt lat="-35.62006899442759" lon="144.20557324188044"><ele>88.66666666666667</ele><time>2026-05-04T03:49:18Z</time></trkpt><trkpt lat="-35.6200001074096" lon="144.20554866084674"><ele>88.0</ele><time>2026-05-04T03:49:19Z</time></trkpt><trkpt lat="-35.61991477252046" lon="144.20560443976595"><ele>87.33333333333334</ele><time>2026-05-04T03:49:21Z</time></trkpt><trkpt lat="-35.6198383417518" lon="144.20563243220235"><ele>86.66666666666667</ele><time>2026-05-04T03:49:24Z</time></trkpt><trkpt lat="-35.619749379127235" lon="144.20563043932134"><ele>86.0</ele><time>2026-05-04T03:49:26Z</time></trkpt><trkpt lat="-35.619680223766565" lon="144.20564362647133"><ele>86.66666666666667</ele><time>2026-05-04T03:49:27Z</time></trkpt><trkpt lat="-35.61960849015278" lon="144.20567652459994"><ele>87.33333333333334</ele><time>2026-05-04T03:49:28Z</time></trkpt><trkpt lat="-35.61955577839241" lon="144.2057302606366"><ele>88.0</ele><time>2026-05-04T03:49:29Z</time></trkpt><trkpt lat="-35.61951147595153" lon="144.2058541842928"><ele>88.66666666666667</ele><time>2026-05-04T03:49:31Z</time></trkpt><trkpt lat="-35.619451347149116" lon="144.20592361180988"><ele>89.33333333333333</ele><time>2026-05-04T03:49:33Z</time></trkpt><trkpt lat="-35.61938019772991" lon="144.20598215379155"><ele>90.0</ele><time>2026-05-04T03:49:35Z</time></trkpt><trkpt lat="-35.619323539106354" lon="144.20604417580242"><ele>90.0</ele><time>2026-05-04T03:49:36Z</time></trkpt><trkpt lat="-35.619257818650865" lon="144.20608921869092"><ele>90.0</ele><time>2026-05-04T03:49:37Z</time></trkpt><trkpt lat="-35.619188508432444" lon="144.2061236700515"><ele>90.0</ele><time>2026-05-04T03:49:38Z</time></trkpt><trkpt lat="-35.61910557673916" lon="144.20617014987855"><ele>90.0</ele><time>2026-05-04T03:49:39Z</time></trkpt><trkpt lat="-35.6190433581124" lon="144.2062499244898"><ele>90.0</ele><time>2026-05-04T03:49:40Z</time></trkpt><trkpt lat="-35.61897249495101" lon="144.20635036975352"><ele>90.0</ele><time>2026-05-04T03:49:41Z</time></trkpt><trkpt lat="-35.618876683376435" lon="144.2064266624235"><ele>90.0</ele><time>2026-05-04T03:49:42Z</time></trkpt><trkpt lat="-35.61878636531303" lon="144.20650053939622"><ele>90.0</ele><time>2026-05-04T03:49:43Z</time></trkpt><trkpt lat="-35.618697085989346" lon="144.20658236299795"><ele>90.0</ele><time>2026-05-04T03:49:44Z</time></trkpt><trkpt lat="-35.61861418177604" lon="144.20667246200594"><ele>90.0</ele><time>2026-05-04T03:49:45Z</time></trkpt><trkpt lat="-35.61852708956205" lon="144.20675681764808"><ele>90.0</ele><time>2026-05-04T03:49:46Z</time></trkpt><trkpt lat="-35.618466066876394" lon="144.20683297864957"><ele>90.0</ele><time>2026-05-04T03:49:47Z</time></trkpt><trkpt lat="-35.61842170863835" lon="144.20694368594658"><ele>90.0</ele><time>2026-05-04T03:49:48Z</time></trkpt><trkpt lat="-35.61839211599463" lon="144.20702914062917"><ele>90.0</ele><time>2026-05-04T03:49:49Z</time></trkpt><trkpt lat="-35.61840192250828" lon="144.20711936381423"><ele>90.0</ele><time>2026-05-04T03:49:50Z</time></trkpt><trkpt lat="-35.618427597342865" lon="144.2072383549895"><ele>90.0</ele><time>2026-05-04T03:49:51Z</time></trkpt><trkpt lat="-35.61844821510899" lon="144.20733654142117"><ele>90.0</ele><time>2026-05-04T03:49:52Z</time></trkpt><trkpt lat="-35.61843515279948" lon="144.20742094853568"><ele>90.0</ele><time>2026-05-04T03:49:53Z</time></trkpt><trkpt lat="-35.618401386634936" lon="144.20752162672792"><ele>90.0</ele><time>2026-05-04T03:49:54Z</time></trkpt><trkpt lat="-35.61835629893484" lon="144.20763581230315"><ele>90.0</ele><time>2026-05-04T03:49:55Z</time></trkpt><trkpt lat="-35.618325076107006" lon="144.20774734562636"><ele>90.0</ele><time>2026-05-04T03:49:56Z</time></trkpt><trkpt lat="-35.618298729002284" lon="144.2078663293236"><ele>90.0</ele><time>2026-05-04T03:49:57Z</time></trkpt><trkpt lat="-35.61826962707739" lon="144.2079617727884"><ele>90.0</ele><time>2026-05-04T03:49:58Z</time></trkpt><trkpt lat="-35.61826366614603" lon="144.20809589290516"><ele>90.0</ele><time>2026-05-04T03:50:00Z</time></trkpt><trkpt lat="-35.618348004665776" lon="144.20821889374977"><ele>90.0</ele><time>2026-05-04T03:50:02Z</time></trkpt><trkpt lat="-35.61839525372871" lon="144.20831745131227"><ele>90.0</ele><time>2026-05-04T03:50:03Z</time></trkpt><trkpt lat="-35.61840777988444" lon="144.20841543052686"><ele>90.0</ele><time>2026-05-04T03:50:04Z</time></trkpt><trkpt lat="-35.61839837849111" lon="144.20852895311774"><ele>89.5</ele><time>2026-05-04T03:50:05Z</time></trkpt><trkpt lat="-35.618358171565134" lon="144.20865754576988"><ele>89.0</ele><time>2026-05-04T03:50:06Z</time></trkpt><trkpt lat="-35.61829736427226" lon="144.20878998560914"><ele>88.5</ele><time>2026-05-04T03:50:07Z</time></trkpt><trkpt lat="-35.618224142469685" lon="144.20893941287972"><ele>88.0</ele><time>2026-05-04T03:50:08Z</time></trkpt><trkpt lat="-35.61815830736361" lon="144.20908569298945"><ele>88.0</ele><time>2026-05-04T03:50:09Z</time></trkpt><trkpt lat="-35.61809437361417" lon="144.20919691326517"><ele>88.0</ele><time>2026-05-04T03:50:10Z</time></trkpt><trkpt lat="-35.61806197125064" lon="144.20932051473568"><ele>88.0</ele><time>2026-05-04T03:50:11Z</time></trkpt><trkpt lat="-35.61805437509671" lon="144.20948650879333"><ele>88.0</ele><time>2026-05-04T03:50:12Z</time></trkpt><trkpt lat="-35.61806975792574" lon="144.2096564707289"><ele>88.0</ele><time>2026-05-04T03:50:13Z</time></trkpt><trkpt lat="-35.61807049301599" lon="144.20982438060477"><ele>88.0</ele><time>2026-05-04T03:50:14Z</time></trkpt><trkpt lat="-35.61805240193623" lon="144.20993521086925"><ele>88.0</ele><time>2026-05-04T03:50:15Z</time></trkpt><trkpt lat="-35.61800870325304" lon="144.21003315726085"><ele>88.0</ele><time>2026-05-04T03:50:17Z</time></trkpt><trkpt lat="-35.61805206886178" lon="144.21009643435957"><ele>88.0</ele><time>2026-05-04T03:50:20Z</time></trkpt><trkpt lat="-35.61817352202436" lon="144.21015252748862"><ele>87.75</ele><time>2026-05-04T03:50:22Z</time></trkpt><trkpt lat="-35.618201656925095" lon="144.2102224801082"><ele>87.5</ele><time>2026-05-04T03:50:24Z</time></trkpt><trkpt lat="-35.618306956592335" lon="144.2103583148575"><ele>87.25</ele><time>2026-05-04T03:50:26Z</time></trkpt><trkpt lat="-35.61842287450452" lon="144.2104789406245"><ele>87.0</ele><time>2026-05-04T03:50:27Z</time></trkpt><trkpt lat="-35.61850453856267" lon="144.21060227976773"><ele>87.83333333333333</ele><time>2026-05-04T03:50:28Z</time></trkpt><trkpt lat="-35.618544927820736" lon="144.21068756832543"><ele>88.66666666666667</ele><time>2026-05-04T03:50:29Z</time></trkpt><trkpt lat="-35.618508928332666" lon="144.21079160095402"><ele>89.5</ele><time>2026-05-04T03:50:30Z</time></trkpt><trkpt lat="-35.61848549851128" lon="144.21091838249666"><ele>90.33333333333334</ele><time>2026-05-04T03:50:31Z</time></trkpt><trkpt lat="-35.61846535700128" lon="144.21099595676736"><ele>91.16666666666667</ele><time>2026-05-04T03:50:32Z</time></trkpt><trkpt lat="-35.61842700319485" lon="144.21106931925857"><ele>92.0</ele><time>2026-05-04T03:50:41Z</time></trkpt><trkpt lat="-35.618480151061796" lon="144.2111722669676"><ele>92.0</ele><time>2026-05-04T03:50:48.999Z</time></trkpt><trkpt lat="-35.618565663486315" lon="144.21119317615668"><ele>92.0</ele><time>2026-05-04T03:50:51.999Z</time></trkpt><trkpt lat="-35.61860367130548" lon="144.21130536051996"><ele>92.0</ele><time>2026-05-04T03:50:53.999Z</time></trkpt><trkpt lat="-35.61868980358138" lon="144.21130400014061"><ele>92.0</ele><time>2026-05-04T03:50:55.999Z</time></trkpt><trkpt lat="-35.618752535177066" lon="144.21121178347298"><ele>92.0</ele><time>2026-05-04T03:50:56.999Z</time></trkpt><trkpt lat="-35.61885397559015" lon="144.21117549884696"><ele>92.0</ele><time>2026-05-04T03:50:58.999Z</time></trkpt><trkpt lat="-35.61889245130469" lon="144.21110931554202"><ele>92.0</ele><time>2026-05-04T03:51:02.999Z</time></trkpt><trkpt lat="-35.61881006332922" lon="144.21107623399485"><ele>92.0</ele><time>2026-05-04T03:51:04.999Z</time></trkpt><trkpt lat="-35.61874455433048" lon="144.2110550898433"><ele>92.0</ele><time>2026-05-04T03:51:05.999Z</time></trkpt><trkpt lat="-35.61867703892842" lon="144.21107179158815"><ele>92.0</ele><time>2026-05-04T03:51:12.999Z</time></trkpt><trkpt lat="-35.618638651665286" lon="144.21114018864503"><ele>92.0</ele><time>2026-05-04T03:51:15.999Z</time></trkpt><trkpt lat="-35.618657849106704" lon="144.2112153399031"><ele>92.0</ele><time>2026-05-04T03:51:19.999Z</time></trkpt><trkpt lat="-35.61867207224281" lon="144.2112966024434"><ele>91.83333333333334</ele><time>2026-05-04T03:51:23Z</time></trkpt><trkpt lat="-35.61875853664417" lon="144.21124030805254"><ele>91.66666666666667</ele><time>2026-05-04T03:51:34Z</time></trkpt><trkpt lat="-35.61883645406162" lon="144.21120749372537"><ele>91.5</ele><time>2026-05-04T03:51:36Z</time></trkpt><trkpt lat="-35.618917852583856" lon="144.2112145393125"><ele>91.33333333333333</ele><time>2026-05-04T03:51:39Z</time></trkpt><trkpt lat="-35.61898938510537" lon="144.211262996936"><ele>91.16666666666666</ele><time>2026-05-04T03:51:41Z</time></trkpt><trkpt lat="-35.61905493003792" lon="144.2112964309508"><ele>91.0</ele><time>2026-05-04T03:51:44Z</time></trkpt><trkpt lat="-35.619122670859866" lon="144.2113386486749"><ele>91.0</ele><time>2026-05-04T03:51:46Z</time></trkpt><trkpt lat="-35.61914790407442" lon="144.21144178387783"><ele>91.0</ele><time>2026-05-04T03:51:48Z</time></trkpt><trkpt lat="-35.619165162797145" lon="144.21152637041922"><ele>91.0</ele><time>2026-05-04T03:51:49Z</time></trkpt><trkpt lat="-35.619208732688854" lon="144.21159270169395"><ele>91.0</ele><time>2026-05-04T03:51:50Z</time></trkpt><trkpt lat="-35.61926679039838" lon="144.21163186600862"><ele>91.0</ele><time>2026-05-04T03:51:51Z</time></trkpt><trkpt lat="-35.61921058172382" lon="144.21173918211676"><ele>91.0</ele><time>2026-05-04T03:51:54Z</time></trkpt><trkpt lat="-35.61913672046679" lon="144.21183835722945"><ele>91.0</ele><time>2026-05-04T03:51:56Z</time></trkpt><trkpt lat="-35.61910673881607" lon="144.21191646561647"><ele>91.0</ele><time>2026-05-04T03:51:57Z</time></trkpt><trkpt lat="-35.61906189517764" lon="144.21199221811725"><ele>91.0</ele><time>2026-05-04T03:51:58Z</time></trkpt><trkpt lat="-35.6190343519114" lon="144.21211459303385"><ele>91.0</ele><time>2026-05-04T03:52:00Z</time></trkpt><trkpt lat="-35.61898418258456" lon="144.21226509600694"><ele>91.0</ele><time>2026-05-04T03:52:02Z</time></trkpt><trkpt lat="-35.61895816477256" lon="144.21237132650631"><ele>91.0</ele><time>2026-05-04T03:52:03Z</time></trkpt><trkpt lat="-35.61895359773217" lon="144.2125113270351"><ele>91.0</ele><time>2026-05-04T03:52:04Z</time></trkpt><trkpt lat="-35.618947737057965" lon="144.21264734113302"><ele>91.0</ele><time>2026-05-04T03:52:05Z</time></trkpt><trkpt lat="-35.618909792840704" lon="144.2127937619163"><ele>91.0</ele><time>2026-05-04T03:52:06Z</time></trkpt><trkpt lat="-35.6188818220181" lon="144.2129665457527"><ele>91.0</ele><time>2026-05-04T03:52:07Z</time></trkpt><trkpt lat="-35.61884198827502" lon="144.2131514099246"><ele>91.0</ele><time>2026-05-04T03:52:08Z</time></trkpt><trkpt lat="-35.618816128324106" lon="144.21331768000843"><ele>91.0</ele><time>2026-05-04T03:52:09Z</time></trkpt><trkpt lat="-35.618726789307814" lon="144.21345954302407"><ele>91.0</ele><time>2026-05-04T03:52:10Z</time></trkpt><trkpt lat="-35.61867550075193" lon="144.21351296078234"><ele>90.83333333333333</ele><time>2026-05-04T03:52:11Z</time></trkpt><trkpt lat="-35.61857064059609" lon="144.21354725715548"><ele>90.66666666666666</ele><time>2026-05-04T03:52:13Z</time></trkpt><trkpt lat="-35.618501021361865" lon="144.21355071487417"><ele>90.5</ele><time>2026-05-04T03:52:15Z</time></trkpt><trkpt lat="-35.61844329256396" lon="144.2136622105647"><ele>90.33333333333333</ele><time>2026-05-04T03:52:17Z</time></trkpt><trkpt lat="-35.61843591565568" lon="144.21377447821575"><ele>90.16666666666667</ele><time>2026-05-04T03:52:20Z</time></trkpt><trkpt lat="-35.61844088562599" lon="144.21386024333347"><ele>90.0</ele><time>2026-05-04T03:52:22Z</time></trkpt><trkpt lat="-35.61843131529287" lon="144.21393886074014"><ele>90.0</ele><time>2026-05-04T03:52:24Z</time></trkpt><trkpt lat="-35.61842637576556" lon="144.21401799676417"><ele>90.0</ele><time>2026-05-04T03:52:26Z</time></trkpt><trkpt lat="-35.61845067291764" lon="144.2141127217884"><ele>90.0</ele><time>2026-05-04T03:52:33Z</time></trkpt><trkpt lat="-35.61841944912156" lon="144.21419315991804"><ele>90.0</ele><time>2026-05-04T03:52:37Z</time></trkpt><trkpt lat="-35.61835878318247" lon="144.2142235807171"><ele>90.0</ele><time>2026-05-04T03:52:39Z</time></trkpt><trkpt lat="-35.6182531674747" lon="144.21433008862746"><ele>90.0</ele><time>2026-05-04T03:52:41Z</time></trkpt><trkpt lat="-35.61821607405125" lon="144.21444639934322"><ele>90.0</ele><time>2026-05-04T03:52:42Z</time></trkpt><trkpt lat="-35.61819558998651" lon="144.21458019799738"><ele>90.0</ele><time>2026-05-04T03:52:43Z</time></trkpt><trkpt lat="-35.61818322445503" lon="144.21471921223036"><ele>90.0</ele><time>2026-05-04T03:52:44Z</time></trkpt><trkpt lat="-35.61816412368889" lon="144.21483815185766"><ele>90.0</ele><time>2026-05-04T03:52:45Z</time></trkpt><trkpt lat="-35.618141533169364" lon="144.2149552428572"><ele>90.0</ele><time>2026-05-04T03:52:46Z</time></trkpt><trkpt lat="-35.61820328125124" lon="144.21503260113587"><ele>90.8</ele><time>2026-05-04T03:52:47Z</time></trkpt><trkpt lat="-35.61827180073556" lon="144.2151642992619"><ele>91.6</ele><time>2026-05-04T03:52:48Z</time></trkpt><trkpt lat="-35.61835114238673" lon="144.21527585168118"><ele>92.4</ele><time>2026-05-04T03:52:49Z</time></trkpt><trkpt lat="-35.618426627626846" lon="144.21533320819367"><ele>93.2</ele><time>2026-05-04T03:52:50Z</time></trkpt><trkpt lat="-35.618489020439405" lon="144.21534916260666"><ele>94.0</ele><time>2026-05-04T03:52:51Z</time></trkpt><trkpt lat="-35.61855462712761" lon="144.21533982547825"><ele>94.0</ele><time>2026-05-04T03:52:52Z</time></trkpt><trkpt lat="-35.61864755894321" lon="144.2153189076618"><ele>94.0</ele><time>2026-05-04T03:52:54Z</time></trkpt><trkpt lat="-35.61877675095596" lon="144.21541186095865"><ele>94.0</ele><time>2026-05-04T03:52:56Z</time></trkpt><trkpt lat="-35.61885794131832" lon="144.21548245694532"><ele>94.0</ele><time>2026-05-04T03:52:57Z</time></trkpt><trkpt lat="-35.61889890049526" lon="144.2155554729246"><ele>94.0</ele><time>2026-05-04T03:52:58Z</time></trkpt><trkpt lat="-35.61897186857875" lon="144.21565814579162"><ele>93.75</ele><time>2026-05-04T03:52:59Z</time></trkpt><trkpt lat="-35.619062100766705" lon="144.21577715651947"><ele>93.5</ele><time>2026-05-04T03:53:00Z</time></trkpt><trkpt lat="-35.61914771291797" lon="144.21586646112803"><ele>93.25</ele><time>2026-05-04T03:53:01Z</time></trkpt><trkpt lat="-35.619241185133916" lon="144.21598305252755"><ele>93.0</ele><time>2026-05-04T03:53:02Z</time></trkpt><trkpt lat="-35.61930215545118" lon="144.21608366907893"><ele>93.0</ele><time>2026-05-04T03:53:03Z</time></trkpt><trkpt lat="-35.61933911331015" lon="144.21618980429346"><ele>93.0</ele><time>2026-05-04T03:53:03.999Z</time></trkpt><trkpt lat="-35.61935089191009" lon="144.21631476694415"><ele>93.0</ele><time>2026-05-04T03:53:04.999Z</time></trkpt><trkpt lat="-35.61933861099084" lon="144.2164306764163"><ele>93.0</ele><time>2026-05-04T03:53:05.999Z</time></trkpt><trkpt lat="-35.61930093651794" lon="144.2165153787385"><ele>93.0</ele><time>2026-05-04T03:53:06.999Z</time></trkpt><trkpt lat="-35.619236599827886" lon="144.21657273791376"><ele>93.0</ele><time>2026-05-04T03:53:07.999Z</time></trkpt><trkpt lat="-35.61915455709751" lon="144.21662071940824"><ele>92.4</ele><time>2026-05-04T03:53:08.999Z</time></trkpt><trkpt lat="-35.6190570102395" lon="144.2166402864612"><ele>91.80000000000001</ele><time>2026-05-04T03:53:09.999Z</time></trkpt><trkpt lat="-35.6189845784482" lon="144.21661486826488"><ele>91.2</ele><time>2026-05-04T03:53:10.999Z</time></trkpt><trkpt lat="-35.618889709185844" lon="144.2166010286799"><ele>90.6</ele><time>2026-05-04T03:53:12.999Z</time></trkpt><trkpt lat="-35.61877510266447" lon="144.21662509124468"><ele>90.0</ele><time>2026-05-04T03:53:14.999Z</time></trkpt><trkpt lat="-35.618673525912065" lon="144.2166367569195"><ele>90.4</ele><time>2026-05-04T03:53:15.999Z</time></trkpt><trkpt lat="-35.618569262369526" lon="144.21663491356486"><ele>90.8</ele><time>2026-05-04T03:53:16.999Z</time></trkpt><trkpt lat="-35.61850310243915" lon="144.21661663611297"><ele>91.19999999999999</ele><time>2026-05-04T03:53:17.999Z</time></trkpt><trkpt lat="-35.618454133416805" lon="144.2165613808953"><ele>91.6</ele><time>2026-05-04T03:53:20.999Z</time></trkpt><trkpt lat="-35.618376732742" lon="144.21658419805266"><ele>92.0</ele><time>2026-05-04T03:53:23.999Z</time></trkpt><trkpt lat="-35.61813329644853" lon="144.21658588357965"><ele>92.0</ele><time>2026-05-04T03:53:25.999Z</time></trkpt><trkpt lat="-35.61795067282041" lon="144.2165180178217"><ele>92.0</ele><time>2026-05-04T03:53:27Z</time></trkpt><trkpt lat="-35.61785063402024" lon="144.21651140144084"><ele>92.0</ele><time>2026-05-04T03:53:28Z</time></trkpt><trkpt lat="-35.61775712145598" lon="144.2165390782658"><ele>92.0</ele><time>2026-05-04T03:53:29Z</time></trkpt><trkpt lat="-35.61766856827771" lon="144.21655462249922"><ele>92.19999999999999</ele><time>2026-05-04T03:53:30Z</time></trkpt><trkpt lat="-35.61756558403356" lon="144.2165882119483"><ele>92.4</ele><time>2026-05-04T03:53:31Z</time></trkpt><trkpt lat="-35.61746854773944" lon="144.21661776567112"><ele>92.6</ele><time>2026-05-04T03:53:32Z</time></trkpt><trkpt lat="-35.61736110606426" lon="144.2166075819182"><ele>92.80000000000001</ele><time>2026-05-04T03:53:33Z</time></trkpt><trkpt lat="-35.61728823432339" lon="144.21650842139957"><ele>93.0</ele><time>2026-05-04T03:53:34Z</time></trkpt><trkpt lat="-35.617205109552174" lon="144.21648040154767"><ele>93.0</ele><time>2026-05-04T03:53:35Z</time></trkpt><trkpt lat="-35.617008513154715" lon="144.21636371855587"><ele>93.0</ele><time>2026-05-04T03:53:36Z</time></trkpt><trkpt lat="-35.616885115721566" lon="144.2163301591331"><ele>93.0</ele><time>2026-05-04T03:53:37Z</time></trkpt><trkpt lat="-35.61679828134498" lon="144.21631690740077"><ele>93.0</ele><time>2026-05-04T03:53:38Z</time></trkpt><trkpt lat="-35.61659402870696" lon="144.21628552884167"><ele>92.4</ele><time>2026-05-04T03:53:41Z</time></trkpt><trkpt lat="-35.616517622314824" lon="144.21625430613264"><ele>91.80000000000001</ele><time>2026-05-04T03:53:42Z</time></trkpt><trkpt lat="-35.616448655419475" lon="144.21623137443837"><ele>91.2</ele><time>2026-05-04T03:53:43Z</time></trkpt><trkpt lat="-35.61631514213298" lon="144.2161689099689"><ele>90.6</ele><time>2026-05-04T03:53:45Z</time></trkpt><trkpt lat="-35.616251685135325" lon="144.2161030595489"><ele>90.0</ele><time>2026-05-04T03:53:46Z</time></trkpt><trkpt lat="-35.616188178624114" lon="144.2160493886386"><ele>89.2</ele><time>2026-05-04T03:53:47Z</time></trkpt><trkpt lat="-35.61607605082491" lon="144.2159448577283"><ele>88.4</ele><time>2026-05-04T03:53:49Z</time></trkpt><trkpt lat="-35.616003880481635" lon="144.21589376761688"><ele>87.6</ele><time>2026-05-04T03:53:50Z</time></trkpt><trkpt lat="-35.61593033561305" lon="144.215857840976"><ele>86.8</ele><time>2026-05-04T03:53:51Z</time></trkpt><trkpt lat="-35.61586860336622" lon="144.21577060311665"><ele>86.0</ele><time>2026-05-04T03:53:53Z</time></trkpt><trkpt lat="-35.61588087132734" lon="144.21585430270818"><ele>86.0</ele><time>2026-05-04T03:53:55Z</time></trkpt><trkpt lat="-35.61579160073888" lon="144.2158679878278"><ele>86.0</ele><time>2026-05-04T03:53:56Z</time></trkpt><trkpt lat="-35.6157163958645" lon="144.21585317221025"><ele>86.0</ele><time>2026-05-04T03:53:57Z</time></trkpt><trkpt lat="-35.615672357681326" lon="144.21579304805869"><ele>86.0</ele><time>2026-05-04T03:53:58Z</time></trkpt><trkpt lat="-35.61562345295964" lon="144.21568278946071"><ele>86.0</ele><time>2026-05-04T03:54:01Z</time></trkpt><trkpt lat="-35.61560823978212" lon="144.2156009149369"><ele>86.0</ele><time>2026-05-04T03:54:02Z</time></trkpt><trkpt lat="-35.615610092713986" lon="144.21549171138918"><ele>86.25</ele><time>2026-05-04T03:54:03Z</time></trkpt><trkpt lat="-35.61555481777427" lon="144.21536150545978"><ele>86.5</ele><time>2026-05-04T03:54:04Z</time></trkpt><trkpt lat="-35.61547510819487" lon="144.215209288314"><ele>86.75</ele><time>2026-05-04T03:54:05Z</time></trkpt><trkpt lat="-35.61541487448967" lon="144.21506304981375"><ele>87.0</ele><time>2026-05-04T03:54:06Z</time></trkpt><trkpt lat="-35.61537120424882" lon="144.21495010577755"><ele>86.8</ele><time>2026-05-04T03:54:07Z</time></trkpt><trkpt lat="-35.6153215255051" lon="144.21482005632043"><ele>86.6</ele><time>2026-05-04T03:54:08Z</time></trkpt><trkpt lat="-35.61528822410895" lon="144.21467090592577"><ele>86.39999999999999</ele><time>2026-05-04T03:54:09Z</time></trkpt><trkpt lat="-35.61524386689559" lon="144.21455874591916"><ele>86.19999999999999</ele><time>2026-05-04T03:54:10Z</time></trkpt><trkpt lat="-35.61518789176509" lon="144.21446745765658"><ele>86.0</ele><time>2026-05-04T03:54:11Z</time></trkpt><trkpt lat="-35.61511719467682" lon="144.2143571463203"><ele>86.0</ele><time>2026-05-04T03:54:13Z</time></trkpt><trkpt lat="-35.61511933932248" lon="144.214271106272"><ele>86.0</ele><time>2026-05-04T03:54:15Z</time></trkpt><trkpt lat="-35.61515847059933" lon="144.21420856224668"><ele>86.0</ele><time>2026-05-04T03:54:17Z</time></trkpt><trkpt lat="-35.61525785957183" lon="144.21419841874751"><ele>86.0</ele><time>2026-05-04T03:54:18Z</time></trkpt><trkpt lat="-35.615424544227416" lon="144.21417139706972"><ele>86.0</ele><time>2026-05-04T03:54:19Z</time></trkpt><trkpt lat="-35.61544378919905" lon="144.21408067083698"><ele>86.4</ele><time>2026-05-04T03:54:20Z</time></trkpt><trkpt lat="-35.615438887234966" lon="144.2139880543068"><ele>86.8</ele><time>2026-05-04T03:54:21Z</time></trkpt><trkpt lat="-35.61541444020368" lon="144.21391047376358"><ele>87.2</ele><time>2026-05-04T03:54:22Z</time></trkpt><trkpt lat="-35.615308971959735" lon="144.21384366096436"><ele>87.60000000000001</ele><time>2026-05-04T03:54:23Z</time></trkpt><trkpt lat="-35.61522495218688" lon="144.2137729191251"><ele>88.0</ele><time>2026-05-04T03:54:24Z</time></trkpt><trkpt lat="-35.61512960316171" lon="144.21363913690732"><ele>88.0</ele><time>2026-05-04T03:54:25Z</time></trkpt><trkpt lat="-35.61508999379959" lon="144.21356251255065"><ele>88.0</ele><time>2026-05-04T03:54:26Z</time></trkpt><trkpt lat="-35.61508862506144" lon="144.2134396308587"><ele>88.0</ele><time>2026-05-04T03:54:27Z</time></trkpt><trkpt lat="-35.61507161904899" lon="144.2133125271167"><ele>88.0</ele><time>2026-05-04T03:54:28Z</time></trkpt><trkpt lat="-35.61502999439943" lon="144.213246815618"><ele>88.0</ele><time>2026-05-04T03:54:29Z</time></trkpt><trkpt lat="-35.61498056302549" lon="144.21318200396954"><ele>88.0</ele><time>2026-05-04T03:54:30Z</time></trkpt><trkpt lat="-35.61490268852591" lon="144.2131159885332"><ele>88.33333333333333</ele><time>2026-05-04T03:54:32Z</time></trkpt><trkpt lat="-35.61491563064818" lon="144.21300845380952"><ele>88.66666666666666</ele><time>2026-05-04T03:54:34Z</time></trkpt><trkpt lat="-35.61494201935818" lon="144.21293233398637"><ele>89.0</ele><time>2026-05-04T03:54:35Z</time></trkpt><trkpt lat="-35.6149801409043" lon="144.2128400583407"><ele>89.33333333333333</ele><time>2026-05-04T03:54:36Z</time></trkpt><trkpt lat="-35.614997249533815" lon="144.212727366445"><ele>89.66666666666667</ele><time>2026-05-04T03:54:37Z</time></trkpt><trkpt lat="-35.6150358131228" lon="144.21260339480466"><ele>90.0</ele><time>2026-05-04T03:54:38Z</time></trkpt><trkpt lat="-35.61504489319766" lon="144.21246988241842"><ele>90.0</ele><time>2026-05-04T03:54:39Z</time></trkpt><trkpt lat="-35.61504622128073" lon="144.212349488686"><ele>90.0</ele><time>2026-05-04T03:54:40Z</time></trkpt><trkpt lat="-35.61503564609608" lon="144.2122350511916"><ele>90.0</ele><time>2026-05-04T03:54:41Z</time></trkpt><trkpt lat="-35.61502788298311" lon="144.2121348453427"><ele>90.0</ele><time>2026-05-04T03:54:42Z</time></trkpt><trkpt lat="-35.61503064553807" lon="144.21201655037945"><ele>90.0</ele><time>2026-05-04T03:54:43Z</time></trkpt><trkpt lat="-35.61505358624275" lon="144.2118905033123"><ele>90.5</ele><time>2026-05-04T03:54:44Z</time></trkpt><trkpt lat="-35.61507410454169" lon="144.21175849410295"><ele>91.0</ele><time>2026-05-04T03:54:45Z</time></trkpt><trkpt lat="-35.615085641613724" lon="144.2116381004855"><ele>91.5</ele><time>2026-05-04T03:54:46Z</time></trkpt><trkpt lat="-35.61507963906953" lon="144.21153975793257"><ele>92.0</ele><time>2026-05-04T03:54:47Z</time></trkpt><trkpt lat="-35.615085960341915" lon="144.21145732933675"><ele>92.5</ele><time>2026-05-04T03:54:48Z</time></trkpt><trkpt lat="-35.615072392498504" lon="144.2113586390502"><ele>93.0</ele><time>2026-05-04T03:54:49Z</time></trkpt><trkpt lat="-35.61504354051413" lon="144.21125790075973"><ele>93.0</ele><time>2026-05-04T03:54:50Z</time></trkpt><trkpt lat="-35.615227147572995" lon="144.21114273744234"><ele>93.0</ele><time>2026-05-04T03:54:52Z</time></trkpt><trkpt lat="-35.61530911369756" lon="144.21113065714314"><ele>93.0</ele><time>2026-05-04T03:54:53Z</time></trkpt><trkpt lat="-35.61536541865614" lon="144.21104834009247"><ele>93.0</ele><time>2026-05-04T03:54:54Z</time></trkpt><trkpt lat="-35.61541968507302" lon="144.21098286517127"><ele>92.33333333333333</ele><time>2026-05-04T03:54:55Z</time></trkpt><trkpt lat="-35.615463770428946" lon="144.21091650201535"><ele>91.66666666666667</ele><time>2026-05-04T03:54:56Z</time></trkpt><trkpt lat="-35.61551009244915" lon="144.21084202388005"><ele>91.0</ele><time>2026-05-04T03:54:57Z</time></trkpt><trkpt lat="-35.615521444241125" lon="144.21076281947725"><ele>90.33333333333334</ele><time>2026-05-04T03:54:58Z</time></trkpt><trkpt lat="-35.61553306047893" lon="144.2106828689769"><ele>89.66666666666667</ele><time>2026-05-04T03:54:59Z</time></trkpt><trkpt lat="-35.61542218696102" lon="144.21059898382438"><ele>89.0</ele><time>2026-05-04T03:55:01Z</time></trkpt><trkpt lat="-35.61539057654127" lon="144.21052619091168"><ele>89.2</ele><time>2026-05-04T03:55:02Z</time></trkpt><trkpt lat="-35.61533492470368" lon="144.21041628043804"><ele>89.4</ele><time>2026-05-04T03:55:04Z</time></trkpt><trkpt lat="-35.61531609237305" lon="144.21030384385352"><ele>89.6</ele><time>2026-05-04T03:55:08Z</time></trkpt><trkpt lat="-35.615321579350834" lon="144.2101941319276"><ele>89.8</ele><time>2026-05-04T03:55:10Z</time></trkpt><trkpt lat="-35.61538035480086" lon="144.21007378928692"><ele>90.0</ele><time>2026-05-04T03:55:12Z</time></trkpt><trkpt lat="-35.61541636724838" lon="144.20997731009555"><ele>89.66666666666667</ele><time>2026-05-04T03:55:14Z</time></trkpt><trkpt lat="-35.61543912247676" lon="144.20988149875035"><ele>89.33333333333333</ele><time>2026-05-04T03:55:15Z</time></trkpt><trkpt lat="-35.61540435026138" lon="144.2097855640225"><ele>89.0</ele><time>2026-05-04T03:55:19.999Z</time></trkpt><trkpt lat="-35.61535758007124" lon="144.209728583704"><ele>88.66666666666666</ele><time>2026-05-04T03:55:20.999Z</time></trkpt><trkpt lat="-35.61529621797485" lon="144.20965767787263"><ele>88.33333333333333</ele><time>2026-05-04T03:55:23.999Z</time></trkpt><trkpt lat="-35.615220978753065" lon="144.2096652009024"><ele>88.0</ele><time>2026-05-04T03:55:24.999Z</time></trkpt><trkpt lat="-35.61519794958401" lon="144.20956784015883"><ele>88.0</ele><time>2026-05-04T03:55:26.999Z</time></trkpt><trkpt lat="-35.615125116360815" lon="144.20949873081165"><ele>88.0</ele><time>2026-05-04T03:55:29.999Z</time></trkpt><trkpt lat="-35.61505310257212" lon="144.20951061394695"><ele>88.0</ele><time>2026-05-04T03:55:33Z</time></trkpt><trkpt lat="-35.61502261770477" lon="144.2095818552784"><ele>88.0</ele><time>2026-05-04T03:55:35Z</time></trkpt><trkpt lat="-35.61497312492111" lon="144.2096642455432"><ele>88.0</ele><time>2026-05-04T03:55:37Z</time></trkpt><trkpt lat="-35.61416299750994" lon="144.20968223459354"><ele>87.60000000000001</ele><time>2026-05-04T03:55:40Z</time></trkpt><trkpt lat="-35.61403899975709" lon="144.20976300657208"><ele>87.2</ele><time>2026-05-04T03:55:41Z</time></trkpt><trkpt lat="-35.61396854661569" lon="144.2098369324897"><ele>86.8</ele><time>2026-05-04T03:55:42Z</time></trkpt><trkpt lat="-35.6138965642717" lon="144.2098791766908"><ele>86.4</ele><time>2026-05-04T03:55:43Z</time></trkpt><trkpt lat="-35.613866979757574" lon="144.2099907818318"><ele>86.0</ele><time>2026-05-04T03:55:44Z</time></trkpt><trkpt lat="-35.61378846457627" lon="144.2101068176919"><ele>86.19999999999999</ele><time>2026-05-04T03:55:45Z</time></trkpt><trkpt lat="-35.61370290473919" lon="144.21020465198487"><ele>86.39999999999999</ele><time>2026-05-04T03:55:46Z</time></trkpt><trkpt lat="-35.61368462672896" lon="144.21033003601758"><ele>86.6</ele><time>2026-05-04T03:55:47Z</time></trkpt><trkpt lat="-35.61363435287958" lon="144.21040767506778"><ele>86.8</ele><time>2026-05-04T03:55:48Z</time></trkpt><trkpt lat="-35.61352932011507" lon="144.21046241043987"><ele>87.0</ele><time>2026-05-04T03:55:49Z</time></trkpt><trkpt lat="-35.613418116327736" lon="144.21035573095853"><ele>87.0</ele><time>2026-05-04T03:55:51Z</time></trkpt><trkpt lat="-35.61334649226207" lon="144.21032359638667"><ele>87.0</ele><time>2026-05-04T03:55:53Z</time></trkpt><trkpt lat="-35.61329705936091" lon="144.2103834396951"><ele>87.0</ele><time>2026-05-04T03:55:55Z</time></trkpt><trkpt lat="-35.61328202009544" lon="144.21047424851113"><ele>87.0</ele><time>2026-05-04T03:55:57Z</time></trkpt><trkpt lat="-35.61327317351697" lon="144.21057327323248"><ele>87.0</ele><time>2026-05-04T03:55:58Z</time></trkpt><trkpt lat="-35.61329120968857" lon="144.21081470815"><ele>87.5</ele><time>2026-05-04T03:55:59Z</time></trkpt><trkpt lat="-35.61318368673245" lon="144.21084939227737"><ele>88.0</ele><time>2026-05-04T03:56:01Z</time></trkpt><trkpt lat="-35.61309500499825" lon="144.21081309736618"><ele>88.5</ele><time>2026-05-04T03:56:02Z</time></trkpt><trkpt lat="-35.612909191056055" lon="144.21081372844668"><ele>89.0</ele><time>2026-05-04T03:56:04Z</time></trkpt><trkpt lat="-35.61279734776449" lon="144.2109441204689"><ele>89.0</ele><time>2026-05-04T03:56:06Z</time></trkpt><trkpt lat="-35.6127798360258" lon="144.21106203655032"><ele>89.0</ele><time>2026-05-04T03:56:07Z</time></trkpt><trkpt lat="-35.612748468505856" lon="144.21114128789034"><ele>89.0</ele><time>2026-05-04T03:56:08Z</time></trkpt><trkpt lat="-35.612708466864476" lon="144.21120133399495"><ele>89.0</ele><time>2026-05-04T03:56:09Z</time></trkpt><trkpt lat="-35.612764166956666" lon="144.21131819347497"><ele>89.0</ele><time>2026-05-04T03:56:10Z</time></trkpt><trkpt lat="-35.61268435672007" lon="144.21135650812636"><ele>89.0</ele><time>2026-05-04T03:56:11Z</time></trkpt><trkpt lat="-35.612532033245" lon="144.2113673226956"><ele>89.0</ele><time>2026-05-04T03:56:13Z</time></trkpt><trkpt lat="-35.61242999020402" lon="144.21146269757708"><ele>89.0</ele><time>2026-05-04T03:56:14Z</time></trkpt><trkpt lat="-35.61231162949909" lon="144.21158641527802"><ele>89.0</ele><time>2026-05-04T03:56:15Z</time></trkpt><trkpt lat="-35.61221433037056" lon="144.21168826848833"><ele>89.0</ele><time>2026-05-04T03:56:16Z</time></trkpt><trkpt lat="-35.61213758733935" lon="144.21177401667725"><ele>89.28571428571428</ele><time>2026-05-04T03:56:17Z</time></trkpt><trkpt lat="-35.61208266825921" lon="144.21183589788387"><ele>89.57142857142857</ele><time>2026-05-04T03:56:18Z</time></trkpt><trkpt lat="-35.612053795284055" lon="144.21191836529954"><ele>89.85714285714286</ele><time>2026-05-04T03:56:20Z</time></trkpt><trkpt lat="-35.61201687061052" lon="144.21198610978115"><ele>90.14285714285714</ele><time>2026-05-04T03:56:23Z</time></trkpt><trkpt lat="-35.61195865563422" lon="144.21206212227855"><ele>90.42857142857143</ele><time>2026-05-04T03:56:25Z</time></trkpt><trkpt lat="-35.61190789273979" lon="144.21212059660243"><ele>90.71428571428571</ele><time>2026-05-04T03:56:26Z</time></trkpt><trkpt lat="-35.61185753322608" lon="144.21219824439848"><ele>91.0</ele><time>2026-05-04T03:56:27Z</time></trkpt><trkpt lat="-35.6117100568252" lon="144.21224343829584"><ele>91.0</ele><time>2026-05-04T03:56:29Z</time></trkpt><trkpt lat="-35.61161913522879" lon="144.2122800682766"><ele>91.0</ele><time>2026-05-04T03:56:30Z</time></trkpt><trkpt lat="-35.6115359921986" lon="144.2123338255106"><ele>91.0</ele><time>2026-05-04T03:56:32Z</time></trkpt><trkpt lat="-35.61143692731672" lon="144.21234794506395"><ele>91.0</ele><time>2026-05-04T03:56:35Z</time></trkpt><trkpt lat="-35.61136283194427" lon="144.21238307572295"><ele>91.0</ele><time>2026-05-04T03:56:39Z</time></trkpt><trkpt lat="-35.611222373092374" lon="144.21244734241938"><ele>91.0</ele><time>2026-05-04T03:56:40Z</time></trkpt><trkpt lat="-35.61106087915479" lon="144.21252694995874"><ele>91.0</ele><time>2026-05-04T03:56:41Z</time></trkpt><trkpt lat="-35.61095253949288" lon="144.21244208977103"><ele>91.0</ele><time>2026-05-04T03:56:42Z</time></trkpt><trkpt lat="-35.61085587222615" lon="144.21237893280784"><ele>91.0</ele><time>2026-05-04T03:56:43Z</time></trkpt><trkpt lat="-35.610789049208925" lon="144.21231571777454"><ele>91.0</ele><time>2026-05-04T03:56:44Z</time></trkpt><trkpt lat="-35.610718592995354" lon="144.21225858213467"><ele>91.0</ele><time>2026-05-04T03:56:45Z</time></trkpt><trkpt lat="-35.610630615688244" lon="144.21223325040552"><ele>91.0</ele><time>2026-05-04T03:56:46Z</time></trkpt><trkpt lat="-35.61057253616475" lon="144.21219302225742"><ele>91.0</ele><time>2026-05-04T03:56:48Z</time></trkpt><trkpt lat="-35.61049800112379" lon="144.21205516222577"><ele>91.0</ele><time>2026-05-04T03:56:51Z</time></trkpt><trkpt lat="-35.61045349389649" lon="144.21197913195678"><ele>91.0</ele><time>2026-05-04T03:56:52Z</time></trkpt><trkpt lat="-35.610396401264104" lon="144.21188516398118"><ele>91.0</ele><time>2026-05-04T03:56:53Z</time></trkpt><trkpt lat="-35.61034489820995" lon="144.21182030987165"><ele>91.0</ele><time>2026-05-04T03:56:54Z</time></trkpt><trkpt lat="-35.610292074481926" lon="144.21177544951377"><ele>91.0</ele><time>2026-05-04T03:56:55Z</time></trkpt><trkpt lat="-35.61022176888166" lon="144.21175741057073"><ele>91.0</ele><time>2026-05-04T03:56:56Z</time></trkpt><trkpt lat="-35.61012530726087" lon="144.21184530682126"><ele>91.0</ele><time>2026-05-04T03:56:57Z</time></trkpt><trkpt lat="-35.61003872517586" lon="144.21179785714543"><ele>90.6</ele><time>2026-05-04T03:56:59Z</time></trkpt><trkpt lat="-35.60998183763263" lon="144.21171089709696"><ele>90.19999999999999</ele><time>2026-05-04T03:57:00Z</time></trkpt><trkpt lat="-35.60990927452178" lon="144.21159065386436"><ele>89.80000000000001</ele><time>2026-05-04T03:57:02Z</time></trkpt><trkpt lat="-35.60989687646331" lon="144.2115082460447"><ele>89.4</ele><time>2026-05-04T03:57:03Z</time></trkpt><trkpt lat="-35.60985784099954" lon="144.21139746337641"><ele>89.0</ele><time>2026-05-04T03:57:04Z</time></trkpt><trkpt lat="-35.60982273717192" lon="144.21131113601197"><ele>89.0</ele><time>2026-05-04T03:57:05Z</time></trkpt><trkpt lat="-35.60980363959236" lon="144.2112269811997"><ele>89.0</ele><time>2026-05-04T03:57:06Z</time></trkpt><trkpt lat="-35.60983604586191" lon="144.21113374359618"><ele>89.0</ele><time>2026-05-04T03:57:07Z</time></trkpt><trkpt lat="-35.609835576903606" lon="144.21103839185372"><ele>89.0</ele><time>2026-05-04T03:57:08Z</time></trkpt><trkpt lat="-35.60979068683077" lon="144.21091908936785"><ele>89.0</ele><time>2026-05-04T03:57:10Z</time></trkpt><trkpt lat="-35.60968555894632" lon="144.21084714187123"><ele>89.0</ele><time>2026-05-04T03:57:13Z</time></trkpt><trkpt lat="-35.60962700063764" lon="144.21080348541227"><ele>89.0</ele><time>2026-05-04T03:57:14Z</time></trkpt><trkpt lat="-35.60961447739356" lon="144.21070248618125"><ele>89.0</ele><time>2026-05-04T03:57:18Z</time></trkpt><trkpt lat="-35.60963400319198" lon="144.2106124710278"><ele>89.0</ele><time>2026-05-04T03:57:20Z</time></trkpt><trkpt lat="-35.6096982144465" lon="144.21055646017732"><ele>89.0</ele><time>2026-05-04T03:57:22Z</time></trkpt><trkpt lat="-35.60974315717061" lon="144.21047332304508"><ele>89.0</ele><time>2026-05-04T03:57:24Z</time></trkpt><trkpt lat="-35.60977471546923" lon="144.2104039572888"><ele>90.5</ele><time>2026-05-04T03:57:26Z</time></trkpt><trkpt lat="-35.60980471948546" lon="144.21030797755836"><ele>92.0</ele><time>2026-05-04T03:57:28Z</time></trkpt><trkpt lat="-35.61009073872618" lon="144.209858050105"><ele>92.0</ele><time>2026-05-04T03:57:30Z</time></trkpt><trkpt lat="-35.61012732085583" lon="144.20965427449968"><ele>92.0</ele><time>2026-05-04T03:57:31Z</time></trkpt><trkpt lat="-35.610129171962086" lon="144.2094928110905"><ele>92.0</ele><time>2026-05-04T03:57:32Z</time></trkpt><trkpt lat="-35.61012139273914" lon="144.2092863543585"><ele>92.0</ele><time>2026-05-04T03:57:32.999Z</time></trkpt><trkpt lat="-35.61011258657002" lon="144.2091146081615"><ele>92.0</ele><time>2026-05-04T03:57:33.999Z</time></trkpt><trkpt lat="-35.61009011024391" lon="144.20900135913973"><ele>92.0</ele><time>2026-05-04T03:57:34.999Z</time></trkpt><trkpt lat="-35.610025278943404" lon="144.20890092794255"><ele>92.0</ele><time>2026-05-04T03:57:35.999Z</time></trkpt><trkpt lat="-35.61003158985694" lon="144.20874056558293"><ele>91.6</ele><time>2026-05-04T03:57:37.999Z</time></trkpt><trkpt lat="-35.610006105257845" lon="144.20865936007837"><ele>91.19999999999999</ele><time>2026-05-04T03:57:39Z</time></trkpt><trkpt lat="-35.60990024621052" lon="144.20855283196408"><ele>90.8</ele><time>2026-05-04T03:57:41Z</time></trkpt><trkpt lat="-35.60982365002898" lon="144.20851275447978"><ele>90.4</ele><time>2026-05-04T03:57:42Z</time></trkpt><trkpt lat="-35.60978078224975" lon="144.20844655463287"><ele>90.0</ele><time>2026-05-04T03:57:43Z</time></trkpt><trkpt lat="-35.60982144541257" lon="144.20834145380417"><ele>90.0</ele><time>2026-05-04T03:57:45Z</time></trkpt><trkpt lat="-35.60991879779334" lon="144.20829259765475"><ele>90.0</ele><time>2026-05-04T03:57:49Z</time></trkpt><trkpt lat="-35.6099366734204" lon="144.20817996270446"><ele>90.0</ele><time>2026-05-04T03:57:50Z</time></trkpt><trkpt lat="-35.6098946743814" lon="144.20806340410877"><ele>90.0</ele><time>2026-05-04T03:57:51Z</time></trkpt><trkpt lat="-35.60981891545117" lon="144.207900160193"><ele>90.0</ele><time>2026-05-04T03:57:52Z</time></trkpt><trkpt lat="-35.60972048513527" lon="144.20774235069308"><ele>90.0</ele><time>2026-05-04T03:57:53Z</time></trkpt><trkpt lat="-35.60967441672226" lon="144.20763325979496"><ele>90.0</ele><time>2026-05-04T03:57:54Z</time></trkpt><trkpt lat="-35.60964249342801" lon="144.2075553152006"><ele>90.0</ele><time>2026-05-04T03:57:55Z</time></trkpt><trkpt lat="-35.609605929182855" lon="144.2074609772893"><ele>90.0</ele><time>2026-05-04T03:57:57Z</time></trkpt><trkpt lat="-35.60961040350883" lon="144.20735827364146"><ele>89.8</ele><time>2026-05-04T03:57:59Z</time></trkpt><trkpt lat="-35.60965866541329" lon="144.20723537184776"><ele>89.6</ele><time>2026-05-04T03:58:01Z</time></trkpt><trkpt lat="-35.609597213842584" lon="144.20709362073546"><ele>89.4</ele><time>2026-05-04T03:58:03Z</time></trkpt><trkpt lat="-35.60952430303405" lon="144.2070280703797"><ele>89.2</ele><time>2026-05-04T03:58:04Z</time></trkpt><trkpt lat="-35.60948010720961" lon="144.2069118917197"><ele>89.0</ele><time>2026-05-04T03:58:05Z</time></trkpt><trkpt lat="-35.60946433140705" lon="144.2067833333408"><ele>89.0</ele><time>2026-05-04T03:58:06Z</time></trkpt><trkpt lat="-35.60945330345621" lon="144.20667224036626"><ele>89.0</ele><time>2026-05-04T03:58:07Z</time></trkpt><trkpt lat="-35.60941577822097" lon="144.20659202259918"><ele>89.0</ele><time>2026-05-04T03:58:08Z</time></trkpt><trkpt lat="-35.609355269980156" lon="144.20650905343996"><ele>89.0</ele><time>2026-05-04T03:58:10Z</time></trkpt><trkpt lat="-35.60941465887102" lon="144.2066416883175"><ele>89.0</ele><time>2026-05-04T03:58:55Z</time></trkpt><trkpt lat="-35.609465805145355" lon="144.20670952810858"><ele>89.0</ele><time>2026-05-04T03:58:57Z</time></trkpt><trkpt lat="-35.609451018177786" lon="144.20663333344524"><ele>89.0</ele><time>2026-05-04T03:59:00Z</time></trkpt><trkpt lat="-35.609376228591096" lon="144.20659293884236"><ele>89.0</ele><time>2026-05-04T03:59:02Z</time></trkpt><trkpt lat="-35.60932225814028" lon="144.20653748740452"><ele>89.0</ele><time>2026-05-04T03:59:03Z</time></trkpt><trkpt lat="-35.609235283835254" lon="144.20653800901178"><ele>89.0</ele><time>2026-05-04T03:59:05Z</time></trkpt><trkpt lat="-35.60916933897578" lon="144.20653886776782"><ele>89.0</ele><time>2026-05-04T03:59:06Z</time></trkpt><trkpt lat="-35.609124946977595" lon="144.206440966074"><ele>89.16666666666667</ele><time>2026-05-04T03:59:09Z</time></trkpt><trkpt lat="-35.60907938637024" lon="144.20634581261305"><ele>89.33333333333334</ele><time>2026-05-04T03:59:11Z</time></trkpt><trkpt lat="-35.609094187457266" lon="144.2061792600322"><ele>89.5</ele><time>2026-05-04T03:59:13Z</time></trkpt><trkpt lat="-35.60907773472904" lon="144.20609108072716"><ele>89.66666666666667</ele><time>2026-05-04T03:59:15Z</time></trkpt><trkpt lat="-35.609123444793774" lon="144.20601891490819"><ele>89.83333333333333</ele><time>2026-05-04T03:59:17Z</time></trkpt><trkpt lat="-35.609147910646556" lon="144.20594098578474"><ele>90.0</ele><time>2026-05-04T03:59:19Z</time></trkpt><trkpt lat="-35.60918996505009" lon="144.20584261468397"><ele>90.0</ele><time>2026-05-04T03:59:21Z</time></trkpt><trkpt lat="-35.609250078721416" lon="144.20581624788502"><ele>90.0</ele><time>2026-05-04T03:59:22Z</time></trkpt><trkpt lat="-35.60927758443462" lon="144.205720741623"><ele>90.0</ele><time>2026-05-04T03:59:24Z</time></trkpt><trkpt lat="-35.60927458004635" lon="144.20562869618757"><ele>90.0</ele><time>2026-05-04T03:59:26Z</time></trkpt><trkpt lat="-35.609457548724706" lon="144.20536900984504"><ele>89.83333333333333</ele><time>2026-05-04T03:59:29Z</time></trkpt><trkpt lat="-35.609496284795846" lon="144.20526810153675"><ele>89.66666666666667</ele><time>2026-05-04T03:59:31Z</time></trkpt><trkpt lat="-35.609482558593434" lon="144.20518357969505"><ele>89.5</ele><time>2026-05-04T03:59:33Z</time></trkpt><trkpt lat="-35.60948278601976" lon="144.20508242038764"><ele>89.33333333333334</ele><time>2026-05-04T03:59:35Z</time></trkpt><trkpt lat="-35.60953221325521" lon="144.20499921210725"><ele>89.16666666666667</ele><time>2026-05-04T03:59:37Z</time></trkpt><trkpt lat="-35.60958040616087" lon="144.20488783281445"><ele>89.0</ele><time>2026-05-04T03:59:40Z</time></trkpt><trkpt lat="-35.60967256433938" lon="144.2047892554413"><ele>90.0</ele><time>2026-05-04T03:59:41Z</time></trkpt><trkpt lat="-35.609788028672135" lon="144.2047244308056"><ele>91.0</ele><time>2026-05-04T03:59:42Z</time></trkpt><trkpt lat="-35.60986278628921" lon="144.2046433082334"><ele>92.0</ele><time>2026-05-04T03:59:43Z</time></trkpt><trkpt lat="-35.60985150626435" lon="144.20453426153026"><ele>93.0</ele><time>2026-05-04T03:59:44Z</time></trkpt><trkpt lat="-35.60983431028547" lon="144.20442599888767"><ele>94.0</ele><time>2026-05-04T03:59:45Z</time></trkpt><trkpt lat="-35.609855679933226" lon="144.2043264663208"><ele>94.0</ele><time>2026-05-04T03:59:46Z</time></trkpt><trkpt lat="-35.60996501802084" lon="144.2042150029068"><ele>94.0</ele><time>2026-05-04T03:59:48Z</time></trkpt><trkpt lat="-35.61004751519471" lon="144.20413239935723"><ele>94.0</ele><time>2026-05-04T03:59:49Z</time></trkpt><trkpt lat="-35.610131705365056" lon="144.20404656674486"><ele>94.0</ele><time>2026-05-04T03:59:50Z</time></trkpt><trkpt lat="-35.61017831000254" lon="144.20394840373459"><ele>93.80000000000001</ele><time>2026-05-04T03:59:51Z</time></trkpt><trkpt lat="-35.61017161987088" lon="144.2038173286884"><ele>93.60000000000001</ele><time>2026-05-04T03:59:52Z</time></trkpt><trkpt lat="-35.61017483351976" lon="144.20369371798873"><ele>93.4</ele><time>2026-05-04T03:59:53Z</time></trkpt><trkpt lat="-35.610194959874896" lon="144.20357710157532"><ele>93.2</ele><time>2026-05-04T03:59:54Z</time></trkpt><trkpt lat="-35.61022440631294" lon="144.2034746395829"><ele>93.0</ele><time>2026-05-04T03:59:55Z</time></trkpt><trkpt lat="-35.61030439203208" lon="144.20345758059838"><ele>92.16666666666667</ele><time>2026-05-04T03:59:58Z</time></trkpt><trkpt lat="-35.610373719516915" lon="144.20348502649668"><ele>91.33333333333333</ele><time>2026-05-04T03:59:59Z</time></trkpt><trkpt lat="-35.61044911899945" lon="144.20352109268785"><ele>90.5</ele><time>2026-05-04T04:00:00Z</time></trkpt><trkpt lat="-35.61050929976743" lon="144.20344641875454"><ele>89.66666666666666</ele><time>2026-05-04T04:00:02Z</time></trkpt><trkpt lat="-35.61049241674821" lon="144.20336886948004"><ele>88.83333333333333</ele><time>2026-05-04T04:00:03Z</time></trkpt><trkpt lat="-35.610445677866416" lon="144.20328154160046"><ele>88.0</ele><time>2026-05-04T04:00:08Z</time></trkpt><trkpt lat="-35.610338947298025" lon="144.20323569862788"><ele>88.4</ele><time>2026-05-04T04:00:10Z</time></trkpt><trkpt lat="-35.610212833486855" lon="144.20317270263766"><ele>88.80000000000001</ele><time>2026-05-04T04:00:11Z</time></trkpt><trkpt lat="-35.61010519706847" lon="144.20312374528743"><ele>89.2</ele><time>2026-05-04T04:00:12Z</time></trkpt><trkpt lat="-35.610020721590224" lon="144.20309460535125"><ele>89.6</ele><time>2026-05-04T04:00:13Z</time></trkpt><trkpt lat="-35.60993754938992" lon="144.2030405004609"><ele>90.0</ele><time>2026-05-04T04:00:15Z</time></trkpt><trkpt lat="-35.60990495408341" lon="144.20297387925953"><ele>90.0</ele><time>2026-05-04T04:00:16Z</time></trkpt><trkpt lat="-35.60984874846184" lon="144.2028917121264"><ele>90.0</ele><time>2026-05-04T04:00:17Z</time></trkpt><trkpt lat="-35.60980718603857" lon="144.20282918386096"><ele>90.0</ele><time>2026-05-04T04:00:18Z</time></trkpt><trkpt lat="-35.6097829407078" lon="144.20274397259502"><ele>90.0</ele><time>2026-05-04T04:00:19Z</time></trkpt><trkpt lat="-35.60976104749925" lon="144.2025541396973"><ele>90.0</ele><time>2026-05-04T04:00:20Z</time></trkpt><trkpt lat="-35.60972197189443" lon="144.20239465199907"><ele>89.0</ele><time>2026-05-04T04:00:21Z</time></trkpt><trkpt lat="-35.60965880378496" lon="144.20219122951445"><ele>88.0</ele><time>2026-05-04T04:00:22Z</time></trkpt><trkpt lat="-35.60956953330053" lon="144.20197578950894"><ele>87.0</ele><time>2026-05-04T04:00:23Z</time></trkpt><trkpt lat="-35.60947891985432" lon="144.20178980247422"><ele>87.0</ele><time>2026-05-04T04:00:24Z</time></trkpt><trkpt lat="-35.609369432516985" lon="144.2016500447194"><ele>87.0</ele><time>2026-05-04T04:00:25Z</time></trkpt><trkpt lat="-35.6092610304764" lon="144.20151765004084"><ele>87.0</ele><time>2026-05-04T04:00:26Z</time></trkpt><trkpt lat="-35.60915688958101" lon="144.20139410734393"><ele>86.39999999999999</ele><time>2026-05-04T04:00:27Z</time></trkpt><trkpt lat="-35.60905985661906" lon="144.20131717637477"><ele>85.8</ele><time>2026-05-04T04:00:28Z</time></trkpt><trkpt lat="-35.6089951686336" lon="144.20125182588518"><ele>85.2</ele><time>2026-05-04T04:00:29Z</time></trkpt><trkpt lat="-35.60895698604914" lon="144.2011897905746"><ele>84.6</ele><time>2026-05-04T04:00:30Z</time></trkpt><trkpt lat="-35.60887258292593" lon="144.20110571537018"><ele>84.0</ele><time>2026-05-04T04:00:32Z</time></trkpt><trkpt lat="-35.60875027135896" lon="144.20104515442193"><ele>84.0</ele><time>2026-05-04T04:00:35Z</time></trkpt><trkpt lat="-35.60868618824796" lon="144.20097446562022"><ele>84.0</ele><time>2026-05-04T04:00:36Z</time></trkpt><trkpt lat="-35.60861879365685" lon="144.20093833470855"><ele>84.0</ele><time>2026-05-04T04:00:37Z</time></trkpt><trkpt lat="-35.608547594460894" lon="144.2009371069634"><ele>84.0</ele><time>2026-05-04T04:00:38Z</time></trkpt><trkpt lat="-35.608482790711946" lon="144.20095554947184"><ele>84.0</ele><time>2026-05-04T04:00:39Z</time></trkpt><trkpt lat="-35.60843043580387" lon="144.20101099332894"><ele>84.0</ele><time>2026-05-04T04:00:40Z</time></trkpt><trkpt lat="-35.60839939488175" lon="144.2010844379502"><ele>84.0</ele><time>2026-05-04T04:00:41Z</time></trkpt><trkpt lat="-35.60833201129682" lon="144.20121824696588"><ele>84.2</ele><time>2026-05-04T04:00:43Z</time></trkpt><trkpt lat="-35.608255945397765" lon="144.20129310718295"><ele>84.4</ele><time>2026-05-04T04:00:44Z</time></trkpt><trkpt lat="-35.60816461977692" lon="144.2013666654178"><ele>84.6</ele><time>2026-05-04T04:00:45Z</time></trkpt><trkpt lat="-35.608067258325306" lon="144.20137029541817"><ele>84.8</ele><time>2026-05-04T04:00:46Z</time></trkpt><trkpt lat="-35.60795749876298" lon="144.2013600932781"><ele>85.0</ele><time>2026-05-04T04:00:47Z</time></trkpt><trkpt lat="-35.60784009092481" lon="144.20134849335292"><ele>85.0</ele><time>2026-05-04T04:00:48Z</time></trkpt><trkpt lat="-35.607744828381655" lon="144.20132884102023"><ele>85.0</ele><time>2026-05-04T04:00:49Z</time></trkpt><trkpt lat="-35.607648263753084" lon="144.20132614560703"><ele>85.0</ele><time>2026-05-04T04:00:51Z</time></trkpt><trkpt lat="-35.60760419371567" lon="144.20138153539307"><ele>85.0</ele><time>2026-05-04T04:00:52Z</time></trkpt><trkpt lat="-35.607544625634226" lon="144.20141536968532"><ele>85.0</ele><time>2026-05-04T04:00:54Z</time></trkpt><trkpt lat="-35.607398680331265" lon="144.20133647220834"><ele>85.0</ele><time>2026-05-04T04:00:56Z</time></trkpt><trkpt lat="-35.607275107827334" lon="144.20126743217116"><ele>85.0</ele><time>2026-05-04T04:00:57Z</time></trkpt><trkpt lat="-35.607192783150104" lon="144.20123869148364"><ele>85.0</ele><time>2026-05-04T04:00:58Z</time></trkpt><trkpt lat="-35.60708350294709" lon="144.20118837618423"><ele>85.0</ele><time>2026-05-04T04:01:00Z</time></trkpt><trkpt lat="-35.606976137278565" lon="144.20122011369958"><ele>85.0</ele><time>2026-05-04T04:01:02Z</time></trkpt><trkpt lat="-35.60691040139745" lon="144.2012782849153"><ele>85.0</ele><time>2026-05-04T04:01:03Z</time></trkpt><trkpt lat="-35.60684396870997" lon="144.20141167355095"><ele>85.0</ele><time>2026-05-04T04:01:04Z</time></trkpt><trkpt lat="-35.60674606439755" lon="144.20148953579505"><ele>85.0</ele><time>2026-05-04T04:01:05Z</time></trkpt><trkpt lat="-35.60666081946094" lon="144.20155237746536"><ele>85.0</ele><time>2026-05-04T04:01:06Z</time></trkpt><trkpt lat="-35.60660164932" lon="144.20160701722043"><ele>85.0</ele><time>2026-05-04T04:01:07Z</time></trkpt><trkpt lat="-35.606551672875455" lon="144.2017002463746"><ele>85.4</ele><time>2026-05-04T04:01:09Z</time></trkpt><trkpt lat="-35.60651859280103" lon="144.2017672913727"><ele>85.8</ele><time>2026-05-04T04:01:10Z</time></trkpt><trkpt lat="-35.60648447990192" lon="144.20185708460366"><ele>86.19999999999999</ele><time>2026-05-04T04:01:11Z</time></trkpt><trkpt lat="-35.60643130638294" lon="144.20198078999402"><ele>86.6</ele><time>2026-05-04T04:01:12Z</time></trkpt><trkpt lat="-35.60636210376438" lon="144.2021469018332"><ele>87.0</ele><time>2026-05-04T04:01:13Z</time></trkpt><trkpt lat="-35.606302501399774" lon="144.202302346309"><ele>87.0</ele><time>2026-05-04T04:01:14Z</time></trkpt><trkpt lat="-35.60619759368112" lon="144.20247864407918"><ele>87.0</ele><time>2026-05-04T04:01:15Z</time></trkpt><trkpt lat="-35.60609689044841" lon="144.20265608969007"><ele>87.0</ele><time>2026-05-04T04:01:16Z</time></trkpt><trkpt lat="-35.605994719024046" lon="144.2028507884241"><ele>86.66666666666667</ele><time>2026-05-04T04:01:17Z</time></trkpt><trkpt lat="-35.60588753594481" lon="144.20304615192512"><ele>86.33333333333334</ele><time>2026-05-04T04:01:18Z</time></trkpt><trkpt lat="-35.60580667897803" lon="144.20320502067105"><ele>86.0</ele><time>2026-05-04T04:01:19Z</time></trkpt><trkpt lat="-35.60574244341921" lon="144.20335332645737"><ele>86.4</ele><time>2026-05-04T04:01:20Z</time></trkpt><trkpt lat="-35.60569012182133" lon="144.20344807486555"><ele>86.8</ele><time>2026-05-04T04:01:21Z</time></trkpt><trkpt lat="-35.60563111352832" lon="144.20353735789226"><ele>87.2</ele><time>2026-05-04T04:01:22Z</time></trkpt><trkpt lat="-35.605531263082234" lon="144.20358466097417"><ele>87.60000000000001</ele><time>2026-05-04T04:01:23Z</time></trkpt><trkpt lat="-35.60541884173092" lon="144.2036268994324"><ele>88.0</ele><time>2026-05-04T04:01:24Z</time></trkpt><trkpt lat="-35.60532359043097" lon="144.20368295186023"><ele>88.0</ele><time>2026-05-04T04:01:25Z</time></trkpt><trkpt lat="-35.605249805636205" lon="144.20376910740922"><ele>88.0</ele><time>2026-05-04T04:01:26Z</time></trkpt><trkpt lat="-35.605203586662945" lon="144.20391892518577"><ele>88.0</ele><time>2026-05-04T04:01:27Z</time></trkpt><trkpt lat="-35.60513773606667" lon="144.20402618082983"><ele>88.0</ele><time>2026-05-04T04:01:28Z</time></trkpt><trkpt lat="-35.60501883976527" lon="144.20408570380746"><ele>88.0</ele><time>2026-05-04T04:01:29Z</time></trkpt><trkpt lat="-35.604876716378826" lon="144.20413803610444"><ele>88.0</ele><time>2026-05-04T04:01:30Z</time></trkpt><trkpt lat="-35.604743350155715" lon="144.20421565784056"><ele>88.0</ele><time>2026-05-04T04:01:31Z</time></trkpt><trkpt lat="-35.60464694421489" lon="144.20427224370425"><ele>88.0</ele><time>2026-05-04T04:01:32Z</time></trkpt><trkpt lat="-35.60453707126546" lon="144.20430367715323"><ele>88.0</ele><time>2026-05-04T04:01:33Z</time></trkpt><trkpt lat="-35.60440618840882" lon="144.20431201591674"><ele>88.0</ele><time>2026-05-04T04:01:34Z</time></trkpt><trkpt lat="-35.604280166147305" lon="144.20430270798988"><ele>88.0</ele><time>2026-05-04T04:01:35Z</time></trkpt><trkpt lat="-35.60415353038924" lon="144.20429629984798"><ele>88.0</ele><time>2026-05-04T04:01:36Z</time></trkpt><trkpt lat="-35.60405051597777" lon="144.20430322364535"><ele>88.0</ele><time>2026-05-04T04:01:37Z</time></trkpt><trkpt lat="-35.60396009998888" lon="144.20434132876446"><ele>88.0</ele><time>2026-05-04T04:01:38Z</time></trkpt><trkpt lat="-35.60389711976532" lon="144.20435559010016"><ele>88.0</ele><time>2026-05-04T04:01:39Z</time></trkpt><trkpt lat="-35.60380027531377" lon="144.20433751557164"><ele>88.0</ele><time>2026-05-04T04:01:40Z</time></trkpt><trkpt lat="-35.60368446309645" lon="144.20434092066031"><ele>88.0</ele><time>2026-05-04T04:01:41Z</time></trkpt><trkpt lat="-35.60355963231521" lon="144.20440899965433"><ele>87.80000000000001</ele><time>2026-05-04T04:01:42Z</time></trkpt><trkpt lat="-35.603440531884786" lon="144.20449185683742"><ele>87.6</ele><time>2026-05-04T04:01:43Z</time></trkpt><trkpt lat="-35.60333464186365" lon="144.20456577673085"><ele>87.4</ele><time>2026-05-04T04:01:44Z</time></trkpt><trkpt lat="-35.60325154472454" lon="144.20462164914915"><ele>87.19999999999999</ele><time>2026-05-04T04:01:45Z</time></trkpt><trkpt lat="-35.60318352115858" lon="144.20463412171114"><ele>87.0</ele><time>2026-05-04T04:01:46Z</time></trkpt><trkpt lat="-35.60308646369515" lon="144.20453617114285"><ele>87.0</ele><time>2026-05-04T04:01:48Z</time></trkpt><trkpt lat="-35.603001535134204" lon="144.20453046754568"><ele>87.0</ele><time>2026-05-04T04:01:54Z</time></trkpt><trkpt lat="-35.60293968960438" lon="144.20454965262314"><ele>87.0</ele><time>2026-05-04T04:01:55Z</time></trkpt><trkpt lat="-35.602885137058244" lon="144.20460666175867"><ele>87.0</ele><time>2026-05-04T04:01:57Z</time></trkpt><trkpt lat="-35.60282017748508" lon="144.2046884243322"><ele>87.0</ele><time>2026-05-04T04:01:59Z</time></trkpt><trkpt lat="-35.60278860736804" lon="144.20479679400728"><ele>87.0</ele><time>2026-05-04T04:02:01Z</time></trkpt><trkpt lat="-35.6027615172688" lon="144.20488841538779"><ele>87.33333333333333</ele><time>2026-05-04T04:02:03Z</time></trkpt><trkpt lat="-35.60280931096225" lon="144.20497263986994"><ele>87.66666666666667</ele><time>2026-05-04T04:02:06Z</time></trkpt><trkpt lat="-35.6028704461705" lon="144.2050443964974"><ele>88.0</ele><time>2026-05-04T04:02:08Z</time></trkpt><trkpt lat="-35.602907727730724" lon="144.20511277815427"><ele>88.33333333333334</ele><time>2026-05-04T04:02:09Z</time></trkpt><trkpt lat="-35.60291876966258" lon="144.2052012378196"><ele>88.66666666666667</ele><time>2026-05-04T04:02:10Z</time></trkpt><trkpt lat="-35.602856417022714" lon="144.2053489146233"><ele>89.0</ele><time>2026-05-04T04:02:12Z</time></trkpt><trkpt lat="-35.60284611171532" lon="144.20547138135518"><ele>89.0</ele><time>2026-05-04T04:02:13Z</time></trkpt><trkpt lat="-35.602834569189426" lon="144.20556449986134"><ele>89.0</ele><time>2026-05-04T04:02:14Z</time></trkpt><trkpt lat="-35.60284742904302" lon="144.20564804057432"><ele>89.0</ele><time>2026-05-04T04:02:15Z</time></trkpt><trkpt lat="-35.602901949432464" lon="144.20572685137418"><ele>89.0</ele><time>2026-05-04T04:02:16Z</time></trkpt><trkpt lat="-35.60293657468189" lon="144.20580144190708"><ele>89.0</ele><time>2026-05-04T04:02:17Z</time></trkpt><trkpt lat="-35.60291996501733" lon="144.20590442011786"><ele>89.0</ele><time>2026-05-04T04:02:18Z</time></trkpt><trkpt lat="-35.60288217831916" lon="144.20600724296548"><ele>88.80000000000001</ele><time>2026-05-04T04:02:19Z</time></trkpt><trkpt lat="-35.60284036869158" lon="144.20608723248083"><ele>88.60000000000001</ele><time>2026-05-04T04:02:20Z</time></trkpt><trkpt lat="-35.60278649627498" lon="144.2061689068489"><ele>88.4</ele><time>2026-05-04T04:02:22Z</time></trkpt><trkpt lat="-35.60288864602949" lon="144.20613598093223"><ele>88.2</ele><time>2026-05-04T04:02:28Z</time></trkpt><trkpt lat="-35.60299034892323" lon="144.2062446797"><ele>88.0</ele><time>2026-05-04T04:02:30Z</time></trkpt><trkpt lat="-35.60298655207853" lon="144.20633048316517"><ele>87.5</ele><time>2026-05-04T04:02:32Z</time></trkpt><trkpt lat="-35.602802891305345" lon="144.20671840053228"><ele>87.0</ele><time>2026-05-04T04:02:34Z</time></trkpt><trkpt lat="-35.60268800073183" lon="144.20682765366584"><ele>87.0</ele><time>2026-05-04T04:02:35Z</time></trkpt><trkpt lat="-35.60260764419525" lon="144.20689481624566"><ele>87.0</ele><time>2026-05-04T04:02:36Z</time></trkpt><trkpt lat="-35.602518491224835" lon="144.20694173861546"><ele>87.0</ele><time>2026-05-04T04:02:38Z</time></trkpt><trkpt lat="-35.60248682058789" lon="144.2068484898293"><ele>87.0</ele><time>2026-05-04T04:02:41Z</time></trkpt><trkpt lat="-35.60243912419834" lon="144.20673970684692"><ele>87.0</ele><time>2026-05-04T04:02:42Z</time></trkpt><trkpt lat="-35.60237918205845" lon="144.20651451565718"><ele>87.19999999999999</ele><time>2026-05-04T04:02:43Z</time></trkpt><trkpt lat="-35.602274740896654" lon="144.20641768296468"><ele>87.4</ele><time>2026-05-04T04:02:44Z</time></trkpt><trkpt lat="-35.60216268232111" lon="144.20633277249198"><ele>87.6</ele><time>2026-05-04T04:02:45Z</time></trkpt><trkpt lat="-35.602091161827815" lon="144.2062874506802"><ele>87.80000000000001</ele><time>2026-05-04T04:02:46Z</time></trkpt><trkpt lat="-35.60202864814478" lon="144.2063687879934"><ele>88.0</ele><time>2026-05-04T04:02:53Z</time></trkpt><trkpt lat="-35.6019966444552" lon="144.20628563224903"><ele>88.0</ele><time>2026-05-04T04:02:59Z</time></trkpt><trkpt lat="-35.60204749854636" lon="144.20613862229104"><ele>88.0</ele><time>2026-05-04T04:03:10Z</time></trkpt><trkpt lat="-35.60202394388168" lon="144.2060636957741"><ele>88.0</ele><time>2026-05-04T04:03:12Z</time></trkpt><trkpt lat="-35.60198294353807" lon="144.20597948774923"><ele>88.0</ele><time>2026-05-04T04:03:14Z</time></trkpt><trkpt lat="-35.601918779106114" lon="144.20594567106397"><ele>88.0</ele><time>2026-05-04T04:03:16Z</time></trkpt><trkpt lat="-35.601837693574176" lon="144.20593962753998"><ele>88.0</ele><time>2026-05-04T04:03:19Z</time></trkpt><trkpt lat="-35.60182461168397" lon="144.20582184239444"><ele>88.0</ele><time>2026-05-04T04:03:21Z</time></trkpt><trkpt lat="-35.60184093351548" lon="144.20550366709722"><ele>88.0</ele><time>2026-05-04T04:03:22Z</time></trkpt><trkpt lat="-35.60180174020709" lon="144.20531130170448"><ele>88.0</ele><time>2026-05-04T04:03:23Z</time></trkpt><trkpt lat="-35.60175413259004" lon="144.20514504288465"><ele>88.0</ele><time>2026-05-04T04:03:24Z</time></trkpt><trkpt lat="-35.60166175420209" lon="144.20506687888343"><ele>88.0</ele><time>2026-05-04T04:03:25Z</time></trkpt><trkpt lat="-35.60133805900205" lon="144.2050399751551"><ele>88.0</ele><time>2026-05-04T04:03:28Z</time></trkpt><trkpt lat="-35.60125119088918" lon="144.20499820808553"><ele>87.66666666666666</ele><time>2026-05-04T04:03:31Z</time></trkpt><trkpt lat="-35.60124903573189" lon="144.20476826325745"><ele>87.33333333333333</ele><time>2026-05-04T04:03:35Z</time></trkpt><trkpt lat="-35.6012160539034" lon="144.20456454490423"><ele>87.0</ele><time>2026-05-04T04:03:36Z</time></trkpt><trkpt lat="-35.60120890022617" lon="144.20439613446612"><ele>87.0</ele><time>2026-05-04T04:03:37Z</time></trkpt><trkpt lat="-35.601192185989056" lon="144.20427413107186"><ele>87.0</ele><time>2026-05-04T04:03:38Z</time></trkpt><trkpt lat="-35.601045211936025" lon="144.20422833206942"><ele>87.0</ele><time>2026-05-04T04:03:40Z</time></trkpt><trkpt lat="-35.60092319845467" lon="144.20423491609952"><ele>87.0</ele><time>2026-05-04T04:03:41Z</time></trkpt><trkpt lat="-35.60082452096253" lon="144.20424915161414"><ele>86.75</ele><time>2026-05-04T04:03:42Z</time></trkpt><trkpt lat="-35.600763246181195" lon="144.2041388901282"><ele>86.5</ele><time>2026-05-04T04:03:44Z</time></trkpt><trkpt lat="-35.60076343411636" lon="144.20405101322407"><ele>86.25</ele><time>2026-05-04T04:03:45Z</time></trkpt><trkpt lat="-35.60079109243072" lon="144.2038715082571"><ele>86.0</ele><time>2026-05-04T04:03:46Z</time></trkpt><trkpt lat="-35.600817230991126" lon="144.20371421039115"><ele>86.8</ele><time>2026-05-04T04:03:47Z</time></trkpt><trkpt lat="-35.60076248711926" lon="144.20364368908068"><ele>87.6</ele><time>2026-05-04T04:03:48Z</time></trkpt><trkpt lat="-35.60063521635622" lon="144.2035736922674"><ele>88.4</ele><time>2026-05-04T04:03:49Z</time></trkpt><trkpt lat="-35.600506345928764" lon="144.20351282786748"><ele>89.2</ele><time>2026-05-04T04:03:50Z</time></trkpt><trkpt lat="-35.60043497896283" lon="144.20344141143"><ele>90.0</ele><time>2026-05-04T04:03:51Z</time></trkpt><trkpt lat="-35.6004363093488" lon="144.20325169339952"><ele>89.6</ele><time>2026-05-04T04:03:53Z</time></trkpt><trkpt lat="-35.60042186711569" lon="144.20310852205364"><ele>89.2</ele><time>2026-05-04T04:03:54Z</time></trkpt><trkpt lat="-35.60036851497712" lon="144.20298790153993"><ele>88.80000000000001</ele><time>2026-05-04T04:03:55Z</time></trkpt><trkpt lat="-35.60032867062904" lon="144.20289885777385"><ele>88.4</ele><time>2026-05-04T04:03:56Z</time></trkpt><trkpt lat="-35.600277524053595" lon="144.20282892852128"><ele>88.0</ele><time>2026-05-04T04:03:57Z</time></trkpt><trkpt lat="-35.600250191330915" lon="144.20275135192458"><ele>88.0</ele><time>2026-05-04T04:03:58Z</time></trkpt><trkpt lat="-35.60023417836547" lon="144.20265663177105"><ele>88.0</ele><time>2026-05-04T04:03:59Z</time></trkpt><trkpt lat="-35.60020052119582" lon="144.2025309836208"><ele>88.0</ele><time>2026-05-04T04:04:00Z</time></trkpt><trkpt lat="-35.60014048343687" lon="144.20240165602567"><ele>88.0</ele><time>2026-05-04T04:04:01Z</time></trkpt><trkpt lat="-35.60004105835477" lon="144.20233923038487"><ele>88.0</ele><time>2026-05-04T04:04:02Z</time></trkpt><trkpt lat="-35.59990788675174" lon="144.20232175521397"><ele>88.0</ele><time>2026-05-04T04:04:03Z</time></trkpt><trkpt lat="-35.59978883798026" lon="144.20237632878892"><ele>88.0</ele><time>2026-05-04T04:04:04Z</time></trkpt><trkpt lat="-35.59969410397924" lon="144.20243046069444"><ele>88.0</ele><time>2026-05-04T04:04:05Z</time></trkpt><trkpt lat="-35.59959838246102" lon="144.20245443630205"><ele>88.0</ele><time>2026-05-04T04:04:06Z</time></trkpt><trkpt lat="-35.5994789784672" lon="144.2024674766894"><ele>88.0</ele><time>2026-05-04T04:04:07Z</time></trkpt><trkpt lat="-35.59934396184531" lon="144.20243030767188"><ele>88.5</ele><time>2026-05-04T04:04:08Z</time></trkpt><trkpt lat="-35.59925131517431" lon="144.20243455385457"><ele>89.0</ele><time>2026-05-04T04:04:09Z</time></trkpt><trkpt lat="-35.599170948364346" lon="144.20253338775873"><ele>89.5</ele><time>2026-05-04T04:04:10Z</time></trkpt><trkpt lat="-35.59906481830245" lon="144.20267612465582"><ele>90.0</ele><time>2026-05-04T04:04:11Z</time></trkpt><trkpt lat="-35.59893520673623" lon="144.20279031402853"><ele>90.0</ele><time>2026-05-04T04:04:12Z</time></trkpt><trkpt lat="-35.5987964532257" lon="144.2028704419628"><ele>90.0</ele><time>2026-05-04T04:04:13Z</time></trkpt><trkpt lat="-35.598700696133506" lon="144.20290465475912"><ele>90.0</ele><time>2026-05-04T04:04:14Z</time></trkpt><trkpt lat="-35.59861906669705" lon="144.20291446825092"><ele>90.0</ele><time>2026-05-04T04:04:16Z</time></trkpt><trkpt lat="-35.59859440082755" lon="144.20300719790126"><ele>90.0</ele><time>2026-05-04T04:04:17Z</time></trkpt><trkpt lat="-35.59856947624233" lon="144.20310806223011"><ele>90.5</ele><time>2026-05-04T04:04:18Z</time></trkpt><trkpt lat="-35.59845177967487" lon="144.2031120524534"><ele>91.0</ele><time>2026-05-04T04:04:20Z</time></trkpt><trkpt lat="-35.59833997182304" lon="144.20306854831742"><ele>91.5</ele><time>2026-05-04T04:04:21Z</time></trkpt><trkpt lat="-35.598221132797555" lon="144.20300557396294"><ele>92.0</ele><time>2026-05-04T04:04:22Z</time></trkpt><trkpt lat="-35.598120903753156" lon="144.20297851356958"><ele>92.0</ele><time>2026-05-04T04:04:23Z</time></trkpt><trkpt lat="-35.59804183340511" lon="144.20305287256167"><ele>92.0</ele><time>2026-05-04T04:04:24Z</time></trkpt><trkpt lat="-35.597969674005874" lon="144.20314033308338"><ele>92.0</ele><time>2026-05-04T04:04:25Z</time></trkpt><trkpt lat="-35.59784633864158" lon="144.2031176549143"><ele>92.0</ele><time>2026-05-04T04:04:27Z</time></trkpt><trkpt lat="-35.59778435912058" lon="144.20307533270037"><ele>92.0</ele><time>2026-05-04T04:04:28Z</time></trkpt><trkpt lat="-35.59773190726906" lon="144.2031425253866"><ele>91.5</ele><time>2026-05-04T04:04:36Z</time></trkpt><trkpt lat="-35.59770067137643" lon="144.2032406054699"><ele>91.0</ele><time>2026-05-04T04:04:38Z</time></trkpt><trkpt lat="-35.597680777433155" lon="144.203328377089"><ele>90.5</ele><time>2026-05-04T04:04:39Z</time></trkpt><trkpt lat="-35.5976331262111" lon="144.20349996155466"><ele>90.0</ele><time>2026-05-04T04:04:40Z</time></trkpt><trkpt lat="-35.59759921526693" lon="144.20367732062942"><ele>90.0</ele><time>2026-05-04T04:04:41Z</time></trkpt><trkpt lat="-35.59759470524109" lon="144.2037558308893"><ele>90.0</ele><time>2026-05-04T04:04:43Z</time></trkpt><trkpt lat="-35.597539051498444" lon="144.2038533605657"><ele>90.0</ele><time>2026-05-04T04:04:45Z</time></trkpt><trkpt lat="-35.59748248819056" lon="144.20395944077472"><ele>90.0</ele><time>2026-05-04T04:04:47Z</time></trkpt><trkpt lat="-35.59742918703314" lon="144.20400904726972"><ele>90.0</ele><time>2026-05-04T04:04:48Z</time></trkpt><trkpt lat="-35.59736441718231" lon="144.20407681273096"><ele>90.0</ele><time>2026-05-04T04:04:49Z</time></trkpt><trkpt lat="-35.59726767309109" lon="144.20414408709368"><ele>89.66666666666667</ele><time>2026-05-04T04:04:50Z</time></trkpt><trkpt lat="-35.59720534231025" lon="144.20418156353068"><ele>89.33333333333333</ele><time>2026-05-04T04:04:51Z</time></trkpt><trkpt lat="-35.59711841280874" lon="144.20419092151963"><ele>89.0</ele><time>2026-05-04T04:04:52Z</time></trkpt><trkpt lat="-35.59704648663354" lon="144.20418879749113"><ele>88.66666666666666</ele><time>2026-05-04T04:04:53Z</time></trkpt><trkpt lat="-35.596977543090944" lon="144.20421864493548"><ele>88.33333333333333</ele><time>2026-05-04T04:04:54Z</time></trkpt><trkpt lat="-35.59691792334506" lon="144.20428126927865"><ele>88.0</ele><time>2026-05-04T04:04:55Z</time></trkpt><trkpt lat="-35.59682747140421" lon="144.20430082182224"><ele>88.0</ele><time>2026-05-04T04:04:57Z</time></trkpt><trkpt lat="-35.5967270249451" lon="144.2042057406814"><ele>88.0</ele><time>2026-05-04T04:04:59Z</time></trkpt><trkpt lat="-35.596695042099306" lon="144.2041366237033"><ele>88.0</ele><time>2026-05-04T04:05:00Z</time></trkpt><trkpt lat="-35.59670207665259" lon="144.20402976473596"><ele>88.0</ele><time>2026-05-04T04:05:02Z</time></trkpt><trkpt lat="-35.59669573587154" lon="144.20392864309662"><ele>88.0</ele><time>2026-05-04T04:05:04Z</time></trkpt><trkpt lat="-35.59670540681712" lon="144.20381318130924"><ele>88.0</ele><time>2026-05-04T04:05:06Z</time></trkpt><trkpt lat="-35.59669936283771" lon="144.2039422965883"><ele>88.0</ele><time>2026-05-04T04:05:11Z</time></trkpt><trkpt lat="-35.59669746149384" lon="144.20404789235985"><ele>88.0</ele><time>2026-05-04T04:05:14Z</time></trkpt><trkpt lat="-35.59675471359465" lon="144.20413067952117"><ele>88.0</ele><time>2026-05-04T04:05:17Z</time></trkpt><trkpt lat="-35.596830808409834" lon="144.20412728727052"><ele>88.0</ele><time>2026-05-04T04:05:21Z</time></trkpt><trkpt lat="-35.59690071370198" lon="144.20413414979416"><ele>88.0</ele><time>2026-05-04T04:05:22Z</time></trkpt><trkpt lat="-35.59692881354612" lon="144.20420537374605"><ele>88.0</ele><time>2026-05-04T04:05:24Z</time></trkpt><trkpt lat="-35.59686964680282" lon="144.2042660552568"><ele>88.0</ele><time>2026-05-04T04:05:27Z</time></trkpt><trkpt lat="-35.59679483094579" lon="144.20424750813334"><ele>88.0</ele><time>2026-05-04T04:05:30Z</time></trkpt><trkpt lat="-35.59674865694842" lon="144.20413159955098"><ele>88.0</ele><time>2026-05-04T04:05:33Z</time></trkpt><trkpt lat="-35.59670260663813" lon="144.20406796721397"><ele>88.0</ele><time>2026-05-04T04:05:35Z</time></trkpt><trkpt lat="-35.59671591859757" lon="144.20397398750143"><ele>88.0</ele><time>2026-05-04T04:05:37Z</time></trkpt><trkpt lat="-35.59680018815134" lon="144.2039163092712"><ele>88.2</ele><time>2026-05-04T04:05:38Z</time></trkpt><trkpt lat="-35.59676098118154" lon="144.2038167381117"><ele>88.4</ele><time>2026-05-04T04:05:41Z</time></trkpt><trkpt lat="-35.59682937106013" lon="144.2036564761499"><ele>88.60000000000001</ele><time>2026-05-04T04:05:42Z</time></trkpt><trkpt lat="-35.59674376403369" lon="144.2036135805174"><ele>88.80000000000001</ele><time>2026-05-04T04:05:43Z</time></trkpt><trkpt lat="-35.596637781587376" lon="144.20357449792957"><ele>89.0</ele><time>2026-05-04T04:05:44Z</time></trkpt><trkpt lat="-35.596563337963" lon="144.2035720619624"><ele>89.0</ele><time>2026-05-04T04:05:45Z</time></trkpt><trkpt lat="-35.59646040926382" lon="144.20353779528855"><ele>89.0</ele><time>2026-05-04T04:05:47Z</time></trkpt><trkpt lat="-35.59640414232352" lon="144.20347001617748"><ele>89.0</ele><time>2026-05-04T04:05:48Z</time></trkpt><trkpt lat="-35.59633915449334" lon="144.20333305419504"><ele>89.0</ele><time>2026-05-04T04:05:49Z</time></trkpt><trkpt lat="-35.59630740325288" lon="144.20322689914107"><ele>89.0</ele><time>2026-05-04T04:05:50Z</time></trkpt><trkpt lat="-35.596288728922694" lon="144.20314462286996"><ele>89.4</ele><time>2026-05-04T04:05:51Z</time></trkpt><trkpt lat="-35.5962685140944" lon="144.20297278643258"><ele>89.80000000000001</ele><time>2026-05-04T04:05:53Z</time></trkpt><trkpt lat="-35.596257793918845" lon="144.20280965341607"><ele>90.19999999999999</ele><time>2026-05-04T04:05:54Z</time></trkpt><trkpt lat="-35.596244257147944" lon="144.20271602759806"><ele>90.6</ele><time>2026-05-04T04:05:55Z</time></trkpt><trkpt lat="-35.59620909100785" lon="144.20261920134456"><ele>91.0</ele><time>2026-05-04T04:05:57Z</time></trkpt><trkpt lat="-35.59613639800431" lon="144.2025740585692"><ele>91.0</ele><time>2026-05-04T04:05:58Z</time></trkpt><trkpt lat="-35.59610917119972" lon="144.20250280611037"><ele>91.0</ele><time>2026-05-04T04:05:59Z</time></trkpt><trkpt lat="-35.596162831998356" lon="144.2024311842378"><ele>91.0</ele><time>2026-05-04T04:06:00Z</time></trkpt><trkpt lat="-35.59618612163303" lon="144.20235515732654"><ele>91.0</ele><time>2026-05-04T04:06:02Z</time></trkpt><trkpt lat="-35.596268364661775" lon="144.2023486494592"><ele>91.0</ele><time>2026-05-04T04:06:03Z</time></trkpt><trkpt lat="-35.59635198742969" lon="144.2022971736095"><ele>91.0</ele><time>2026-05-04T04:06:04Z</time></trkpt><trkpt lat="-35.59646433155213" lon="144.2021783888725"><ele>90.8</ele><time>2026-05-04T04:06:05Z</time></trkpt><trkpt lat="-35.596512768008374" lon="144.2020903593337"><ele>90.6</ele><time>2026-05-04T04:06:06Z</time></trkpt><trkpt lat="-35.596633028248114" lon="144.20204767609394"><ele>90.4</ele><time>2026-05-04T04:06:10Z</time></trkpt><trkpt lat="-35.59665721427637" lon="144.20195063913397"><ele>90.2</ele><time>2026-05-04T04:06:12Z</time></trkpt><trkpt lat="-35.5967746229905" lon="144.2018859399199"><ele>90.0</ele><time>2026-05-04T04:06:16Z</time></trkpt><trkpt lat="-35.596848499909946" lon="144.20177978685697"><ele>90.0</ele><time>2026-05-04T04:06:17Z</time></trkpt><trkpt lat="-35.5968466082972" lon="144.20163940791778"><ele>90.0</ele><time>2026-05-04T04:06:18Z</time></trkpt><trkpt lat="-35.59684889045394" lon="144.20150147424252"><ele>90.0</ele><time>2026-05-04T04:06:19Z</time></trkpt><trkpt lat="-35.59687349636897" lon="144.20135671009402"><ele>90.0</ele><time>2026-05-04T04:06:20Z</time></trkpt><trkpt lat="-35.59689462769393" lon="144.20121974090634"><ele>89.8</ele><time>2026-05-04T04:06:21Z</time></trkpt><trkpt lat="-35.59689236969239" lon="144.2010718245279"><ele>89.6</ele><time>2026-05-04T04:06:22Z</time></trkpt><trkpt lat="-35.5969030827516" lon="144.2009507841145"><ele>89.4</ele><time>2026-05-04T04:06:23Z</time></trkpt><trkpt lat="-35.596937888380715" lon="144.20083807155052"><ele>89.2</ele><time>2026-05-04T04:06:24Z</time></trkpt><trkpt lat="-35.59699092334628" lon="144.20075369751154"><ele>89.0</ele><time>2026-05-04T04:06:25Z</time></trkpt><trkpt lat="-35.59701944350268" lon="144.2006673975056"><ele>89.2</ele><time>2026-05-04T04:06:26Z</time></trkpt><trkpt lat="-35.59706499445728" lon="144.2005791824063"><ele>89.4</ele><time>2026-05-04T04:06:28Z</time></trkpt><trkpt lat="-35.59701951982588" lon="144.2004877024473"><ele>89.6</ele><time>2026-05-04T04:06:30Z</time></trkpt><trkpt lat="-35.59705177572431" lon="144.200352391217"><ele>89.8</ele><time>2026-05-04T04:06:32Z</time></trkpt><trkpt lat="-35.59710129569868" lon="144.2002412738145"><ele>90.0</ele><time>2026-05-04T04:06:33Z</time></trkpt><trkpt lat="-35.59713233650768" lon="144.20010479636468"><ele>90.0</ele><time>2026-05-04T04:06:34Z</time></trkpt><trkpt lat="-35.597149047867575" lon="144.20001176133823"><ele>90.0</ele><time>2026-05-04T04:06:35Z</time></trkpt><trkpt lat="-35.59714539650416" lon="144.19991504950033"><ele>90.0</ele><time>2026-05-04T04:06:36Z</time></trkpt><trkpt lat="-35.59708811562904" lon="144.19979709586104"><ele>90.0</ele><time>2026-05-04T04:06:38Z</time></trkpt><trkpt lat="-35.59706640671829" lon="144.1997070292527"><ele>90.0</ele><time>2026-05-04T04:06:53Z</time></trkpt><trkpt lat="-35.597066394661574" lon="144.19952893814323"><ele>90.16666666666667</ele><time>2026-05-04T04:06:55Z</time></trkpt><trkpt lat="-35.597020173067285" lon="144.1994435535933"><ele>90.33333333333333</ele><time>2026-05-04T04:06:57Z</time></trkpt><trkpt lat="-35.59695360585004" lon="144.19943895722747"><ele>90.5</ele><time>2026-05-04T04:06:58Z</time></trkpt><trkpt lat="-35.59686224464025" lon="144.19945097321815"><ele>90.66666666666666</ele><time>2026-05-04T04:06:59Z</time></trkpt><trkpt lat="-35.59675809063307" lon="144.1994571966216"><ele>90.83333333333333</ele><time>2026-05-04T04:07:00Z</time></trkpt><trkpt lat="-35.59667396808618" lon="144.19947036294366"><ele>91.0</ele><time>2026-05-04T04:07:01Z</time></trkpt><trkpt lat="-35.59660299373125" lon="144.199504343445"><ele>91.0</ele><time>2026-05-04T04:07:02Z</time></trkpt><trkpt lat="-35.59653379861452" lon="144.19957813529416"><ele>91.0</ele><time>2026-05-04T04:07:03Z</time></trkpt><trkpt lat="-35.59645662941517" lon="144.1996551617704"><ele>91.0</ele><time>2026-05-04T04:07:04Z</time></trkpt><trkpt lat="-35.59639846040063" lon="144.19970977878265"><ele>91.0</ele><time>2026-05-04T04:07:05Z</time></trkpt><trkpt lat="-35.59626502032556" lon="144.19976731350806"><ele>91.0</ele><time>2026-05-04T04:07:07Z</time></trkpt><trkpt lat="-35.59617178699374" lon="144.19979969837914"><ele>90.4</ele><time>2026-05-04T04:07:08Z</time></trkpt><trkpt lat="-35.59607095299649" lon="144.19984471998808"><ele>89.8</ele><time>2026-05-04T04:07:09Z</time></trkpt><trkpt lat="-35.59598823669258" lon="144.19990031084646"><ele>89.2</ele><time>2026-05-04T04:07:10Z</time></trkpt><trkpt lat="-35.595894332132445" lon="144.19991697002783"><ele>88.60000000000001</ele><time>2026-05-04T04:07:11Z</time></trkpt><trkpt lat="-35.59580065006756" lon="144.19993266147526"><ele>88.0</ele><time>2026-05-04T04:07:12Z</time></trkpt><trkpt lat="-35.595721427098376" lon="144.2000123970905"><ele>88.0</ele><time>2026-05-04T04:07:13Z</time></trkpt><trkpt lat="-35.59564224148719" lon="144.20007588692735"><ele>88.0</ele><time>2026-05-04T04:07:14Z</time></trkpt><trkpt lat="-35.59556713505063" lon="144.20012891525363"><ele>88.0</ele><time>2026-05-04T04:07:15Z</time></trkpt><trkpt lat="-35.59549898999485" lon="144.20020764825045"><ele>88.0</ele><time>2026-05-04T04:07:16Z</time></trkpt><trkpt lat="-35.59543185273217" lon="144.20027676986408"><ele>88.0</ele><time>2026-05-04T04:07:17Z</time></trkpt><trkpt lat="-35.59538376078032" lon="144.20036154598253"><ele>88.0</ele><time>2026-05-04T04:07:18Z</time></trkpt><trkpt lat="-35.59535789251009" lon="144.2004777457388"><ele>88.0</ele><time>2026-05-04T04:07:19Z</time></trkpt><trkpt lat="-35.595323742695065" lon="144.20058689873395"><ele>88.0</ele><time>2026-05-04T04:07:20Z</time></trkpt><trkpt lat="-35.595294370669215" lon="144.20070862268776"><ele>88.0</ele><time>2026-05-04T04:07:21Z</time></trkpt><trkpt lat="-35.59526731690495" lon="144.20080331815169"><ele>88.0</ele><time>2026-05-04T04:07:22Z</time></trkpt><trkpt lat="-35.595213048573434" lon="144.20086095480326"><ele>88.0</ele><time>2026-05-04T04:07:23Z</time></trkpt><trkpt lat="-35.59512014971011" lon="144.20094251652193"><ele>88.75</ele><time>2026-05-04T04:07:24Z</time></trkpt><trkpt lat="-35.59504693993908" lon="144.20106568475242"><ele>89.5</ele><time>2026-05-04T04:07:25Z</time></trkpt><trkpt lat="-35.59496644534061" lon="144.20116877496704"><ele>90.25</ele><time>2026-05-04T04:07:26Z</time></trkpt><trkpt lat="-35.59487619131375" lon="144.20124300715065"><ele>91.0</ele><time>2026-05-04T04:07:27Z</time></trkpt><trkpt lat="-35.594782859563416" lon="144.20131183240073"><ele>91.0</ele><time>2026-05-04T04:07:28Z</time></trkpt><trkpt lat="-35.59472029165257" lon="144.20141478629662"><ele>91.0</ele><time>2026-05-04T04:07:29Z</time></trkpt><trkpt lat="-35.59467040166661" lon="144.2015403708355"><ele>91.0</ele><time>2026-05-04T04:07:30Z</time></trkpt><trkpt lat="-35.59460675586516" lon="144.2016415444121"><ele>91.0</ele><time>2026-05-04T04:07:31Z</time></trkpt><trkpt lat="-35.59454947111285" lon="144.2017255002049"><ele>91.0</ele><time>2026-05-04T04:07:32Z</time></trkpt><trkpt lat="-35.59454563935774" lon="144.20180576150116"><ele>90.66666666666666</ele><time>2026-05-04T04:07:33Z</time></trkpt><trkpt lat="-35.59459156821439" lon="144.20190038075984"><ele>90.33333333333333</ele><time>2026-05-04T04:07:34Z</time></trkpt><trkpt lat="-35.59465324646133" lon="144.20198375106082"><ele>90.0</ele><time>2026-05-04T04:07:35Z</time></trkpt><trkpt lat="-35.59471115712205" lon="144.20205922987864"><ele>89.66666666666667</ele><time>2026-05-04T04:07:36Z</time></trkpt><trkpt lat="-35.594762274691554" lon="144.2021171527274"><ele>89.33333333333334</ele><time>2026-05-04T04:07:37Z</time></trkpt><trkpt lat="-35.59481645433911" lon="144.20218616764558"><ele>89.0</ele><time>2026-05-04T04:07:39Z</time></trkpt><trkpt lat="-35.594826415509765" lon="144.20231694890782"><ele>88.6</ele><time>2026-05-04T04:07:45Z</time></trkpt><trkpt lat="-35.59483143622444" lon="144.202442550696"><ele>88.2</ele><time>2026-05-04T04:07:46Z</time></trkpt><trkpt lat="-35.59483754430273" lon="144.20253205343053"><ele>87.8</ele><time>2026-05-04T04:07:47Z</time></trkpt><trkpt lat="-35.59491288880969" lon="144.20262856611737"><ele>87.39999999999999</ele><time>2026-05-04T04:07:49Z</time></trkpt><trkpt lat="-35.59499868052897" lon="144.2026975035894"><ele>87.0</ele><time>2026-05-04T04:07:50Z</time></trkpt><trkpt lat="-35.59507083739266" lon="144.20274677554715"><ele>87.0</ele><time>2026-05-04T04:07:51Z</time></trkpt><trkpt lat="-35.59512339914499" lon="144.20280468905838"><ele>87.0</ele><time>2026-05-04T04:07:53Z</time></trkpt><trkpt lat="-35.59517927075733" lon="144.20275470187622"><ele>87.0</ele><time>2026-05-04T04:07:56Z</time></trkpt><trkpt lat="-35.59524379195344" lon="144.20282049738032"><ele>87.0</ele><time>2026-05-04T04:07:58Z</time></trkpt><trkpt lat="-35.59532133749206" lon="144.2028452064069"><ele>87.0</ele><time>2026-05-04T04:08:00Z</time></trkpt><trkpt lat="-35.595380337214536" lon="144.2029224930258"><ele>87.0</ele><time>2026-05-04T04:08:02Z</time></trkpt><trkpt lat="-35.59535977445637" lon="144.20302049625892"><ele>87.0</ele><time>2026-05-04T04:08:04Z</time></trkpt><trkpt lat="-35.595296668995644" lon="144.20305606015444"><ele>87.0</ele><time>2026-05-04T04:08:05Z</time></trkpt><trkpt lat="-35.59528496736168" lon="144.20314433817404"><ele>87.0</ele><time>2026-05-04T04:08:07Z</time></trkpt><trkpt lat="-35.59534842232555" lon="144.20322831872866"><ele>87.0</ele><time>2026-05-04T04:08:10Z</time></trkpt><trkpt lat="-35.595344919602674" lon="144.20331281700498"><ele>87.0</ele><time>2026-05-04T04:08:13Z</time></trkpt><trkpt lat="-35.59526751647142" lon="144.20339124285766"><ele>87.0</ele><time>2026-05-04T04:08:16Z</time></trkpt><trkpt lat="-35.59519596285787" lon="144.20344614149332"><ele>87.0</ele><time>2026-05-04T04:08:19Z</time></trkpt><trkpt lat="-35.59517418335614" lon="144.20354825324924"><ele>87.0</ele><time>2026-05-04T04:08:22Z</time></trkpt><trkpt lat="-35.595204132237846" lon="144.20364989310832"><ele>87.0</ele><time>2026-05-04T04:08:25Z</time></trkpt><trkpt lat="-35.59525643804635" lon="144.20372157260803"><ele>87.0</ele><time>2026-05-04T04:08:27Z</time></trkpt><trkpt lat="-35.59520446874448" lon="144.2037770676029"><ele>87.0</ele><time>2026-05-04T04:08:30Z</time></trkpt><trkpt lat="-35.595085188350865" lon="144.20399626441264"><ele>87.39999999999999</ele><time>2026-05-04T04:08:35Z</time></trkpt><trkpt lat="-35.59507154456563" lon="144.20420131047456"><ele>87.8</ele><time>2026-05-04T04:08:36Z</time></trkpt><trkpt lat="-35.59505799099467" lon="144.20429945127148"><ele>88.2</ele><time>2026-05-04T04:08:37Z</time></trkpt><trkpt lat="-35.59509564553575" lon="144.20440901331798"><ele>88.6</ele><time>2026-05-04T04:08:38Z</time></trkpt><trkpt lat="-35.595133026553746" lon="144.20448807568886"><ele>89.0</ele><time>2026-05-04T04:08:39Z</time></trkpt><trkpt lat="-35.595143029306605" lon="144.20460836733903"><ele>89.0</ele><time>2026-05-04T04:08:40Z</time></trkpt><trkpt lat="-35.5951376353463" lon="144.20470562394078"><ele>89.0</ele><time>2026-05-04T04:08:41Z</time></trkpt><trkpt lat="-35.59507288024735" lon="144.20481632773826"><ele>89.0</ele><time>2026-05-04T04:08:42Z</time></trkpt><trkpt lat="-35.59505455797032" lon="144.20493356410776"><ele>89.0</ele><time>2026-05-04T04:08:43Z</time></trkpt><trkpt lat="-35.59495800509428" lon="144.20506670218856"><ele>89.0</ele><time>2026-05-04T04:08:44Z</time></trkpt><trkpt lat="-35.594882223553064" lon="144.2051805401981"><ele>88.5</ele><time>2026-05-04T04:08:45Z</time></trkpt><trkpt lat="-35.59481358869936" lon="144.20526862483115"><ele>88.0</ele><time>2026-05-04T04:08:46Z</time></trkpt><trkpt lat="-35.5947263014157" lon="144.20535172311813"><ele>87.5</ele><time>2026-05-04T04:08:47Z</time></trkpt><trkpt lat="-35.59461594000303" lon="144.20540729892596"><ele>87.0</ele><time>2026-05-04T04:08:48Z</time></trkpt><trkpt lat="-35.59449318312796" lon="144.20548437936029"><ele>87.0</ele><time>2026-05-04T04:08:49Z</time></trkpt><trkpt lat="-35.594404029718184" lon="144.2055261657761"><ele>87.0</ele><time>2026-05-04T04:08:50Z</time></trkpt><trkpt lat="-35.59428908793466" lon="144.20561283103254"><ele>87.0</ele><time>2026-05-04T04:08:51Z</time></trkpt><trkpt lat="-35.594173004763555" lon="144.20571267540782"><ele>87.0</ele><time>2026-05-04T04:08:52Z</time></trkpt><trkpt lat="-35.594061030684514" lon="144.2058124860968"><ele>87.0</ele><time>2026-05-04T04:08:53Z</time></trkpt><trkpt lat="-35.59395197803834" lon="144.2059096085685"><ele>87.0</ele><time>2026-05-04T04:08:54Z</time></trkpt><trkpt lat="-35.593926748228" lon="144.20600481580735"><ele>87.0</ele><time>2026-05-04T04:08:55Z</time></trkpt><trkpt lat="-35.5939223357418" lon="144.2060825522774"><ele>87.0</ele><time>2026-05-04T04:08:57Z</time></trkpt><trkpt lat="-35.59384590551322" lon="144.2060783528051"><ele>87.0</ele><time>2026-05-04T04:09:01Z</time></trkpt><trkpt lat="-35.59377545308321" lon="144.20607106916995"><ele>87.0</ele><time>2026-05-04T04:09:03Z</time></trkpt><trkpt lat="-35.59384649108718" lon="144.20603560730663"><ele>87.0</ele><time>2026-05-04T04:09:07Z</time></trkpt><trkpt lat="-35.59394137165359" lon="144.2060684636527"><ele>87.0</ele><time>2026-05-04T04:09:09Z</time></trkpt><trkpt lat="-35.5938888301907" lon="144.20616905993217"><ele>87.0</ele><time>2026-05-04T04:09:15Z</time></trkpt><trkpt lat="-35.593828653261404" lon="144.20621633483253"><ele>87.0</ele><time>2026-05-04T04:09:17Z</time></trkpt><trkpt lat="-35.59375722289075" lon="144.2061729366612"><ele>87.0</ele><time>2026-05-04T04:09:19Z</time></trkpt><trkpt lat="-35.593676218281296" lon="144.20611245369184"><ele>87.0</ele><time>2026-05-04T04:09:20Z</time></trkpt><trkpt lat="-35.59356484256863" lon="144.20611635748074"><ele>86.5</ele><time>2026-05-04T04:09:21Z</time></trkpt><trkpt lat="-35.593448751626376" lon="144.20614715041557"><ele>86.0</ele><time>2026-05-04T04:09:22Z</time></trkpt><trkpt lat="-35.593341454340326" lon="144.20616507058557"><ele>85.5</ele><time>2026-05-04T04:09:23Z</time></trkpt><trkpt lat="-35.59322919225335" lon="144.20615847532798"><ele>85.0</ele><time>2026-05-04T04:09:24Z</time></trkpt><trkpt lat="-35.59311012044627" lon="144.20611866389262"><ele>85.0</ele><time>2026-05-04T04:09:25Z</time></trkpt><trkpt lat="-35.59299589293123" lon="144.20606027697096"><ele>85.0</ele><time>2026-05-04T04:09:26Z</time></trkpt><trkpt lat="-35.59289450569301" lon="144.2060052215775"><ele>85.0</ele><time>2026-05-04T04:09:27Z</time></trkpt><trkpt lat="-35.592812835950205" lon="144.20592940034135"><ele>85.0</ele><time>2026-05-04T04:09:28Z</time></trkpt><trkpt lat="-35.59271846191022" lon="144.2058096581582"><ele>85.0</ele><time>2026-05-04T04:09:29Z</time></trkpt><trkpt lat="-35.59264203383104" lon="144.20574715784505"><ele>85.0</ele><time>2026-05-04T04:09:30Z</time></trkpt><trkpt lat="-35.592614513060326" lon="144.2055975162625"><ele>85.0</ele><time>2026-05-04T04:09:32Z</time></trkpt><trkpt lat="-35.592604406632915" lon="144.2054544534112"><ele>85.0</ele><time>2026-05-04T04:09:33Z</time></trkpt><trkpt lat="-35.592548035200934" lon="144.20534029060252"><ele>85.0</ele><time>2026-05-04T04:09:34Z</time></trkpt><trkpt lat="-35.59244591307947" lon="144.20528045508576"><ele>85.5</ele><time>2026-05-04T04:09:35Z</time></trkpt><trkpt lat="-35.592379783743176" lon="144.20522709704616"><ele>86.0</ele><time>2026-05-04T04:09:36Z</time></trkpt><trkpt lat="-35.59235705412072" lon="144.20510590191424"><ele>86.5</ele><time>2026-05-04T04:09:38Z</time></trkpt><trkpt lat="-35.59237503194555" lon="144.20503106776292"><ele>87.0</ele><time>2026-05-04T04:09:39Z</time></trkpt><trkpt lat="-35.592394797106834" lon="144.2049306632287"><ele>87.5</ele><time>2026-05-04T04:09:40Z</time></trkpt><trkpt lat="-35.59240086625005" lon="144.20479494996925"><ele>88.0</ele><time>2026-05-04T04:09:41Z</time></trkpt><trkpt lat="-35.59241649852492" lon="144.20461939900215"><ele>88.2</ele><time>2026-05-04T04:09:42Z</time></trkpt><trkpt lat="-35.59243751152083" lon="144.20446682891944"><ele>88.4</ele><time>2026-05-04T04:09:43Z</time></trkpt><trkpt lat="-35.59242689148182" lon="144.20434208444192"><ele>88.60000000000001</ele><time>2026-05-04T04:09:45Z</time></trkpt><trkpt lat="-35.592339724603086" lon="144.20429296708068"><ele>88.80000000000001</ele><time>2026-05-04T04:09:47Z</time></trkpt><trkpt lat="-35.59233589913976" lon="144.2041993449775"><ele>89.0</ele><time>2026-05-04T04:09:49Z</time></trkpt><trkpt lat="-35.59234987043724" lon="144.2040961195064"><ele>89.5</ele><time>2026-05-04T04:09:52Z</time></trkpt><trkpt lat="-35.59235175781323" lon="144.20366500292724"><ele>90.0</ele><time>2026-05-04T04:09:54Z</time></trkpt><trkpt lat="-35.592288993649966" lon="144.2035172540487"><ele>90.0</ele><time>2026-05-04T04:09:55Z</time></trkpt><trkpt lat="-35.59223862428078" lon="144.2033884641181"><ele>90.0</ele><time>2026-05-04T04:09:56Z</time></trkpt><trkpt lat="-35.59217534645131" lon="144.20329834078922"><ele>90.0</ele><time>2026-05-04T04:09:57Z</time></trkpt><trkpt lat="-35.59208447314394" lon="144.20321600409767"><ele>90.0</ele><time>2026-05-04T04:10:00Z</time></trkpt><trkpt lat="-35.592033502036976" lon="144.2031498757155"><ele>90.0</ele><time>2026-05-04T04:10:02Z</time></trkpt><trkpt lat="-35.59198808761779" lon="144.20309373961834"><ele>88.6</ele><time>2026-05-04T04:10:04Z</time></trkpt><trkpt lat="-35.59191125549546" lon="144.203005018358"><ele>87.2</ele><time>2026-05-04T04:10:07Z</time></trkpt><trkpt lat="-35.59187966166689" lon="144.2029191453172"><ele>85.80000000000001</ele><time>2026-05-04T04:10:08Z</time></trkpt><trkpt lat="-35.59189313385832" lon="144.20277226896675"><ele>84.4</ele><time>2026-05-04T04:10:10Z</time></trkpt><trkpt lat="-35.59194189898353" lon="144.20269262544693"><ele>83.0</ele><time>2026-05-04T04:10:12Z</time></trkpt><trkpt lat="-35.59185765378966" lon="144.20266014502437"><ele>83.0</ele><time>2026-05-04T04:10:15Z</time></trkpt><trkpt lat="-35.59186728571145" lon="144.20256517679945"><ele>83.0</ele><time>2026-05-04T04:10:18Z</time></trkpt><trkpt lat="-35.59187340822629" lon="144.20248459637148"><ele>83.0</ele><time>2026-05-04T04:10:19Z</time></trkpt><trkpt lat="-35.59190114096245" lon="144.20239151729675"><ele>83.0</ele><time>2026-05-04T04:10:22Z</time></trkpt><trkpt lat="-35.591920293546046" lon="144.2023077224018"><ele>83.0</ele><time>2026-05-04T04:10:24Z</time></trkpt><trkpt lat="-35.59195755161986" lon="144.2022434334649"><ele>83.0</ele><time>2026-05-04T04:10:26Z</time></trkpt><trkpt lat="-35.59210438453551" lon="144.20217294252421"><ele>82.83333333333334</ele><time>2026-05-04T04:10:28Z</time></trkpt><trkpt lat="-35.59219217532798" lon="144.20216594093756"><ele>82.66666666666667</ele><time>2026-05-04T04:10:29Z</time></trkpt><trkpt lat="-35.59222362084062" lon="144.20208740125346"><ele>82.5</ele><time>2026-05-04T04:10:32Z</time></trkpt><trkpt lat="-35.592282645726804" lon="144.20205594924346"><ele>82.33333333333333</ele><time>2026-05-04T04:10:33Z</time></trkpt><trkpt lat="-35.592284859296846" lon="144.20196040625729"><ele>82.16666666666666</ele><time>2026-05-04T04:10:35Z</time></trkpt><trkpt lat="-35.59235499609591" lon="144.20187001478777"><ele>82.0</ele><time>2026-05-04T04:10:37Z</time></trkpt><trkpt lat="-35.59237239815533" lon="144.2017885249441"><ele>82.0</ele><time>2026-05-04T04:10:40Z</time></trkpt><trkpt lat="-35.59250081392983" lon="144.2017300623136"><ele>82.0</ele><time>2026-05-04T04:10:41Z</time></trkpt><trkpt lat="-35.5925578286518" lon="144.20167139803"><ele>82.0</ele><time>2026-05-04T04:10:44Z</time></trkpt><trkpt lat="-35.59257480288943" lon="144.20153832795506"><ele>82.0</ele><time>2026-05-04T04:10:46Z</time></trkpt><trkpt lat="-35.592588036182626" lon="144.20145217458804"><ele>82.0</ele><time>2026-05-04T04:10:51Z</time></trkpt><trkpt lat="-35.59348016610241" lon="144.20086775707523"><ele>82.0</ele><time>2026-05-04T04:10:52Z</time></trkpt><trkpt lat="-35.59357718217387" lon="144.20083039559918"><ele>82.0</ele><time>2026-05-04T04:10:53Z</time></trkpt><trkpt lat="-35.59366263667541" lon="144.2007914451913"><ele>82.0</ele><time>2026-05-04T04:10:54Z</time></trkpt><trkpt lat="-35.59367295340899" lon="144.20070889855387"><ele>82.0</ele><time>2026-05-04T04:10:55Z</time></trkpt><trkpt lat="-35.593635399043706" lon="144.20063413158684"><ele>82.0</ele><time>2026-05-04T04:10:56Z</time></trkpt><trkpt lat="-35.59368741022488" lon="144.20055878481625"><ele>82.0</ele><time>2026-05-04T04:10:58Z</time></trkpt><trkpt lat="-35.59371728983813" lon="144.20046910656592"><ele>82.6</ele><time>2026-05-04T04:11:00Z</time></trkpt><trkpt lat="-35.593803660170984" lon="144.20044259951433"><ele>83.19999999999999</ele><time>2026-05-04T04:11:02Z</time></trkpt><trkpt lat="-35.59386100433245" lon="144.20039989924385"><ele>83.8</ele><time>2026-05-04T04:11:03Z</time></trkpt><trkpt lat="-35.593921330237926" lon="144.20028954327117"><ele>84.4</ele><time>2026-05-04T04:11:05Z</time></trkpt><trkpt lat="-35.59403303556093" lon="144.20025842045035"><ele>85.0</ele><time>2026-05-04T04:11:07Z</time></trkpt><trkpt lat="-35.59409421774244" lon="144.20032539182208"><ele>85.0</ele><time>2026-05-04T04:11:10Z</time></trkpt><trkpt lat="-35.59420169832189" lon="144.20039152132873"><ele>85.0</ele><time>2026-05-04T04:11:12Z</time></trkpt><trkpt lat="-35.5943032549517" lon="144.20045328361496"><ele>85.0</ele><time>2026-05-04T04:11:13Z</time></trkpt><trkpt lat="-35.59438849189728" lon="144.20053613106975"><ele>85.0</ele><time>2026-05-04T04:11:14Z</time></trkpt><trkpt lat="-35.59428628697733" lon="144.20039690462215"><ele>85.0</ele><time>2026-05-04T04:11:15Z</time></trkpt><trkpt lat="-35.59434689145823" lon="144.2003055310502"><ele>85.0</ele><time>2026-05-04T04:11:19Z</time></trkpt><trkpt lat="-35.594402923692144" lon="144.20015977870736"><ele>85.0</ele><time>2026-05-04T04:11:20Z</time></trkpt><trkpt lat="-35.59447334998954" lon="144.20007745302743"><ele>85.0</ele><time>2026-05-04T04:11:21Z</time></trkpt><trkpt lat="-35.59457497809028" lon="144.20008628377707"><ele>85.0</ele><time>2026-05-04T04:11:22Z</time></trkpt><trkpt lat="-35.59463962635635" lon="144.20011320883907"><ele>85.2</ele><time>2026-05-04T04:11:23Z</time></trkpt><trkpt lat="-35.59467342069996" lon="144.20004246914374"><ele>85.4</ele><time>2026-05-04T04:11:24Z</time></trkpt><trkpt lat="-35.5947039137607" lon="144.19993017115445"><ele>85.6</ele><time>2026-05-04T04:11:25Z</time></trkpt><trkpt lat="-35.59473105036077" lon="144.19979264532273"><ele>85.8</ele><time>2026-05-04T04:11:26Z</time></trkpt><trkpt lat="-35.59475043695086" lon="144.19965592446283"><ele>86.0</ele><time>2026-05-04T04:11:27Z</time></trkpt><trkpt lat="-35.59476001212422" lon="144.19953287181607"><ele>86.0</ele><time>2026-05-04T04:11:28Z</time></trkpt><trkpt lat="-35.59480080601224" lon="144.19945754714485"><ele>86.0</ele><time>2026-05-04T04:11:30Z</time></trkpt><trkpt lat="-35.59490813386661" lon="144.19950271074165"><ele>86.0</ele><time>2026-05-04T04:11:32Z</time></trkpt><trkpt lat="-35.59510109746962" lon="144.19947802137773"><ele>86.0</ele><time>2026-05-04T04:11:33Z</time></trkpt><trkpt lat="-35.59520803565007" lon="144.19944824153347"><ele>86.0</ele><time>2026-05-04T04:11:34Z</time></trkpt><trkpt lat="-35.595279919160795" lon="144.19940160877658"><ele>86.0</ele><time>2026-05-04T04:11:35Z</time></trkpt><trkpt lat="-35.595337534986996" lon="144.19932416560775"><ele>86.0</ele><time>2026-05-04T04:11:36Z</time></trkpt><trkpt lat="-35.59539950217351" lon="144.19925063195623"><ele>86.0</ele><time>2026-05-04T04:11:37Z</time></trkpt><trkpt lat="-35.59546338142483" lon="144.1991827504258"><ele>86.0</ele><time>2026-05-04T04:11:38Z</time></trkpt><trkpt lat="-35.59556714734727" lon="144.1991065200804"><ele>86.75</ele><time>2026-05-04T04:11:39Z</time></trkpt><trkpt lat="-35.59567564350085" lon="144.19901843356217"><ele>87.5</ele><time>2026-05-04T04:11:40Z</time></trkpt><trkpt lat="-35.5957647534509" lon="144.19892681736312"><ele>88.25</ele><time>2026-05-04T04:11:41Z</time></trkpt><trkpt lat="-35.59584389359583" lon="144.19884690760443"><ele>89.0</ele><time>2026-05-04T04:11:42Z</time></trkpt><trkpt lat="-35.59593569278426" lon="144.19877875725646"><ele>89.0</ele><time>2026-05-04T04:11:43Z</time></trkpt><trkpt lat="-35.596017569226085" lon="144.19873526447395"><ele>89.0</ele><time>2026-05-04T04:11:44Z</time></trkpt><trkpt lat="-35.596124757796346" lon="144.19872362158762"><ele>89.0</ele><time>2026-05-04T04:11:45Z</time></trkpt><trkpt lat="-35.59620455868311" lon="144.19875340648215"><ele>89.0</ele><time>2026-05-04T04:11:46Z</time></trkpt><trkpt lat="-35.59629027254567" lon="144.19876124847883"><ele>89.0</ele><time>2026-05-04T04:11:47Z</time></trkpt><trkpt lat="-35.59638511179181" lon="144.1987090269621"><ele>89.80000000000001</ele><time>2026-05-04T04:11:49Z</time></trkpt><trkpt lat="-35.59635888550547" lon="144.1986265690449"><ele>90.60000000000001</ele><time>2026-05-04T04:11:50Z</time></trkpt><trkpt lat="-35.59639760555484" lon="144.19849001214013"><ele>91.4</ele><time>2026-05-04T04:11:52Z</time></trkpt><trkpt lat="-35.596477034080365" lon="144.19848729540422"><ele>92.2</ele><time>2026-05-04T04:11:54Z</time></trkpt><trkpt lat="-35.59652977358577" lon="144.19860609466883"><ele>93.0</ele><time>2026-05-04T04:11:56Z</time></trkpt><trkpt lat="-35.59653709337224" lon="144.19870424006172"><ele>93.0</ele><time>2026-05-04T04:11:57Z</time></trkpt><trkpt lat="-35.596646592960745" lon="144.19871530880917"><ele>93.0</ele><time>2026-05-04T04:12:00Z</time></trkpt><trkpt lat="-35.59672232312425" lon="144.1987161767408"><ele>93.0</ele><time>2026-05-04T04:12:01Z</time></trkpt><trkpt lat="-35.59678808836376" lon="144.19868512333673"><ele>93.0</ele><time>2026-05-04T04:12:02Z</time></trkpt><trkpt lat="-35.5968705796729" lon="144.19866224926614"><ele>93.0</ele><time>2026-05-04T04:12:03Z</time></trkpt><trkpt lat="-35.59692695046591" lon="144.1986139300793"><ele>93.0</ele><time>2026-05-04T04:12:04Z</time></trkpt><trkpt lat="-35.59701218050821" lon="144.19856037495722"><ele>92.60000000000001</ele><time>2026-05-04T04:12:05Z</time></trkpt><trkpt lat="-35.59705990077122" lon="144.1984988314942"><ele>92.2</ele><time>2026-05-04T04:12:06Z</time></trkpt><trkpt lat="-35.597087438777415" lon="144.19842779108865"><ele>91.8</ele><time>2026-05-04T04:12:07Z</time></trkpt><trkpt lat="-35.59708999368993" lon="144.1982662701967"><ele>91.4</ele><time>2026-05-04T04:12:09Z</time></trkpt><trkpt lat="-35.59709428782719" lon="144.19810811158712"><ele>91.0</ele><time>2026-05-04T04:12:11Z</time></trkpt><trkpt lat="-35.59722456567021" lon="144.19801804467963"><ele>91.0</ele><time>2026-05-04T04:12:13Z</time></trkpt><trkpt lat="-35.59733361518679" lon="144.1979735228951"><ele>91.0</ele><time>2026-05-04T04:12:14Z</time></trkpt><trkpt lat="-35.59742110751181" lon="144.19793194388654"><ele>91.0</ele><time>2026-05-04T04:12:15Z</time></trkpt><trkpt lat="-35.59751289112511" lon="144.19788774740314"><ele>91.0</ele><time>2026-05-04T04:12:16Z</time></trkpt><trkpt lat="-35.59764173178428" lon="144.19786485032634"><ele>91.0</ele><time>2026-05-04T04:12:17Z</time></trkpt><trkpt lat="-35.597737703384716" lon="144.19783835514127"><ele>91.0</ele><time>2026-05-04T04:12:18Z</time></trkpt><trkpt lat="-35.59779521982866" lon="144.19777976540374"><ele>91.0</ele><time>2026-05-04T04:12:19Z</time></trkpt><trkpt lat="-35.59778414961541" lon="144.19762858109874"><ele>91.0</ele><time>2026-05-04T04:12:20Z</time></trkpt><trkpt lat="-35.59777312555156" lon="144.19748088295566"><ele>91.0</ele><time>2026-05-04T04:12:21Z</time></trkpt><trkpt lat="-35.59778317672289" lon="144.19734511172416"><ele>91.0</ele><time>2026-05-04T04:12:22Z</time></trkpt><trkpt lat="-35.59778364483025" lon="144.19717772036182"><ele>90.25</ele><time>2026-05-04T04:12:23Z</time></trkpt><trkpt lat="-35.59771706533739" lon="144.19701276460123"><ele>89.5</ele><time>2026-05-04T04:12:24Z</time></trkpt><trkpt lat="-35.597600445723664" lon="144.19690798956893"><ele>88.75</ele><time>2026-05-04T04:12:25Z</time></trkpt><trkpt lat="-35.59745794585962" lon="144.19687190295855"><ele>88.0</ele><time>2026-05-04T04:12:26Z</time></trkpt><trkpt lat="-35.597356212201824" lon="144.1968518614049"><ele>88.0</ele><time>2026-05-04T04:12:27Z</time></trkpt><trkpt lat="-35.59730342613117" lon="144.19680952085315"><ele>88.0</ele><time>2026-05-04T04:12:28Z</time></trkpt><trkpt lat="-35.597267649896544" lon="144.19672451564713"><ele>88.0</ele><time>2026-05-04T04:12:29Z</time></trkpt><trkpt lat="-35.5972136427695" lon="144.19665812664056"><ele>88.0</ele><time>2026-05-04T04:12:30Z</time></trkpt><trkpt lat="-35.597130737572996" lon="144.19665924628742"><ele>88.0</ele><time>2026-05-04T04:12:31Z</time></trkpt><trkpt lat="-35.59702286610267" lon="144.1966746085384"><ele>88.0</ele><time>2026-05-04T04:12:32Z</time></trkpt><trkpt lat="-35.596940649682296" lon="144.19670681656075"><ele>87.80000000000001</ele><time>2026-05-04T04:12:33Z</time></trkpt><trkpt lat="-35.59688988892563" lon="144.19657791607995"><ele>87.6</ele><time>2026-05-04T04:12:35Z</time></trkpt><trkpt lat="-35.59684321985864" lon="144.19648207331164"><ele>87.4</ele><time>2026-05-04T04:12:36Z</time></trkpt><trkpt lat="-35.59677352641973" lon="144.1964519660574"><ele>87.19999999999999</ele><time>2026-05-04T04:12:37Z</time></trkpt><trkpt lat="-35.59664492092994" lon="144.1964866131435"><ele>87.0</ele><time>2026-05-04T04:12:39Z</time></trkpt><trkpt lat="-35.59658307657998" lon="144.1965257924413"><ele>87.0</ele><time>2026-05-04T04:12:40Z</time></trkpt><trkpt lat="-35.5965518497947" lon="144.1963697850347"><ele>87.0</ele><time>2026-05-04T04:12:43Z</time></trkpt><trkpt lat="-35.59649844775754" lon="144.19625670734024"><ele>87.0</ele><time>2026-05-04T04:12:44Z</time></trkpt><trkpt lat="-35.59643113489619" lon="144.19616085163887"><ele>87.0</ele><time>2026-05-04T04:12:45Z</time></trkpt><trkpt lat="-35.59637478251941" lon="144.1960430870556"><ele>87.0</ele><time>2026-05-04T04:12:46Z</time></trkpt><trkpt lat="-35.59633785735859" lon="144.19597029379605"><ele>87.0</ele><time>2026-05-04T04:12:47Z</time></trkpt><trkpt lat="-35.59626793604137" lon="144.1959852992682"><ele>87.0</ele><time>2026-05-04T04:12:49Z</time></trkpt><trkpt lat="-35.596188645830324" lon="144.1960413716469"><ele>87.0</ele><time>2026-05-04T04:12:50Z</time></trkpt><trkpt lat="-35.59609047077479" lon="144.19609371078036"><ele>87.0</ele><time>2026-05-04T04:12:51Z</time></trkpt><trkpt lat="-35.59600208587279" lon="144.1961682715312"><ele>87.0</ele><time>2026-05-04T04:12:52Z</time></trkpt><trkpt lat="-35.595914635039584" lon="144.19621006304567"><ele>87.5</ele><time>2026-05-04T04:12:54Z</time></trkpt><trkpt lat="-35.59585190595948" lon="144.1961577106343"><ele>88.0</ele><time>2026-05-04T04:12:56Z</time></trkpt><trkpt lat="-35.595791242728524" lon="144.19611058532732"><ele>88.5</ele><time>2026-05-04T04:12:57Z</time></trkpt><trkpt lat="-35.59572787365421" lon="144.19607114894134"><ele>89.0</ele><time>2026-05-04T04:12:58Z</time></trkpt><trkpt lat="-35.59563039943503" lon="144.1960047393024"><ele>89.5</ele><time>2026-05-04T04:13:00Z</time></trkpt><trkpt lat="-35.59556014973107" lon="144.1959712862025"><ele>90.0</ele><time>2026-05-04T04:13:03Z</time></trkpt><trkpt lat="-35.595493961043424" lon="144.19586035609072"><ele>90.0</ele><time>2026-05-04T04:13:05Z</time></trkpt><trkpt lat="-35.59541490390643" lon="144.1958154937627"><ele>90.0</ele><time>2026-05-04T04:13:07Z</time></trkpt><trkpt lat="-35.59534030140824" lon="144.19584606154947"><ele>90.0</ele><time>2026-05-04T04:13:08Z</time></trkpt><trkpt lat="-35.59525515210513" lon="144.19585908375305"><ele>90.0</ele><time>2026-05-04T04:13:09Z</time></trkpt><trkpt lat="-35.595158406693855" lon="144.1957630919223"><ele>90.0</ele><time>2026-05-04T04:13:11Z</time></trkpt><trkpt lat="-35.595111679354645" lon="144.19568331606408"><ele>89.8</ele><time>2026-05-04T04:13:12Z</time></trkpt><trkpt lat="-35.595070126195665" lon="144.19556691404838"><ele>89.6</ele><time>2026-05-04T04:13:13Z</time></trkpt><trkpt lat="-35.5950429156103" lon="144.19544367127918"><ele>89.4</ele><time>2026-05-04T04:13:14Z</time></trkpt><trkpt lat="-35.5949581719454" lon="144.1954691879438"><ele>89.2</ele><time>2026-05-04T04:13:16Z</time></trkpt><trkpt lat="-35.59495164688255" lon="144.1955525998753"><ele>89.0</ele><time>2026-05-04T04:13:18Z</time></trkpt><trkpt lat="-35.594597726883755" lon="144.19567392937674"><ele>89.4</ele><time>2026-05-04T04:13:20Z</time></trkpt><trkpt lat="-35.594555346302336" lon="144.195585349987"><ele>89.80000000000001</ele><time>2026-05-04T04:13:23Z</time></trkpt><trkpt lat="-35.59449542317036" lon="144.1955294720204"><ele>90.19999999999999</ele><time>2026-05-04T04:13:24Z</time></trkpt><trkpt lat="-35.594480903831425" lon="144.19536348150007"><ele>90.6</ele><time>2026-05-04T04:13:25Z</time></trkpt><trkpt lat="-35.594407758388805" lon="144.1953532345005"><ele>91.0</ele><time>2026-05-04T04:13:26Z</time></trkpt><trkpt lat="-35.594191326692346" lon="144.19549684616922"><ele>91.0</ele><time>2026-05-04T04:13:28Z</time></trkpt><trkpt lat="-35.59411465835986" lon="144.19549716559027"><ele>91.0</ele><time>2026-05-04T04:13:29Z</time></trkpt><trkpt lat="-35.594049578855554" lon="144.19546445070714"><ele>91.0</ele><time>2026-05-04T04:13:30Z</time></trkpt><trkpt lat="-35.5939141422874" lon="144.19530003613286"><ele>91.0</ele><time>2026-05-04T04:13:31Z</time></trkpt><trkpt lat="-35.59374914133578" lon="144.195299300894"><ele>91.0</ele><time>2026-05-04T04:13:32Z</time></trkpt><trkpt lat="-35.59362707942496" lon="144.19525442114488"><ele>91.0</ele><time>2026-05-04T04:13:33Z</time></trkpt><trkpt lat="-35.59347454977074" lon="144.195304464301"><ele>91.0</ele><time>2026-05-04T04:13:34Z</time></trkpt><trkpt lat="-35.59331313676521" lon="144.19533830981632"><ele>91.0</ele><time>2026-05-04T04:13:35Z</time></trkpt><trkpt lat="-35.59313625385321" lon="144.19527220104595"><ele>91.0</ele><time>2026-05-04T04:13:39Z</time></trkpt><trkpt lat="-35.593123934587595" lon="144.1953864560195"><ele>91.0</ele><time>2026-05-04T04:13:42Z</time></trkpt><trkpt lat="-35.59305640736025" lon="144.19540755457479"><ele>91.0</ele><time>2026-05-04T04:13:45Z</time></trkpt><trkpt lat="-35.59305695276142" lon="144.19548725184865"><ele>91.0</ele><time>2026-05-04T04:13:47Z</time></trkpt><trkpt lat="-35.59301788239738" lon="144.19555978932664"><ele>91.0</ele><time>2026-05-04T04:13:50Z</time></trkpt><trkpt lat="-35.59294395612054" lon="144.1955954131659"><ele>91.0</ele><time>2026-05-04T04:13:53Z</time></trkpt><trkpt lat="-35.59287705747543" lon="144.19556923777873"><ele>91.0</ele><time>2026-05-04T04:13:55Z</time></trkpt><trkpt lat="-35.592813539945254" lon="144.19555254216306"><ele>90.57142857142857</ele><time>2026-05-04T04:13:57Z</time></trkpt><trkpt lat="-35.592743045282" lon="144.19556753604675"><ele>90.14285714285714</ele><time>2026-05-04T04:13:59Z</time></trkpt><trkpt lat="-35.592653003453705" lon="144.19561692268198"><ele>89.71428571428572</ele><time>2026-05-04T04:14:02Z</time></trkpt><trkpt lat="-35.59258917897338" lon="144.19562493091897"><ele>89.28571428571428</ele><time>2026-05-04T04:14:04Z</time></trkpt><trkpt lat="-35.592530032041196" lon="144.19565808286112"><ele>88.85714285714286</ele><time>2026-05-04T04:14:07Z</time></trkpt><trkpt lat="-35.59249939619353" lon="144.19572972381786"><ele>88.42857142857143</ele><time>2026-05-04T04:14:09Z</time></trkpt><trkpt lat="-35.592425650720635" lon="144.1957787776941"><ele>88.0</ele><time>2026-05-04T04:14:10Z</time></trkpt><trkpt lat="-35.5923536003576" lon="144.19578381014477"><ele>88.0</ele><time>2026-05-04T04:14:11Z</time></trkpt><trkpt lat="-35.592212633731506" lon="144.19578575363343"><ele>88.0</ele><time>2026-05-04T04:14:12Z</time></trkpt><trkpt lat="-35.59206270569256" lon="144.1957996535149"><ele>88.0</ele><time>2026-05-04T04:14:13Z</time></trkpt><trkpt lat="-35.59196387518575" lon="144.19573455372105"><ele>88.0</ele><time>2026-05-04T04:14:14Z</time></trkpt><trkpt lat="-35.591865000667944" lon="144.19573222967827"><ele>88.0</ele><time>2026-05-04T04:14:15Z</time></trkpt><trkpt lat="-35.59179321270448" lon="144.19573403746585"><ele>88.0</ele><time>2026-05-04T04:14:16Z</time></trkpt><trkpt lat="-35.59173014883791" lon="144.19573351894863"><ele>88.0</ele><time>2026-05-04T04:14:17Z</time></trkpt><trkpt lat="-35.59167366978137" lon="144.19568280357325"><ele>88.0</ele><time>2026-05-04T04:14:18Z</time></trkpt><trkpt lat="-35.59163195137636" lon="144.19558241523603"><ele>88.0</ele><time>2026-05-04T04:14:19Z</time></trkpt><trkpt lat="-35.591521615107276" lon="144.19560383613984"><ele>88.0</ele><time>2026-05-04T04:14:21Z</time></trkpt><trkpt lat="-35.59144975890324" lon="144.195653297019"><ele>88.2</ele><time>2026-05-04T04:14:22Z</time></trkpt><trkpt lat="-35.59135546061619" lon="144.19573736625856"><ele>88.4</ele><time>2026-05-04T04:14:23Z</time></trkpt><trkpt lat="-35.59127187407042" lon="144.1958038738588"><ele>88.60000000000001</ele><time>2026-05-04T04:14:24Z</time></trkpt><trkpt lat="-35.5912090853065" lon="144.19587579619682"><ele>88.80000000000001</ele><time>2026-05-04T04:14:26Z</time></trkpt><trkpt lat="-35.59111847588932" lon="144.1957881965909"><ele>89.0</ele><time>2026-05-04T04:14:28Z</time></trkpt><trkpt lat="-35.591091847468455" lon="144.19565907136226"><ele>88.33333333333334</ele><time>2026-05-04T04:14:30Z</time></trkpt><trkpt lat="-35.59106611046677" lon="144.19557795537827"><ele>87.66666666666667</ele><time>2026-05-04T04:14:31Z</time></trkpt><trkpt lat="-35.59102379634157" lon="144.19549330983014"><ele>87.0</ele><time>2026-05-04T04:14:33Z</time></trkpt><trkpt lat="-35.59103726754592" lon="144.1953878829268"><ele>86.33333333333333</ele><time>2026-05-04T04:14:36Z</time></trkpt><trkpt lat="-35.59105521589251" lon="144.1953004483641"><ele>85.66666666666666</ele><time>2026-05-04T04:14:37Z</time></trkpt><trkpt lat="-35.59107683358689" lon="144.19522110529434"><ele>85.0</ele><time>2026-05-04T04:14:38Z</time></trkpt><trkpt lat="-35.59106797705817" lon="144.19513083607748"><ele>85.0</ele><time>2026-05-04T04:14:41Z</time></trkpt><trkpt lat="-35.590992460906456" lon="144.19510537502217"><ele>85.0</ele><time>2026-05-04T04:14:48Z</time></trkpt><trkpt lat="-35.59101297901154" lon="144.19502265156171"><ele>85.0</ele><time>2026-05-04T04:14:51Z</time></trkpt><trkpt lat="-35.59102746564408" lon="144.19493530445027"><ele>85.0</ele><time>2026-05-04T04:14:54Z</time></trkpt><trkpt lat="-35.59108197113845" lon="144.1948430680798"><ele>85.0</ele><time>2026-05-04T04:14:57Z</time></trkpt><trkpt lat="-35.59114138718219" lon="144.19479441074816"><ele>85.0</ele><time>2026-05-04T04:14:59Z</time></trkpt><trkpt lat="-35.59117880435999" lon="144.1946989894819"><ele>85.75</ele><time>2026-05-04T04:15:02Z</time></trkpt><trkpt lat="-35.5912435866513" lon="144.19463154381415"><ele>86.5</ele><time>2026-05-04T04:15:05Z</time></trkpt><trkpt lat="-35.5913627890295" lon="144.19457628043497"><ele>87.25</ele><time>2026-05-04T04:15:07Z</time></trkpt><trkpt lat="-35.591443549290744" lon="144.19448358788003"><ele>88.0</ele><time>2026-05-04T04:15:08Z</time></trkpt><trkpt lat="-35.59153798271516" lon="144.19433686305646"><ele>88.0</ele><time>2026-05-04T04:15:09Z</time></trkpt><trkpt lat="-35.59161386217303" lon="144.19416191296654"><ele>88.0</ele><time>2026-05-04T04:15:10Z</time></trkpt><trkpt lat="-35.591747602469994" lon="144.19399886549687"><ele>88.0</ele><time>2026-05-04T04:15:11Z</time></trkpt><trkpt lat="-35.59185349779046" lon="144.19388957214824"><ele>88.5</ele><time>2026-05-04T04:15:12Z</time></trkpt><trkpt lat="-35.591953071171716" lon="144.19378883951774"><ele>89.0</ele><time>2026-05-04T04:15:13Z</time></trkpt><trkpt lat="-35.59207149430055" lon="144.1936542694174"><ele>89.5</ele><time>2026-05-04T04:15:14Z</time></trkpt><trkpt lat="-35.59218540835087" lon="144.1935304880125"><ele>90.0</ele><time>2026-05-04T04:15:15Z</time></trkpt><trkpt lat="-35.5923010982239" lon="144.19342700485478"><ele>90.0</ele><time>2026-05-04T04:15:16Z</time></trkpt><trkpt lat="-35.592445926348745" lon="144.19334003330718"><ele>90.0</ele><time>2026-05-04T04:15:17Z</time></trkpt><trkpt lat="-35.59257050970568" lon="144.19327420529416"><ele>90.0</ele><time>2026-05-04T04:15:18Z</time></trkpt><trkpt lat="-35.59271229633615" lon="144.19321720017348"><ele>90.0</ele><time>2026-05-04T04:15:19Z</time></trkpt><trkpt lat="-35.59283876979224" lon="144.19317941478667"><ele>90.0</ele><time>2026-05-04T04:15:20Z</time></trkpt><trkpt lat="-35.59293876636921" lon="144.19317016390795"><ele>90.0</ele><time>2026-05-04T04:15:21Z</time></trkpt><trkpt lat="-35.5930113847907" lon="144.19320439017196"><ele>90.0</ele><time>2026-05-04T04:15:22Z</time></trkpt><trkpt lat="-35.59305773485729" lon="144.19325693008867"><ele>90.0</ele><time>2026-05-04T04:15:23Z</time></trkpt><trkpt lat="-35.59312957757217" lon="144.19329258909787"><ele>90.0</ele><time>2026-05-04T04:15:25Z</time></trkpt><trkpt lat="-35.59321535664687" lon="144.19312872216202"><ele>90.0</ele><time>2026-05-04T04:15:27Z</time></trkpt><trkpt lat="-35.593270445316115" lon="144.19303143699088"><ele>90.0</ele><time>2026-05-04T04:15:28Z</time></trkpt><trkpt lat="-35.593301342950724" lon="144.19294740010943"><ele>90.0</ele><time>2026-05-04T04:15:29Z</time></trkpt><trkpt lat="-35.59335509628877" lon="144.19288564571133"><ele>90.0</ele><time>2026-05-04T04:15:30Z</time></trkpt><trkpt lat="-35.593475381023744" lon="144.19290241457583"><ele>90.0</ele><time>2026-05-04T04:15:32Z</time></trkpt><trkpt lat="-35.59355404248523" lon="144.19295420240846"><ele>90.0</ele><time>2026-05-04T04:15:33Z</time></trkpt><trkpt lat="-35.59363246770008" lon="144.19296665198078"><ele>90.0</ele><time>2026-05-04T04:15:34Z</time></trkpt><trkpt lat="-35.59375143787933" lon="144.1929895233436"><ele>90.0</ele><time>2026-05-04T04:15:36Z</time></trkpt><trkpt lat="-35.59382403475432" lon="144.19302563392642"><ele>90.0</ele><time>2026-05-04T04:15:38Z</time></trkpt><trkpt lat="-35.593863096200245" lon="144.193090032487"><ele>90.0</ele><time>2026-05-04T04:15:41Z</time></trkpt><trkpt lat="-35.593961099534084" lon="144.19311839792977"><ele>90.0</ele><time>2026-05-04T04:15:43Z</time></trkpt><trkpt lat="-35.59405747860619" lon="144.19302861247826"><ele>90.0</ele><time>2026-05-04T04:15:45Z</time></trkpt><trkpt lat="-35.59416004163385" lon="144.1929541479792"><ele>90.0</ele><time>2026-05-04T04:15:47Z</time></trkpt><trkpt lat="-35.5942343574187" lon="144.19292052754054"><ele>90.0</ele><time>2026-05-04T04:15:48Z</time></trkpt><trkpt lat="-35.59423186854178" lon="144.19281788683378"><ele>90.0</ele><time>2026-05-04T04:15:50Z</time></trkpt><trkpt lat="-35.594250028540266" lon="144.19268813860288"><ele>90.0</ele><time>2026-05-04T04:15:53Z</time></trkpt><trkpt lat="-35.59433810439343" lon="144.19258943191195"><ele>90.0</ele><time>2026-05-04T04:15:56Z</time></trkpt><trkpt lat="-35.59442951546104" lon="144.19253289944245"><ele>90.0</ele><time>2026-05-04T04:16:00Z</time></trkpt><trkpt lat="-35.59479449834235" lon="144.19224494799482"><ele>89.66666666666667</ele><time>2026-05-04T04:16:03Z</time></trkpt><trkpt lat="-35.594871431036744" lon="144.19224401064972"><ele>89.33333333333333</ele><time>2026-05-04T04:16:04Z</time></trkpt><trkpt lat="-35.59491543484569" lon="144.19216709010766"><ele>89.0</ele><time>2026-05-04T04:16:05Z</time></trkpt><trkpt lat="-35.59489797525863" lon="144.1920514442053"><ele>88.66666666666666</ele><time>2026-05-04T04:16:07Z</time></trkpt><trkpt lat="-35.59485452162498" lon="144.1919839359081"><ele>88.33333333333333</ele><time>2026-05-04T04:16:09Z</time></trkpt><trkpt lat="-35.59484110263281" lon="144.19188067755286"><ele>88.0</ele><time>2026-05-04T04:16:10Z</time></trkpt><trkpt lat="-35.59482860857841" lon="144.19176959932395"><ele>88.0</ele><time>2026-05-04T04:16:11Z</time></trkpt><trkpt lat="-35.59481925184644" lon="144.19166146003147"><ele>88.0</ele><time>2026-05-04T04:16:12Z</time></trkpt><trkpt lat="-35.594803065051885" lon="144.19156368855354"><ele>88.0</ele><time>2026-05-04T04:16:13Z</time></trkpt><trkpt lat="-35.59473875634041" lon="144.19146650763"><ele>88.0</ele><time>2026-05-04T04:16:15Z</time></trkpt><trkpt lat="-35.594659313502596" lon="144.19137865662452"><ele>88.0</ele><time>2026-05-04T04:16:17Z</time></trkpt><trkpt lat="-35.5946712846766" lon="144.19128976035222"><ele>87.66666666666666</ele><time>2026-05-04T04:16:18Z</time></trkpt><trkpt lat="-35.594701390808204" lon="144.19116782963485"><ele>87.33333333333333</ele><time>2026-05-04T04:16:19Z</time></trkpt><trkpt lat="-35.59468309302793" lon="144.1910781414453"><ele>87.0</ele><time>2026-05-04T04:16:20Z</time></trkpt><trkpt lat="-35.594626065421586" lon="144.19100662486295"><ele>86.66666666666667</ele><time>2026-05-04T04:16:21Z</time></trkpt><trkpt lat="-35.59458220884666" lon="144.1909361720827"><ele>86.33333333333334</ele><time>2026-05-04T04:16:22Z</time></trkpt><trkpt lat="-35.59453920219206" lon="144.19084961429004"><ele>86.0</ele><time>2026-05-04T04:16:23Z</time></trkpt><trkpt lat="-35.594482969318" lon="144.19081122465866"><ele>86.5</ele><time>2026-05-04T04:16:24Z</time></trkpt><trkpt lat="-35.594438891524966" lon="144.1907404275348"><ele>87.0</ele><time>2026-05-04T04:16:27Z</time></trkpt><trkpt lat="-35.594434054107666" lon="144.190608026054"><ele>87.5</ele><time>2026-05-04T04:16:29Z</time></trkpt><trkpt lat="-35.59444219348936" lon="144.19069866222785"><ele>88.0</ele><time>2026-05-04T04:20:12Z</time></trkpt><trkpt lat="-35.594458227187374" lon="144.19082089835035"><ele>88.5</ele><time>2026-05-04T04:20:15Z</time></trkpt><trkpt lat="-35.59441916912615" lon="144.19088318974073"><ele>89.0</ele><time>2026-05-04T04:20:20Z</time></trkpt><trkpt lat="-35.594349113530434" lon="144.19092208124792"><ele>89.28571428571428</ele><time>2026-05-04T04:20:22Z</time></trkpt><trkpt lat="-35.59428605987864" lon="144.19094297167044"><ele>89.57142857142857</ele><time>2026-05-04T04:20:24Z</time></trkpt><trkpt lat="-35.59428822687245" lon="144.19086301455727"><ele>89.85714285714286</ele><time>2026-05-04T04:20:30Z</time></trkpt><trkpt lat="-35.594225325540215" lon="144.19086799218772"><ele>90.14285714285714</ele><time>2026-05-04T04:20:34Z</time></trkpt><trkpt lat="-35.594159962032386" lon="144.1908767379051"><ele>90.42857142857143</ele><time>2026-05-04T04:20:36Z</time></trkpt><trkpt lat="-35.594065828773616" lon="144.19088269379714"><ele>90.71428571428571</ele><time>2026-05-04T04:20:38Z</time></trkpt><trkpt lat="-35.593982007461456" lon="144.19082853519834"><ele>91.0</ele><time>2026-05-04T04:20:40Z</time></trkpt><trkpt lat="-35.59393414930777" lon="144.19076298158632"><ele>91.0</ele><time>2026-05-04T04:20:41Z</time></trkpt><trkpt lat="-35.593880121709525" lon="144.19071149621783"><ele>91.0</ele><time>2026-05-04T04:20:42Z</time></trkpt><trkpt lat="-35.59383153719632" lon="144.19062013246855"><ele>91.0</ele><time>2026-05-04T04:20:44Z</time></trkpt><trkpt lat="-35.59382205955364" lon="144.19054214931268"><ele>91.0</ele><time>2026-05-04T04:20:53Z</time></trkpt><trkpt lat="-35.59376200913977" lon="144.1904762524596"><ele>91.0</ele><time>2026-05-04T04:20:59Z</time></trkpt><trkpt lat="-35.59366523677858" lon="144.19043616768087"><ele>91.0</ele><time>2026-05-04T04:21:02Z</time></trkpt><trkpt lat="-35.59357329647131" lon="144.19044093870468"><ele>91.0</ele><time>2026-05-04T04:21:04Z</time></trkpt><trkpt lat="-35.59351252466285" lon="144.19047914909726"><ele>91.0</ele><time>2026-05-04T04:21:06Z</time></trkpt><trkpt lat="-35.593443109267" lon="144.19044672872354"><ele>91.0</ele><time>2026-05-04T04:21:08Z</time></trkpt><trkpt lat="-35.59337949160294" lon="144.19044328895382"><ele>91.0</ele><time>2026-05-04T04:21:11Z</time></trkpt><trkpt lat="-35.59271940335427" lon="144.1902760147683"><ele>91.0</ele><time>2026-05-04T04:21:13Z</time></trkpt><trkpt lat="-35.592639042988374" lon="144.19031565862866"><ele>91.0</ele><time>2026-05-04T04:21:14Z</time></trkpt><trkpt lat="-35.59258387290975" lon="144.19035588410912"><ele>91.0</ele><time>2026-05-04T04:21:15Z</time></trkpt><trkpt lat="-35.59256043409952" lon="144.19045515029157"><ele>91.0</ele><time>2026-05-04T04:21:16Z</time></trkpt><trkpt lat="-35.59250902597813" lon="144.1905145361035"><ele>91.0</ele><time>2026-05-04T04:21:17Z</time></trkpt><trkpt lat="-35.59251741463526" lon="144.19063154237605"><ele>91.0</ele><time>2026-05-04T04:21:19Z</time></trkpt><trkpt lat="-35.59243370949485" lon="144.190637047539"><ele>91.0</ele><time>2026-05-04T04:21:21Z</time></trkpt><trkpt lat="-35.59230619612068" lon="144.1906299933928"><ele>91.0</ele><time>2026-05-04T04:21:23Z</time></trkpt><trkpt lat="-35.59221976425275" lon="144.19061164099654"><ele>91.0</ele><time>2026-05-04T04:21:24Z</time></trkpt><trkpt lat="-35.591943356580174" lon="144.1906971075814"><ele>90.5</ele><time>2026-05-04T04:21:26Z</time></trkpt><trkpt lat="-35.59180922167189" lon="144.1907261094876"><ele>90.0</ele><time>2026-05-04T04:21:27Z</time></trkpt><trkpt lat="-35.591696552150445" lon="144.19076152960292"><ele>89.5</ele><time>2026-05-04T04:21:28Z</time></trkpt><trkpt lat="-35.5915716458032" lon="144.1908208004615"><ele>89.0</ele><time>2026-05-04T04:21:29Z</time></trkpt><trkpt lat="-35.591442023808355" lon="144.19087106904453"><ele>89.0</ele><time>2026-05-04T04:21:30Z</time></trkpt><trkpt lat="-35.591300821376045" lon="144.19090867738274"><ele>89.0</ele><time>2026-05-04T04:21:31Z</time></trkpt><trkpt lat="-35.59119136429775" lon="144.1909487325751"><ele>89.0</ele><time>2026-05-04T04:21:32Z</time></trkpt><trkpt lat="-35.59105667072844" lon="144.19098439802545"><ele>89.0</ele><time>2026-05-04T04:21:33Z</time></trkpt><trkpt lat="-35.59091138813414" lon="144.19102603433268"><ele>89.25</ele><time>2026-05-04T04:21:34Z</time></trkpt><trkpt lat="-35.590752002762464" lon="144.19105453612"><ele>89.5</ele><time>2026-05-04T04:21:35Z</time></trkpt><trkpt lat="-35.59062978064419" lon="144.1910959913338"><ele>89.75</ele><time>2026-05-04T04:21:36Z</time></trkpt><trkpt lat="-35.59049879802846" lon="144.1911008779282"><ele>90.0</ele><time>2026-05-04T04:21:37Z</time></trkpt><trkpt lat="-35.59035600356598" lon="144.19110106903082"><ele>89.5</ele><time>2026-05-04T04:21:38Z</time></trkpt><trkpt lat="-35.59023468111223" lon="144.19110825729035"><ele>89.0</ele><time>2026-05-04T04:21:39Z</time></trkpt><trkpt lat="-35.590120261897255" lon="144.19110126030137"><ele>88.5</ele><time>2026-05-04T04:21:40Z</time></trkpt><trkpt lat="-35.59004963441774" lon="144.19109087044163"><ele>88.0</ele><time>2026-05-04T04:21:41Z</time></trkpt><trkpt lat="-35.5899769938466" lon="144.1910978322412"><ele>87.5</ele><time>2026-05-04T04:21:42Z</time></trkpt><trkpt lat="-35.589913670470565" lon="144.19110223333863"><ele>87.0</ele><time>2026-05-04T04:21:43Z</time></trkpt><trkpt lat="-35.58983041346361" lon="144.1910665828009"><ele>87.0</ele><time>2026-05-04T04:21:44Z</time></trkpt><trkpt lat="-35.58976943227774" lon="144.19102353860674"><ele>87.0</ele><time>2026-05-04T04:21:45Z</time></trkpt><trkpt lat="-35.58970907142598" lon="144.19099165007225"><ele>87.0</ele><time>2026-05-04T04:21:46Z</time></trkpt><trkpt lat="-35.58965089460649" lon="144.1909230292328"><ele>87.0</ele><time>2026-05-04T04:21:48Z</time></trkpt><trkpt lat="-35.58961882156271" lon="144.19074965247566"><ele>87.0</ele><time>2026-05-04T04:21:50Z</time></trkpt><trkpt lat="-35.58958027487985" lon="144.19064556448913"><ele>86.5</ele><time>2026-05-04T04:21:51Z</time></trkpt><trkpt lat="-35.58957119630951" lon="144.19050292738373"><ele>86.0</ele><time>2026-05-04T04:21:53Z</time></trkpt><trkpt lat="-35.589650995079616" lon="144.1903773857556"><ele>85.5</ele><time>2026-05-04T04:21:54Z</time></trkpt><trkpt lat="-35.58968660633032" lon="144.19024361207067"><ele>85.0</ele><time>2026-05-04T04:21:55Z</time></trkpt><trkpt lat="-35.58973207171272" lon="144.19010006865724"><ele>85.0</ele><time>2026-05-04T04:21:56Z</time></trkpt><trkpt lat="-35.58977429566938" lon="144.19001634711037"><ele>85.0</ele><time>2026-05-04T04:21:57Z</time></trkpt><trkpt lat="-35.58984246508243" lon="144.18993045341168"><ele>85.0</ele><time>2026-05-04T04:21:58Z</time></trkpt><trkpt lat="-35.58989950017114" lon="144.18979313486125"><ele>85.0</ele><time>2026-05-04T04:21:59Z</time></trkpt><trkpt lat="-35.58997191146181" lon="144.18967703409936"><ele>85.0</ele><time>2026-05-04T04:22:00Z</time></trkpt><trkpt lat="-35.5900346257005" lon="144.18957184923985"><ele>84.8</ele><time>2026-05-04T04:22:01Z</time></trkpt><trkpt lat="-35.590087225953404" lon="144.18946825038893"><ele>84.6</ele><time>2026-05-04T04:22:02Z</time></trkpt><trkpt lat="-35.59012635454496" lon="144.18939314310333"><ele>84.4</ele><time>2026-05-04T04:22:03Z</time></trkpt><trkpt lat="-35.59016635137057" lon="144.18927763608744"><ele>84.2</ele><time>2026-05-04T04:22:05Z</time></trkpt><trkpt lat="-35.59013877577251" lon="144.18917504778082"><ele>84.0</ele><time>2026-05-04T04:22:07Z</time></trkpt><trkpt lat="-35.59017579261937" lon="144.1890454748602"><ele>84.0</ele><time>2026-05-04T04:22:09Z</time></trkpt><trkpt lat="-35.59020424170524" lon="144.18891735690255"><ele>84.0</ele><time>2026-05-04T04:22:13Z</time></trkpt><trkpt lat="-35.59027102364274" lon="144.18886981186265"><ele>84.0</ele><time>2026-05-04T04:22:15Z</time></trkpt><trkpt lat="-35.590287359893516" lon="144.1887755330735"><ele>84.0</ele><time>2026-05-04T04:22:17Z</time></trkpt><trkpt lat="-35.590313032546526" lon="144.18866086588687"><ele>84.0</ele><time>2026-05-04T04:22:18Z</time></trkpt><trkpt lat="-35.590346697009316" lon="144.18848276954762"><ele>84.25</ele><time>2026-05-04T04:22:19Z</time></trkpt><trkpt lat="-35.59038262654776" lon="144.18834258335062"><ele>84.5</ele><time>2026-05-04T04:22:20Z</time></trkpt><trkpt lat="-35.59044786726982" lon="144.18821692720226"><ele>84.75</ele><time>2026-05-04T04:22:21Z</time></trkpt><trkpt lat="-35.590490769325655" lon="144.18803583864056"><ele>85.0</ele><time>2026-05-04T04:22:22Z</time></trkpt><trkpt lat="-35.590541448763524" lon="144.187879214386"><ele>85.0</ele><time>2026-05-04T04:22:23Z</time></trkpt><trkpt lat="-35.59058217701111" lon="144.18777860720473"><ele>85.0</ele><time>2026-05-04T04:22:24Z</time></trkpt><trkpt lat="-35.59055843995269" lon="144.1876885359439"><ele>85.0</ele><time>2026-05-04T04:22:26Z</time></trkpt><trkpt lat="-35.590507942896274" lon="144.18763141445123"><ele>85.0</ele><time>2026-05-04T04:22:29Z</time></trkpt><trkpt lat="-35.59051564727248" lon="144.1875512097757"><ele>85.0</ele><time>2026-05-04T04:22:33Z</time></trkpt><trkpt lat="-35.59057483182228" lon="144.1875850267851"><ele>85.0</ele><time>2026-05-04T04:22:39Z</time></trkpt><trkpt lat="-35.59057290617413" lon="144.18750679572912"><ele>85.0</ele><time>2026-05-04T04:22:46Z</time></trkpt><trkpt lat="-35.59062341031022" lon="144.18745647396634"><ele>85.0</ele><time>2026-05-04T04:22:49Z</time></trkpt><trkpt lat="-35.5907003375814" lon="144.18743629796077"><ele>85.0</ele><time>2026-05-04T04:22:52Z</time></trkpt><trkpt lat="-35.59075771386743" lon="144.1873817705652"><ele>85.0</ele><time>2026-05-04T04:23:11Z</time></trkpt><trkpt lat="-35.59085627134274" lon="144.1874059565556"><ele>85.0</ele><time>2026-05-04T04:23:13Z</time></trkpt><trkpt lat="-35.59093999027997" lon="144.18736230504683"><ele>85.0</ele><time>2026-05-04T04:23:14Z</time></trkpt><trkpt lat="-35.59102586793228" lon="144.18732308148589"><ele>85.0</ele><time>2026-05-04T04:23:16Z</time></trkpt><trkpt lat="-35.59112427991414" lon="144.18738805891792"><ele>85.66666666666666</ele><time>2026-05-04T04:23:18Z</time></trkpt><trkpt lat="-35.59120158646662" lon="144.18744959526157"><ele>86.33333333333333</ele><time>2026-05-04T04:23:21Z</time></trkpt><trkpt lat="-35.59126825931786" lon="144.18742442913063"><ele>87.0</ele><time>2026-05-04T04:23:24Z</time></trkpt><trkpt lat="-35.59133480905179" lon="144.18731480776788"><ele>87.66666666666667</ele><time>2026-05-04T04:23:26Z</time></trkpt><trkpt lat="-35.59139618493403" lon="144.18724308813196"><ele>88.33333333333334</ele><time>2026-05-04T04:23:27Z</time></trkpt><trkpt lat="-35.59146152637707" lon="144.1872376041973"><ele>89.0</ele><time>2026-05-04T04:23:29Z</time></trkpt><trkpt lat="-35.59152060881527" lon="144.18728404533442"><ele>89.0</ele><time>2026-05-04T04:23:37Z</time></trkpt><trkpt lat="-35.59160964070658" lon="144.18725695815857"><ele>89.0</ele><time>2026-05-04T04:23:40Z</time></trkpt><trkpt lat="-35.59164752086178" lon="144.18718734211862"><ele>89.0</ele><time>2026-05-04T04:23:41Z</time></trkpt><trkpt lat="-35.59169031629284" lon="144.18707759446045"><ele>89.0</ele><time>2026-05-04T04:23:43Z</time></trkpt><trkpt lat="-35.59174458386158" lon="144.18701344707404"><ele>89.0</ele><time>2026-05-04T04:23:45Z</time></trkpt><trkpt lat="-35.59183918844389" lon="144.18702699167534"><ele>89.0</ele><time>2026-05-04T04:23:47Z</time></trkpt><trkpt lat="-35.59188149200845" lon="144.18696318799007"><ele>88.99999999999999</ele><time>2026-05-04T04:23:49Z</time></trkpt><trkpt lat="-35.59185297259043" lon="144.18688502626074"><ele>89.0</ele><time>2026-05-04T04:23:50Z</time></trkpt><trkpt lat="-35.591873377082045" lon="144.1867864785599"><ele>89.0</ele><time>2026-05-04T04:23:52Z</time></trkpt><trkpt lat="-35.5919036566824" lon="144.1867040043768"><ele>89.0</ele><time>2026-05-04T04:23:54Z</time></trkpt><trkpt lat="-35.5918487352054" lon="144.1866564293265"><ele>89.0</ele><time>2026-05-04T04:23:57Z</time></trkpt><trkpt lat="-35.59181890574496" lon="144.18656997670365"><ele>88.99999999999999</ele><time>2026-05-04T04:24:00Z</time></trkpt><trkpt lat="-35.59184009848863" lon="144.18664866976505"><ele>89.0</ele><time>2026-05-04T04:24:04Z</time></trkpt><trkpt lat="-35.59188391586087" lon="144.18670780746558"><ele>89.0</ele><time>2026-05-04T04:24:06Z</time></trkpt><trkpt lat="-35.591874108289126" lon="144.1868028703349"><ele>89.0</ele><time>2026-05-04T04:24:09Z</time></trkpt><trkpt lat="-35.59185062350927" lon="144.18689903414307"><ele>89.0</ele><time>2026-05-04T04:24:11Z</time></trkpt><trkpt lat="-35.59183383356438" lon="144.1870065891884"><ele>89.0</ele><time>2026-05-04T04:24:13Z</time></trkpt><trkpt lat="-35.591818885040226" lon="144.18708899143192"><ele>89.0</ele><time>2026-05-04T04:24:15Z</time></trkpt><trkpt lat="-35.59180579340687" lon="144.18717264687973"><ele>89.0</ele><time>2026-05-04T04:24:17Z</time></trkpt><trkpt lat="-35.591806263638226" lon="144.1872687025212"><ele>89.0</ele><time>2026-05-04T04:24:19Z</time></trkpt><trkpt lat="-35.59179212381975" lon="144.1873642740097"><ele>89.0</ele><time>2026-05-04T04:24:28Z</time></trkpt><trkpt lat="-35.59176007662343" lon="144.18745183895288"><ele>89.0</ele><time>2026-05-04T04:24:30Z</time></trkpt><trkpt lat="-35.59167073611367" lon="144.1874504620077"><ele>89.0</ele><time>2026-05-04T04:24:35Z</time></trkpt><trkpt lat="-35.59158881097321" lon="144.18745989942278"><ele>89.0</ele><time>2026-05-04T04:24:37Z</time></trkpt><trkpt lat="-35.59153445031004" lon="144.18741399749194"><ele>89.0</ele><time>2026-05-04T04:24:41Z</time></trkpt><trkpt lat="-35.59152005510056" lon="144.18732644890866"><ele>89.0</ele><time>2026-05-04T04:24:44Z</time></trkpt><trkpt lat="-35.59145157285265" lon="144.18725273584616"><ele>89.0</ele><time>2026-05-04T04:24:51Z</time></trkpt><trkpt lat="-35.591385533791396" lon="144.18730646350437"><ele>89.0</ele><time>2026-05-04T04:24:55Z</time></trkpt><trkpt lat="-35.59131616814882" lon="144.18737165298856"><ele>89.0</ele><time>2026-05-04T04:24:58Z</time></trkpt><trkpt lat="-35.591264634887324" lon="144.18743328113914"><ele>89.0</ele><time>2026-05-04T04:25:01Z</time></trkpt><trkpt lat="-35.59127472082805" lon="144.18751431400622"><ele>89.0</ele><time>2026-05-04T04:25:04Z</time></trkpt><trkpt lat="-35.591292828857036" lon="144.18761003988604"><ele>89.0</ele><time>2026-05-04T04:25:07Z</time></trkpt><trkpt lat="-35.591335735430974" lon="144.18766715051984"><ele>89.0</ele><time>2026-05-04T04:25:09Z</time></trkpt><trkpt lat="-35.59137956271439" lon="144.1877427602015"><ele>89.0</ele><time>2026-05-04T04:25:12Z</time></trkpt><trkpt lat="-35.59145543916938" lon="144.18775311372343"><ele>89.0</ele><time>2026-05-04T04:25:15Z</time></trkpt><trkpt lat="-35.59136764872617" lon="144.18777041112682"><ele>89.0</ele><time>2026-05-04T04:25:20Z</time></trkpt><trkpt lat="-35.591296968891825" lon="144.18775251411532"><ele>89.0</ele><time>2026-05-04T04:25:23Z</time></trkpt><trkpt lat="-35.59124720343051" lon="144.18763677376694"><ele>89.0</ele><time>2026-05-04T04:25:25Z</time></trkpt><trkpt lat="-35.59121134389664" lon="144.18753810957833"><ele>89.0</ele><time>2026-05-04T04:25:27Z</time></trkpt><trkpt lat="-35.59118651065049" lon="144.18745377457697"><ele>89.0</ele><time>2026-05-04T04:25:29Z</time></trkpt><trkpt lat="-35.59113565419654" lon="144.18738021470557"><ele>89.0</ele><time>2026-05-04T04:25:32Z</time></trkpt><trkpt lat="-35.59107538289787" lon="144.18735483682073"><ele>89.0</ele><time>2026-05-04T04:25:34Z</time></trkpt><trkpt lat="-35.59096388154243" lon="144.18732536378835"><ele>89.0</ele><time>2026-05-04T04:25:36Z</time></trkpt><trkpt lat="-35.59089965320738" lon="144.18732469067245"><ele>88.2</ele><time>2026-05-04T04:25:37Z</time></trkpt><trkpt lat="-35.59081418852145" lon="144.18743540773784"><ele>87.4</ele><time>2026-05-04T04:25:39Z</time></trkpt><trkpt lat="-35.590791203498256" lon="144.18752889008405"><ele>86.6</ele><time>2026-05-04T04:25:40Z</time></trkpt><trkpt lat="-35.59078787632702" lon="144.1876342873548"><ele>85.8</ele><time>2026-05-04T04:25:41Z</time></trkpt><trkpt lat="-35.59072821833726" lon="144.18774774373844"><ele>85.0</ele><time>2026-05-04T04:25:43Z</time></trkpt><trkpt lat="-35.590661211193044" lon="144.1878144642977"><ele>85.0</ele><time>2026-05-04T04:25:45Z</time></trkpt><trkpt lat="-35.59062285916521" lon="144.18795857406357"><ele>85.0</ele><time>2026-05-04T04:25:47Z</time></trkpt><trkpt lat="-35.59059375382632" lon="144.18803127221014"><ele>85.0</ele><time>2026-05-04T04:25:48Z</time></trkpt><trkpt lat="-35.59053866634586" lon="144.1881386380909"><ele>85.0</ele><time>2026-05-04T04:25:50Z</time></trkpt><trkpt lat="-35.590492741457986" lon="144.1882348704524"><ele>85.0</ele><time>2026-05-04T04:25:52Z</time></trkpt><trkpt lat="-35.59046704242719" lon="144.18831686149238"><ele>85.0</ele><time>2026-05-04T04:25:54Z</time></trkpt><trkpt lat="-35.5904070044297" lon="144.18838043028867"><ele>85.0</ele><time>2026-05-04T04:25:57Z</time></trkpt><trkpt lat="-35.590428540918445" lon="144.18827058786576"><ele>85.0</ele><time>2026-05-04T04:26:00Z</time></trkpt><trkpt lat="-35.590501572342006" lon="144.1881562929384"><ele>85.0</ele><time>2026-05-04T04:26:02Z</time></trkpt><trkpt lat="-35.59052677086617" lon="144.18808415752318"><ele>85.0</ele><time>2026-05-04T04:26:04Z</time></trkpt><trkpt lat="-35.59055177614531" lon="144.18799543296757"><ele>85.0</ele><time>2026-05-04T04:26:06Z</time></trkpt><trkpt lat="-35.590631971641706" lon="144.18798926465018"><ele>85.0</ele><time>2026-05-04T04:26:09Z</time></trkpt><trkpt lat="-35.59074241556276" lon="144.18799858803612"><ele>85.0</ele><time>2026-05-04T04:26:11Z</time></trkpt><trkpt lat="-35.5907731271231" lon="144.18791406513205"><ele>85.0</ele><time>2026-05-04T04:26:14Z</time></trkpt><trkpt lat="-35.590768902881" lon="144.18782829861567"><ele>85.0</ele><time>2026-05-04T04:26:29Z</time></trkpt><trkpt lat="-35.59072606683847" lon="144.1877643557851"><ele>85.0</ele><time>2026-05-04T04:26:34Z</time></trkpt><trkpt lat="-35.59063192162952" lon="144.18769378063624"><ele>85.0</ele><time>2026-05-04T04:26:36Z</time></trkpt><trkpt lat="-35.590584043007716" lon="144.18764296580835"><ele>85.0</ele><time>2026-05-04T04:26:37Z</time></trkpt><trkpt lat="-35.59055100542463" lon="144.1875561547611"><ele>85.0</ele><time>2026-05-04T04:26:40Z</time></trkpt><trkpt lat="-35.59049290715142" lon="144.18748979724282"><ele>85.0</ele><time>2026-05-04T04:26:45Z</time></trkpt><trkpt lat="-35.59041497299287" lon="144.187512479045"><ele>85.0</ele><time>2026-05-04T04:26:48Z</time></trkpt><trkpt lat="-35.590383813917605" lon="144.18759224897485"><ele>85.0</ele><time>2026-05-04T04:26:50Z</time></trkpt><trkpt lat="-35.59028304378972" lon="144.18767135791683"><ele>85.0</ele><time>2026-05-04T04:26:53Z</time></trkpt><trkpt lat="-35.59020778126416" lon="144.18769017364852"><ele>85.0</ele><time>2026-05-04T04:26:54Z</time></trkpt><trkpt lat="-35.59017162184214" lon="144.1877556766448"><ele>85.0</ele><time>2026-05-04T04:26:56Z</time></trkpt><trkpt lat="-35.590302148176946" lon="144.1877246688794"><ele>85.0</ele><time>2026-05-04T04:27:00Z</time></trkpt><trkpt lat="-35.590406688368034" lon="144.1877094372399"><ele>85.0</ele><time>2026-05-04T04:27:02Z</time></trkpt><trkpt lat="-35.59046185462191" lon="144.18765269321833"><ele>85.0</ele><time>2026-05-04T04:27:04Z</time></trkpt><trkpt lat="-35.590495581536395" lon="144.18756222218772"><ele>85.0</ele><time>2026-05-04T04:27:06Z</time></trkpt><trkpt lat="-35.59054027402534" lon="144.18750665510365"><ele>85.0</ele><time>2026-05-04T04:27:09Z</time></trkpt><trkpt lat="-35.59060818786939" lon="144.18746658470783"><ele>85.0</ele><time>2026-05-04T04:27:11Z</time></trkpt><trkpt lat="-35.590672975832454" lon="144.18743107444072"><ele>85.0</ele><time>2026-05-04T04:27:14Z</time></trkpt><trkpt lat="-35.59069905554603" lon="144.18735520392778"><ele>85.0</ele><time>2026-05-04T04:27:17Z</time></trkpt><trkpt lat="-35.590651913894575" lon="144.18729744706715"><ele>85.0</ele><time>2026-05-04T04:27:20Z</time></trkpt><trkpt lat="-35.5905479576962" lon="144.18730799137379"><ele>85.0</ele><time>2026-05-04T04:27:22Z</time></trkpt><trkpt lat="-35.59044923707556" lon="144.18727182038208"><ele>84.83333333333333</ele><time>2026-05-04T04:27:24Z</time></trkpt><trkpt lat="-35.590360561375874" lon="144.18726024464937"><ele>84.66666666666666</ele><time>2026-05-04T04:27:26Z</time></trkpt><trkpt lat="-35.59029106498207" lon="144.18723979961302"><ele>84.5</ele><time>2026-05-04T04:27:28Z</time></trkpt><trkpt lat="-35.590266781961994" lon="144.18716696194775"><ele>84.33333333333333</ele><time>2026-05-04T04:27:30Z</time></trkpt><trkpt lat="-35.59022310821243" lon="144.1872381924529"><ele>84.16666666666667</ele><time>2026-05-04T04:27:35Z</time></trkpt><trkpt lat="-35.59030705060356" lon="144.18725903442967"><ele>84.0</ele><time>2026-05-04T04:27:37Z</time></trkpt><trkpt lat="-35.590384554337035" lon="144.18725723499534"><ele>84.0</ele><time>2026-05-04T04:27:38Z</time></trkpt><trkpt lat="-35.590456368279284" lon="144.18727442135832"><ele>84.0</ele><time>2026-05-04T04:27:39Z</time></trkpt><trkpt lat="-35.590533890734335" lon="144.1872988291787"><ele>84.0</ele><time>2026-05-04T04:27:40Z</time></trkpt><trkpt lat="-35.590596876711835" lon="144.18733372402573"><ele>84.0</ele><time>2026-05-04T04:27:41Z</time></trkpt><trkpt lat="-35.590639236467865" lon="144.18743066662765"><ele>84.0</ele><time>2026-05-04T04:27:43Z</time></trkpt><trkpt lat="-35.59071201693708" lon="144.18743364516197"><ele>84.0</ele><time>2026-05-04T04:27:46Z</time></trkpt><trkpt lat="-35.5907595202174" lon="144.1873826628313"><ele>84.0</ele><time>2026-05-04T04:27:49Z</time></trkpt><trkpt lat="-35.59085611661799" lon="144.18736993105884"><ele>84.0</ele><time>2026-05-04T04:27:52Z</time></trkpt><trkpt lat="-35.59095252636293" lon="144.18732494540728"><ele>84.0</ele><time>2026-05-04T04:27:54Z</time></trkpt><trkpt lat="-35.591059362488195" lon="144.18733494546186"><ele>84.0</ele><time>2026-05-04T04:27:56Z</time></trkpt><trkpt lat="-35.59115706043682" lon="144.18738487294857"><ele>84.0</ele><time>2026-05-04T04:27:58Z</time></trkpt><trkpt lat="-35.59123609132883" lon="144.18741561913262"><ele>84.0</ele><time>2026-05-04T04:28:01Z</time></trkpt><trkpt lat="-35.59131331697575" lon="144.18735826185485"><ele>84.83333333333333</ele><time>2026-05-04T04:28:03Z</time></trkpt><trkpt lat="-35.59136397822112" lon="144.18728324197642"><ele>85.66666666666667</ele><time>2026-05-04T04:28:04Z</time></trkpt><trkpt lat="-35.59141766706572" lon="144.1872386128231"><ele>86.5</ele><time>2026-05-04T04:28:05Z</time></trkpt><trkpt lat="-35.59149549924256" lon="144.18725926795136"><ele>87.33333333333334</ele><time>2026-05-04T04:28:07Z</time></trkpt><trkpt lat="-35.59159566871586" lon="144.1872664490288"><ele>88.16666666666667</ele><time>2026-05-04T04:28:09Z</time></trkpt><trkpt lat="-35.59164871136861" lon="144.18717199923393"><ele>89.0</ele><time>2026-05-04T04:28:11Z</time></trkpt><trkpt lat="-35.591697567501114" lon="144.18707825722086"><ele>89.0</ele><time>2026-05-04T04:28:13Z</time></trkpt><trkpt lat="-35.59177600115385" lon="144.1869776987721"><ele>89.0</ele><time>2026-05-04T04:28:15Z</time></trkpt><trkpt lat="-35.59185664659741" lon="144.1869097124327"><ele>89.0</ele><time>2026-05-04T04:28:17Z</time></trkpt><trkpt lat="-35.59187923985982" lon="144.18681868542487"><ele>89.0</ele><time>2026-05-04T04:28:19Z</time></trkpt><trkpt lat="-35.59186686687406" lon="144.18669827876462"><ele>89.0</ele><time>2026-05-04T04:28:22Z</time></trkpt><trkpt lat="-35.59190010402913" lon="144.1867717048784"><ele>89.0</ele><time>2026-05-04T04:28:29Z</time></trkpt><trkpt lat="-35.59200629527357" lon="144.186809737747"><ele>89.0</ele><time>2026-05-04T04:28:30Z</time></trkpt><trkpt lat="-35.59212845953056" lon="144.18680934593348"><ele>89.0</ele><time>2026-05-04T04:28:32Z</time></trkpt><trkpt lat="-35.592191245541045" lon="144.18678304187213"><ele>89.0</ele><time>2026-05-04T04:28:33Z</time></trkpt><trkpt lat="-35.59221163018279" lon="144.18666377501899"><ele>89.0</ele><time>2026-05-04T04:28:35Z</time></trkpt><trkpt lat="-35.5922524576722" lon="144.18656387956833"><ele>90.2</ele><time>2026-05-04T04:28:37Z</time></trkpt><trkpt lat="-35.5923166990156" lon="144.1865677938986"><ele>91.4</ele><time>2026-05-04T04:28:40Z</time></trkpt><trkpt lat="-35.59242822132205" lon="144.18659335314177"><ele>92.6</ele><time>2026-05-04T04:28:42Z</time></trkpt><trkpt lat="-35.592543327345595" lon="144.18657959185916"><ele>93.8</ele><time>2026-05-04T04:28:44Z</time></trkpt><trkpt lat="-35.592606692225665" lon="144.18656508489946"><ele>95.0</ele><time>2026-05-04T04:28:46Z</time></trkpt><trkpt lat="-35.59270840679548" lon="144.18654561582665"><ele>95.0</ele><time>2026-05-04T04:28:50Z</time></trkpt><trkpt lat="-35.592773638528904" lon="144.18651902741652"><ele>95.0</ele><time>2026-05-04T04:28:53Z</time></trkpt><trkpt lat="-35.592775832429346" lon="144.18643018057512"><ele>95.0</ele><time>2026-05-04T04:28:55Z</time></trkpt><trkpt lat="-35.59281036510867" lon="144.18636189305832"><ele>95.0</ele><time>2026-05-04T04:28:59Z</time></trkpt><trkpt lat="-35.592859980491205" lon="144.18626757453654"><ele>95.0</ele><time>2026-05-04T04:29:02Z</time></trkpt><trkpt lat="-35.592925759677996" lon="144.186186493008"><ele>95.0</ele><time>2026-05-04T04:29:04Z</time></trkpt><trkpt lat="-35.593042150719725" lon="144.18613059763533"><ele>95.0</ele><time>2026-05-04T04:29:06Z</time></trkpt><trkpt lat="-35.59311911976206" lon="144.18606847935902"><ele>95.0</ele><time>2026-05-04T04:29:07Z</time></trkpt><trkpt lat="-35.59321733889987" lon="144.1860576361798"><ele>95.0</ele><time>2026-05-04T04:29:08Z</time></trkpt><trkpt lat="-35.59329381508133" lon="144.1860435687302"><ele>95.0</ele><time>2026-05-04T04:29:09Z</time></trkpt><trkpt lat="-35.59339817544592" lon="144.1860491460785"><ele>95.0</ele><time>2026-05-04T04:29:11Z</time></trkpt><trkpt lat="-35.59349042668432" lon="144.18603651994013"><ele>95.0</ele><time>2026-05-04T04:29:14Z</time></trkpt><trkpt lat="-35.5935719276882" lon="144.18606359973955"><ele>95.0</ele><time>2026-05-04T04:29:16Z</time></trkpt><trkpt lat="-35.59363544426307" lon="144.18613006986533"><ele>95.0</ele><time>2026-05-04T04:29:18Z</time></trkpt><trkpt lat="-35.59368886114449" lon="144.18620728416377"><ele>95.0</ele><time>2026-05-04T04:29:25Z</time></trkpt><trkpt lat="-35.593731809622724" lon="144.18628486376167"><ele>95.0</ele><time>2026-05-04T04:29:28Z</time></trkpt><trkpt lat="-35.593782684512085" lon="144.18634833214045"><ele>95.0</ele><time>2026-05-04T04:29:31Z</time></trkpt><trkpt lat="-35.59383829617932" lon="144.18630247754976"><ele>94.33333333333334</ele><time>2026-05-04T04:29:35Z</time></trkpt><trkpt lat="-35.593913125885535" lon="144.1863151142006"><ele>93.66666666666667</ele><time>2026-05-04T04:29:39Z</time></trkpt><trkpt lat="-35.593983396402535" lon="144.18633102250104"><ele>93.0</ele><time>2026-05-04T04:29:41Z</time></trkpt><trkpt lat="-35.59405293640296" lon="144.18634231016236"><ele>92.33333333333333</ele><time>2026-05-04T04:29:43Z</time></trkpt><trkpt lat="-35.594129439885286" lon="144.18633263698706"><ele>91.66666666666666</ele><time>2026-05-04T04:29:46Z</time></trkpt><trkpt lat="-35.59422322881805" lon="144.18631936918464"><ele>91.0</ele><time>2026-05-04T04:29:49Z</time></trkpt><trkpt lat="-35.59429417020763" lon="144.18631202610854"><ele>91.0</ele><time>2026-05-04T04:29:51Z</time></trkpt><trkpt lat="-35.594369816407124" lon="144.18630675706945"><ele>91.0</ele><time>2026-05-04T04:29:54Z</time></trkpt><trkpt lat="-35.59447511086969" lon="144.18625480098063"><ele>91.0</ele><time>2026-05-04T04:29:56Z</time></trkpt><trkpt lat="-35.59457039263145" lon="144.18620209692176"><ele>91.0</ele><time>2026-05-04T04:29:58Z</time></trkpt><trkpt lat="-35.59466828468295" lon="144.18617895924191"><ele>91.0</ele><time>2026-05-04T04:30:00Z</time></trkpt><trkpt lat="-35.59474524961181" lon="144.18617740265967"><ele>90.33333333333333</ele><time>2026-05-04T04:30:02Z</time></trkpt><trkpt lat="-35.59483731447309" lon="144.18615409332222"><ele>89.66666666666666</ele><time>2026-05-04T04:30:04Z</time></trkpt><trkpt lat="-35.59488285081553" lon="144.18609736127934"><ele>89.0</ele><time>2026-05-04T04:30:05Z</time></trkpt><trkpt lat="-35.594888348732795" lon="144.18600770799628"><ele>88.33333333333333</ele><time>2026-05-04T04:30:07Z</time></trkpt><trkpt lat="-35.59481416974741" lon="144.18592265998447"><ele>87.66666666666667</ele><time>2026-05-04T04:30:09Z</time></trkpt><trkpt lat="-35.59476453963082" lon="144.1858621101728"><ele>87.0</ele><time>2026-05-04T04:30:11Z</time></trkpt><trkpt lat="-35.594695608802084" lon="144.1858364733779"><ele>87.0</ele><time>2026-05-04T04:30:14Z</time></trkpt><trkpt lat="-35.59461335207047" lon="144.18581069468627"><ele>87.0</ele><time>2026-05-04T04:30:16Z</time></trkpt><trkpt lat="-35.59454662431803" lon="144.18576253665088"><ele>87.0</ele><time>2026-05-04T04:30:17Z</time></trkpt><trkpt lat="-35.5945288687782" lon="144.18567477105375"><ele>87.0</ele><time>2026-05-04T04:30:19Z</time></trkpt><trkpt lat="-35.5945467127349" lon="144.18554791262488"><ele>87.0</ele><time>2026-05-04T04:30:21Z</time></trkpt><trkpt lat="-35.59448252674229" lon="144.18548586127528"><ele>87.0</ele><time>2026-05-04T04:30:23Z</time></trkpt><trkpt lat="-35.59440404137354" lon="144.18550217825066"><ele>87.16666666666667</ele><time>2026-05-04T04:30:24Z</time></trkpt><trkpt lat="-35.5943316159085" lon="144.1854757541872"><ele>87.33333333333333</ele><time>2026-05-04T04:30:25Z</time></trkpt><trkpt lat="-35.5942683629969" lon="144.1854612011225"><ele>87.5</ele><time>2026-05-04T04:30:26Z</time></trkpt><trkpt lat="-35.594197905915856" lon="144.18543625653157"><ele>87.66666666666666</ele><time>2026-05-04T04:30:28Z</time></trkpt><trkpt lat="-35.59421770360749" lon="144.18533399830397"><ele>87.83333333333333</ele><time>2026-05-04T04:30:37Z</time></trkpt><trkpt lat="-35.59418448838856" lon="144.18525812692337"><ele>88.0</ele><time>2026-05-04T04:30:38Z</time></trkpt><trkpt lat="-35.594130041481876" lon="144.18512812441102"><ele>88.0</ele><time>2026-05-04T04:30:40Z</time></trkpt><trkpt lat="-35.59407644264187" lon="144.18502845627515"><ele>88.0</ele><time>2026-05-04T04:30:42Z</time></trkpt><trkpt lat="-35.59398313816503" lon="144.18498812889132"><ele>88.0</ele><time>2026-05-04T04:30:45Z</time></trkpt><trkpt lat="-35.5938718703532" lon="144.18498652056007"><ele>88.0</ele><time>2026-05-04T04:30:47Z</time></trkpt><trkpt lat="-35.59378004948891" lon="144.18492000722608"><ele>88.0</ele><time>2026-05-04T04:30:49Z</time></trkpt><trkpt lat="-35.59369547760624" lon="144.18486504740852"><ele>87.66666666666666</ele><time>2026-05-04T04:30:51Z</time></trkpt><trkpt lat="-35.59363425425112" lon="144.18480467063625"><ele>87.33333333333333</ele><time>2026-05-04T04:30:54Z</time></trkpt><trkpt lat="-35.593566453690954" lon="144.18476282770496"><ele>87.0</ele><time>2026-05-04T04:30:56Z</time></trkpt><trkpt lat="-35.593492668581135" lon="144.18471734106882"><ele>86.66666666666667</ele><time>2026-05-04T04:30:58Z</time></trkpt><trkpt lat="-35.59342314571526" lon="144.18463016010722"><ele>86.33333333333334</ele><time>2026-05-04T04:31:00Z</time></trkpt><trkpt lat="-35.59334388570189" lon="144.18455192245847"><ele>86.0</ele><time>2026-05-04T04:31:02Z</time></trkpt><trkpt lat="-35.59331148495417" lon="144.18445099944276"><ele>86.0</ele><time>2026-05-04T04:31:05Z</time></trkpt><trkpt lat="-35.5932214181753" lon="144.18447395179038"><ele>86.0</ele><time>2026-05-04T04:31:07Z</time></trkpt><trkpt lat="-35.59315503438118" lon="144.18450826855903"><ele>86.0</ele><time>2026-05-04T04:31:09Z</time></trkpt><trkpt lat="-35.593105499258144" lon="144.18445299719008"><ele>86.0</ele><time>2026-05-04T04:31:11Z</time></trkpt><trkpt lat="-35.59303034718019" lon="144.18432526864325"><ele>86.0</ele><time>2026-05-04T04:31:13Z</time></trkpt><trkpt lat="-35.59297445491773" lon="144.1842024041169"><ele>86.0</ele><time>2026-05-04T04:31:15Z</time></trkpt><trkpt lat="-35.59297176013797" lon="144.1841003012621"><ele>86.0</ele><time>2026-05-04T04:31:17Z</time></trkpt><trkpt lat="-35.592978043413204" lon="144.18400122711571"><ele>86.0</ele><time>2026-05-04T04:31:19Z</time></trkpt><trkpt lat="-35.592907155321235" lon="144.18395456350126"><ele>86.0</ele><time>2026-05-04T04:31:21Z</time></trkpt><trkpt lat="-35.59286375912233" lon="144.183886404536"><ele>86.0</ele><time>2026-05-04T04:31:23Z</time></trkpt><trkpt lat="-35.59281155407211" lon="144.18383076501718"><ele>86.0</ele><time>2026-05-04T04:31:25Z</time></trkpt><trkpt lat="-35.59279309152529" lon="144.18373473469032"><ele>86.16666666666667</ele><time>2026-05-04T04:31:27Z</time></trkpt><trkpt lat="-35.592767001350495" lon="144.1836493026795"><ele>86.33333333333334</ele><time>2026-05-04T04:31:38Z</time></trkpt><trkpt lat="-35.592726024079525" lon="144.18358369574275"><ele>86.5</ele><time>2026-05-04T04:31:41Z</time></trkpt><trkpt lat="-35.592653874348635" lon="144.18363028845175"><ele>86.66666666666667</ele><time>2026-05-04T04:31:49Z</time></trkpt><trkpt lat="-35.59255059590669" lon="144.18364485887886"><ele>86.83333333333333</ele><time>2026-05-04T04:31:52Z</time></trkpt><trkpt lat="-35.592470950603136" lon="144.18371095017267"><ele>87.0</ele><time>2026-05-04T04:31:55Z</time></trkpt><trkpt lat="-35.59238849255876" lon="144.18377599932646"><ele>87.0</ele><time>2026-05-04T04:31:58Z</time></trkpt><trkpt lat="-35.592427286385664" lon="144.18384437811477"><ele>87.0</ele><time>2026-05-04T04:32:05Z</time></trkpt><trkpt lat="-35.592501179213464" lon="144.1838727747325"><ele>87.0</ele><time>2026-05-04T04:32:11Z</time></trkpt><trkpt lat="-35.592566163323184" lon="144.18398397048634"><ele>87.0</ele><time>2026-05-04T04:32:13Z</time></trkpt><trkpt lat="-35.59259995480358" lon="144.18405087042464"><ele>87.0</ele><time>2026-05-04T04:32:14Z</time></trkpt><trkpt lat="-35.592645295762026" lon="144.1841284390236"><ele>87.0</ele><time>2026-05-04T04:32:16Z</time></trkpt><trkpt lat="-35.592641798232584" lon="144.18424176203328"><ele>87.33333333333333</ele><time>2026-05-04T04:32:20Z</time></trkpt><trkpt lat="-35.5927143075316" lon="144.184274380415"><ele>87.66666666666667</ele><time>2026-05-04T04:32:23Z</time></trkpt><trkpt lat="-35.59269904691046" lon="144.1841913131659"><ele>88.0</ele><time>2026-05-04T04:32:27Z</time></trkpt><trkpt lat="-35.5926194317119" lon="144.18413473553665"><ele>88.33333333333334</ele><time>2026-05-04T04:32:29Z</time></trkpt><trkpt lat="-35.59254439818303" lon="144.18404216381157"><ele>88.66666666666667</ele><time>2026-05-04T04:32:32Z</time></trkpt><trkpt lat="-35.59248169942908" lon="144.1840306940398"><ele>89.0</ele><time>2026-05-04T04:32:34Z</time></trkpt><trkpt lat="-35.59238873710865" lon="144.18404084995313"><ele>88.66666666666667</ele><time>2026-05-04T04:32:36Z</time></trkpt><trkpt lat="-35.59228414940059" lon="144.18398307551942"><ele>88.33333333333334</ele><time>2026-05-04T04:32:38Z</time></trkpt><trkpt lat="-35.59224525916859" lon="144.18388722556858"><ele>88.0</ele><time>2026-05-04T04:32:43Z</time></trkpt><trkpt lat="-35.592234175193454" lon="144.18377063424202"><ele>87.66666666666667</ele><time>2026-05-04T04:32:45Z</time></trkpt><trkpt lat="-35.59215176000768" lon="144.18377118396518"><ele>87.33333333333333</ele><time>2026-05-04T04:32:48Z</time></trkpt><trkpt lat="-35.592121774595824" lon="144.18384103868567"><ele>87.0</ele><time>2026-05-04T04:32:50Z</time></trkpt><trkpt lat="-35.59210669797972" lon="144.18395227136654"><ele>87.33333333333333</ele><time>2026-05-04T04:32:52Z</time></trkpt><trkpt lat="-35.59205313701971" lon="144.18403595931727"><ele>87.66666666666667</ele><time>2026-05-04T04:32:54Z</time></trkpt><trkpt lat="-35.59196213083608" lon="144.1840860749289"><ele>88.0</ele><time>2026-05-04T04:32:56Z</time></trkpt><trkpt lat="-35.591891007077436" lon="144.18411588224785"><ele>88.33333333333334</ele><time>2026-05-04T04:32:57Z</time></trkpt><trkpt lat="-35.591809940810386" lon="144.18415303253988"><ele>88.66666666666667</ele><time>2026-05-04T04:32:58Z</time></trkpt><trkpt lat="-35.591747694531904" lon="144.18419701776338"><ele>89.0</ele><time>2026-05-04T04:32:59Z</time></trkpt><trkpt lat="-35.59164184901629" lon="144.18422111091016"><ele>89.16666666666667</ele><time>2026-05-04T04:33:01Z</time></trkpt><trkpt lat="-35.59157156721143" lon="144.18419579386708"><ele>89.33333333333334</ele><time>2026-05-04T04:33:03Z</time></trkpt><trkpt lat="-35.59147438368286" lon="144.18419897372564"><ele>89.5</ele><time>2026-05-04T04:33:05Z</time></trkpt><trkpt lat="-35.59137116221821" lon="144.18424539057963"><ele>89.66666666666667</ele><time>2026-05-04T04:33:07Z</time></trkpt><trkpt lat="-35.59130968464564" lon="144.18427281123599"><ele>89.83333333333333</ele><time>2026-05-04T04:33:08Z</time></trkpt><trkpt lat="-35.59125058185559" lon="144.18429985424675"><ele>90.0</ele><time>2026-05-04T04:33:09Z</time></trkpt><trkpt lat="-35.59113704621354" lon="144.18434407543128"><ele>90.4</ele><time>2026-05-04T04:33:11Z</time></trkpt><trkpt lat="-35.59107427519659" lon="144.1843623839598"><ele>90.8</ele><time>2026-05-04T04:33:12Z</time></trkpt><trkpt lat="-35.59095557164576" lon="144.1843799882439"><ele>91.19999999999999</ele><time>2026-05-04T04:33:14Z</time></trkpt><trkpt lat="-35.59083762436311" lon="144.1843737488509"><ele>91.6</ele><time>2026-05-04T04:33:16Z</time></trkpt><trkpt lat="-35.59077022023787" lon="144.1843801256835"><ele>92.0</ele><time>2026-05-04T04:33:17Z</time></trkpt><trkpt lat="-35.59065360263424" lon="144.18440925615982"><ele>92.0</ele><time>2026-05-04T04:33:19Z</time></trkpt><trkpt lat="-35.590538221976324" lon="144.1844502324128"><ele>92.0</ele><time>2026-05-04T04:33:21Z</time></trkpt><trkpt lat="-35.590475136505326" lon="144.1844488417533"><ele>92.0</ele><time>2026-05-04T04:33:22Z</time></trkpt><trkpt lat="-35.59040645229929" lon="144.18443076106416"><ele>92.0</ele><time>2026-05-04T04:33:23Z</time></trkpt><trkpt lat="-35.59032049102722" lon="144.18441174434906"><ele>92.0</ele><time>2026-05-04T04:33:25Z</time></trkpt><trkpt lat="-35.59024330593325" lon="144.18437760482198"><ele>92.0</ele><time>2026-05-04T04:33:28Z</time></trkpt><trkpt lat="-35.59017167242979" lon="144.184311003224"><ele>92.0</ele><time>2026-05-04T04:33:30Z</time></trkpt><trkpt lat="-35.59009192095462" lon="144.18419346802975"><ele>92.0</ele><time>2026-05-04T04:33:32Z</time></trkpt><trkpt lat="-35.590029527341905" lon="144.18414265983327"><ele>92.0</ele><time>2026-05-04T04:33:33Z</time></trkpt><trkpt lat="-35.5898992278331" lon="144.18408949338988"><ele>92.0</ele><time>2026-05-04T04:33:35Z</time></trkpt><trkpt lat="-35.589820611814126" lon="144.184085192646"><ele>92.0</ele><time>2026-05-04T04:33:36Z</time></trkpt><trkpt lat="-35.589749158728566" lon="144.18411336185707"><ele>92.0</ele><time>2026-05-04T04:33:37Z</time></trkpt><trkpt lat="-35.58968326897028" lon="144.18416505728052"><ele>92.0</ele><time>2026-05-04T04:33:38Z</time></trkpt><trkpt lat="-35.58960755241702" lon="144.1842616424294"><ele>92.0</ele><time>2026-05-04T04:33:40Z</time></trkpt><trkpt lat="-35.58952370864254" lon="144.1843420442812"><ele>92.0</ele><time>2026-05-04T04:33:42Z</time></trkpt><trkpt lat="-35.58947488392638" lon="144.1844500819198"><ele>92.0</ele><time>2026-05-04T04:33:44Z</time></trkpt><trkpt lat="-35.58941503714262" lon="144.18449080429414"><ele>92.0</ele><time>2026-05-04T04:33:45Z</time></trkpt><trkpt lat="-35.58939336926825" lon="144.1846647329809"><ele>92.0</ele><time>2026-05-04T04:33:47Z</time></trkpt><trkpt lat="-35.58929718892027" lon="144.18476412431107"><ele>92.0</ele><time>2026-05-04T04:33:49Z</time></trkpt><trkpt lat="-35.589195570430014" lon="144.18481566762114"><ele>92.0</ele><time>2026-05-04T04:33:51Z</time></trkpt><trkpt lat="-35.58915206820785" lon="144.18490364374946"><ele>91.33333333333334</ele><time>2026-05-04T04:33:53Z</time></trkpt><trkpt lat="-35.58907173039667" lon="144.18493864660007"><ele>90.66666666666667</ele><time>2026-05-04T04:33:56Z</time></trkpt><trkpt lat="-35.58899930552798" lon="144.18499492585184"><ele>90.0</ele><time>2026-05-04T04:33:58Z</time></trkpt><trkpt lat="-35.58892783839521" lon="144.18504532087766"><ele>89.33333333333333</ele><time>2026-05-04T04:34:01Z</time></trkpt><trkpt lat="-35.58885367283175" lon="144.1850446021306"><ele>88.66666666666666</ele><time>2026-05-04T04:34:05Z</time></trkpt><trkpt lat="-35.588799871746744" lon="144.18498306936095"><ele>88.0</ele><time>2026-05-04T04:34:08Z</time></trkpt><trkpt lat="-35.58874927430552" lon="144.18490977072307"><ele>88.0</ele><time>2026-05-04T04:34:10Z</time></trkpt><trkpt lat="-35.58868611040946" lon="144.18490697654656"><ele>88.0</ele><time>2026-05-04T04:34:13Z</time></trkpt><trkpt lat="-35.588611311190796" lon="144.18492692732195"><ele>88.0</ele><time>2026-05-04T04:34:26Z</time></trkpt><trkpt lat="-35.588553512780884" lon="144.18485236463513"><ele>88.0</ele><time>2026-05-04T04:34:29Z</time></trkpt><trkpt lat="-35.58853271449944" lon="144.18477078310025"><ele>88.0</ele><time>2026-05-04T04:34:32Z</time></trkpt><trkpt lat="-35.58846365956574" lon="144.18470441716664"><ele>88.0</ele><time>2026-05-04T04:34:51Z</time></trkpt><trkpt lat="-35.58840261585042" lon="144.18463526490515"><ele>87.66666666666666</ele><time>2026-05-04T04:34:54Z</time></trkpt><trkpt lat="-35.588358122092174" lon="144.1845746518708"><ele>87.33333333333333</ele><time>2026-05-04T04:34:58Z</time></trkpt><trkpt lat="-35.5883398946181" lon="144.1844792225799"><ele>87.0</ele><time>2026-05-04T04:35:10Z</time></trkpt><trkpt lat="-35.58831721056983" lon="144.18437394254673"><ele>86.66666666666667</ele><time>2026-05-04T04:35:13Z</time></trkpt><trkpt lat="-35.58828068593387" lon="144.1842805745634"><ele>86.33333333333334</ele><time>2026-05-04T04:35:15Z</time></trkpt><trkpt lat="-35.588249660796656" lon="144.18419185824536"><ele>86.0</ele><time>2026-05-04T04:35:17Z</time></trkpt><trkpt lat="-35.58822535862963" lon="144.18407422019033"><ele>86.19999999999999</ele><time>2026-05-04T04:35:19Z</time></trkpt><trkpt lat="-35.58821856625807" lon="144.18395512023005"><ele>86.39999999999999</ele><time>2026-05-04T04:35:21Z</time></trkpt><trkpt lat="-35.58816352799424" lon="144.18382720109878"><ele>86.6</ele><time>2026-05-04T04:35:23Z</time></trkpt><trkpt lat="-35.58811268627263" lon="144.18371731957072"><ele>86.8</ele><time>2026-05-04T04:35:25Z</time></trkpt><trkpt lat="-35.58804721980154" lon="144.18361930664992"><ele>87.0</ele><time>2026-05-04T04:35:27Z</time></trkpt><trkpt lat="-35.58800733789998" lon="144.18353661878837"><ele>87.0</ele><time>2026-05-04T04:35:29Z</time></trkpt><trkpt lat="-35.58795829186034" lon="144.18346491512688"><ele>87.0</ele><time>2026-05-04T04:35:31Z</time></trkpt><trkpt lat="-35.587914556868064" lon="144.1833863919988"><ele>87.0</ele><time>2026-05-04T04:35:33Z</time></trkpt><trkpt lat="-35.587809477452964" lon="144.18339905281942"><ele>87.0</ele><time>2026-05-04T04:35:36Z</time></trkpt><trkpt lat="-35.587702835354754" lon="144.18343244330626"><ele>87.0</ele><time>2026-05-04T04:35:38Z</time></trkpt><trkpt lat="-35.58763780761541" lon="144.18342956525987"><ele>87.0</ele><time>2026-05-04T04:35:39Z</time></trkpt><trkpt lat="-35.587501296937326" lon="144.18339536026906"><ele>86.16666666666667</ele><time>2026-05-04T04:35:41Z</time></trkpt><trkpt lat="-35.58742654436201" lon="144.18336650225055"><ele>85.33333333333333</ele><time>2026-05-04T04:35:42Z</time></trkpt><trkpt lat="-35.587328759422746" lon="144.18335968398713"><ele>84.5</ele><time>2026-05-04T04:35:44Z</time></trkpt><trkpt lat="-35.58726604693762" lon="144.18338918395017"><ele>83.66666666666666</ele><time>2026-05-04T04:35:45Z</time></trkpt><trkpt lat="-35.587199498034344" lon="144.18346118059955"><ele>82.83333333333333</ele><time>2026-05-04T04:35:46Z</time></trkpt><trkpt lat="-35.58712298212327" lon="144.1835559512993"><ele>82.0</ele><time>2026-05-04T04:35:47Z</time></trkpt><trkpt lat="-35.58705187995946" lon="144.1836496403054"><ele>81.75</ele><time>2026-05-04T04:35:48Z</time></trkpt><trkpt lat="-35.586966353333075" lon="144.1837476662393"><ele>81.5</ele><time>2026-05-04T04:35:49Z</time></trkpt><trkpt lat="-35.586865097868326" lon="144.1838433700257"><ele>81.25</ele><time>2026-05-04T04:35:50Z</time></trkpt><trkpt lat="-35.58675529517914" lon="144.1839438215002"><ele>81.0</ele><time>2026-05-04T04:35:51Z</time></trkpt><trkpt lat="-35.58665635130273" lon="144.18403806416904"><ele>81.0</ele><time>2026-05-04T04:35:52Z</time></trkpt><trkpt lat="-35.58656805065667" lon="144.18412506773615"><ele>81.0</ele><time>2026-05-04T04:35:53Z</time></trkpt><trkpt lat="-35.58650026246682" lon="144.18420745831128"><ele>81.0</ele><time>2026-05-04T04:35:54Z</time></trkpt><trkpt lat="-35.58645111958826" lon="144.18427828181225"><ele>81.0</ele><time>2026-05-04T04:35:55Z</time></trkpt><trkpt lat="-35.58644803565714" lon="144.18438218752044"><ele>81.0</ele><time>2026-05-04T04:35:56Z</time></trkpt><trkpt lat="-35.586474244621556" lon="144.18447972161778"><ele>81.0</ele><time>2026-05-04T04:35:57Z</time></trkpt><trkpt lat="-35.586523757072136" lon="144.18456346762815"><ele>81.0</ele><time>2026-05-04T04:35:58Z</time></trkpt><trkpt lat="-35.58656888562396" lon="144.18465489598174"><ele>81.0</ele><time>2026-05-04T04:35:59Z</time></trkpt><trkpt lat="-35.586630131378385" lon="144.184757181213"><ele>81.0</ele><time>2026-05-04T04:36:00Z</time></trkpt><trkpt lat="-35.58670543235194" lon="144.18484710332973"><ele>81.0</ele><time>2026-05-04T04:36:01Z</time></trkpt><trkpt lat="-35.58679616058233" lon="144.1849314972417"><ele>81.19999999999999</ele><time>2026-05-04T04:36:02Z</time></trkpt><trkpt lat="-35.58688036730649" lon="144.18501960058987"><ele>81.39999999999999</ele><time>2026-05-04T04:36:03Z</time></trkpt><trkpt lat="-35.58694841012449" lon="144.18509249899992"><ele>81.6</ele><time>2026-05-04T04:36:04Z</time></trkpt><trkpt lat="-35.58700915626977" lon="144.18515859592463"><ele>81.8</ele><time>2026-05-04T04:36:05Z</time></trkpt><trkpt lat="-35.58706892537656" lon="144.1852431367662"><ele>82.0</ele><time>2026-05-04T04:36:06Z</time></trkpt><trkpt lat="-35.587122012084514" lon="144.18534423053492"><ele>82.0</ele><time>2026-05-04T04:36:07Z</time></trkpt><trkpt lat="-35.58717690523175" lon="144.18545723228704"><ele>82.0</ele><time>2026-05-04T04:36:08Z</time></trkpt><trkpt lat="-35.58723340416693" lon="144.18558290431864"><ele>82.0</ele><time>2026-05-04T04:36:09Z</time></trkpt><trkpt lat="-35.587294640270066" lon="144.18569938164865"><ele>82.0</ele><time>2026-05-04T04:36:10Z</time></trkpt><trkpt lat="-35.58735856199046" lon="144.18581640057357"><ele>82.5</ele><time>2026-05-04T04:36:11Z</time></trkpt><trkpt lat="-35.587429397786956" lon="144.18595997384736"><ele>83.0</ele><time>2026-05-04T04:36:12Z</time></trkpt><trkpt lat="-35.58750596942312" lon="144.18607911384098"><ele>83.5</ele><time>2026-05-04T04:36:13Z</time></trkpt><trkpt lat="-35.58759053592091" lon="144.1862019313968"><ele>84.0</ele><time>2026-05-04T04:36:14Z</time></trkpt><trkpt lat="-35.5877009441395" lon="144.18628743499752"><ele>84.0</ele><time>2026-05-04T04:36:15Z</time></trkpt><trkpt lat="-35.587817230984015" lon="144.18639633848966"><ele>84.0</ele><time>2026-05-04T04:36:16Z</time></trkpt><trkpt lat="-35.5879413754407" lon="144.18650812862828"><ele>84.0</ele><time>2026-05-04T04:36:17Z</time></trkpt><trkpt lat="-35.588080115510714" lon="144.18661430041107"><ele>84.0</ele><time>2026-05-04T04:36:18Z</time></trkpt><trkpt lat="-35.58822582341659" lon="144.18672102080828"><ele>84.0</ele><time>2026-05-04T04:36:19Z</time></trkpt><trkpt lat="-35.5883636190253" lon="144.18681462206342"><ele>84.0</ele><time>2026-05-04T04:36:20Z</time></trkpt><trkpt lat="-35.588508644835805" lon="144.1869126600138"><ele>84.0</ele><time>2026-05-04T04:36:21Z</time></trkpt><trkpt lat="-35.588624683064474" lon="144.187014622339"><ele>84.0</ele><time>2026-05-04T04:36:22Z</time></trkpt><trkpt lat="-35.58872856506462" lon="144.18709608368937"><ele>84.0</ele><time>2026-05-04T04:36:23Z</time></trkpt><trkpt lat="-35.58883048780939" lon="144.18715299079628"><ele>84.0</ele><time>2026-05-04T04:36:24Z</time></trkpt><trkpt lat="-35.58893014204034" lon="144.18720258263957"><ele>83.5</ele><time>2026-05-04T04:36:25Z</time></trkpt><trkpt lat="-35.58903226134585" lon="144.18721881297358"><ele>83.0</ele><time>2026-05-04T04:36:26Z</time></trkpt><trkpt lat="-35.58914255960994" lon="144.18721426837925"><ele>82.5</ele><time>2026-05-04T04:36:27Z</time></trkpt><trkpt lat="-35.58926426899328" lon="144.1871860207989"><ele>82.0</ele><time>2026-05-04T04:36:28Z</time></trkpt><trkpt lat="-35.58939557136396" lon="144.18717310075976"><ele>81.75</ele><time>2026-05-04T04:36:29Z</time></trkpt><trkpt lat="-35.5895218719327" lon="144.1871718308297"><ele>81.5</ele><time>2026-05-04T04:36:30Z</time></trkpt><trkpt lat="-35.5896402497466" lon="144.18716331700338"><ele>81.25</ele><time>2026-05-04T04:36:31Z</time></trkpt><trkpt lat="-35.58975376912265" lon="144.18715630628327"><ele>81.0</ele><time>2026-05-04T04:36:32Z</time></trkpt><trkpt lat="-35.589867284127955" lon="144.18715142191297"><ele>81.0</ele><time>2026-05-04T04:36:33Z</time></trkpt><trkpt lat="-35.589969514126295" lon="144.18715524482798"><ele>81.0</ele><time>2026-05-04T04:36:34Z</time></trkpt><trkpt lat="-35.59005685995299" lon="144.18715661173422"><ele>81.0</ele><time>2026-05-04T04:36:35Z</time></trkpt><trkpt lat="-35.5901284593357" lon="144.18714871257535"><ele>81.0</ele><time>2026-05-04T04:36:36Z</time></trkpt><trkpt lat="-35.590190381757225" lon="144.18710840250395"><ele>81.0</ele><time>2026-05-04T04:36:37Z</time></trkpt><trkpt lat="-35.59027316611857" lon="144.18703049738843"><ele>81.0</ele><time>2026-05-04T04:36:39Z</time></trkpt><trkpt lat="-35.59031957856124" lon="144.18708878643153"><ele>81.0</ele><time>2026-05-04T04:36:41Z</time></trkpt><trkpt lat="-35.5903293019115" lon="144.18717465174197"><ele>81.0</ele><time>2026-05-04T04:36:42Z</time></trkpt><trkpt lat="-35.59032348054358" lon="144.18726490730018"><ele>81.0</ele><time>2026-05-04T04:36:43Z</time></trkpt><trkpt lat="-35.59042974607129" lon="144.18737965065492"><ele>81.0</ele><time>2026-05-04T04:36:45Z</time></trkpt><trkpt lat="-35.59048770538561" lon="144.18743169876134"><ele>81.0</ele><time>2026-05-04T04:36:46Z</time></trkpt><trkpt lat="-35.59056216574789" lon="144.18749972211256"><ele>81.0</ele><time>2026-05-04T04:36:48Z</time></trkpt><trkpt lat="-35.5905854880704" lon="144.18758169108807"><ele>81.0</ele><time>2026-05-04T04:36:51Z</time></trkpt><trkpt lat="-35.59047318261686" lon="144.18751457155622"><ele>81.0</ele><time>2026-05-04T04:36:55Z</time></trkpt><trkpt lat="-35.59042477409684" lon="144.1874120615971"><ele>81.0</ele><time>2026-05-04T04:36:56Z</time></trkpt><trkpt lat="-35.590361010345084" lon="144.18731275650194"><ele>81.0</ele><time>2026-05-04T04:36:57Z</time></trkpt><trkpt lat="-35.59030009447741" lon="144.1872211696944"><ele>81.0</ele><time>2026-05-04T04:36:58Z</time></trkpt><trkpt lat="-35.59026949317844" lon="144.18714326429256"><ele>81.0</ele><time>2026-05-04T04:36:59Z</time></trkpt><trkpt lat="-35.59025353364786" lon="144.1870660547711"><ele>81.0</ele><time>2026-05-04T04:37:00Z</time></trkpt><trkpt lat="-35.5902369903561" lon="144.1869765099701"><ele>81.0</ele><time>2026-05-04T04:37:01Z</time></trkpt><trkpt lat="-35.59019741438722" lon="144.18689100764234"><ele>81.0</ele><time>2026-05-04T04:37:02Z</time></trkpt><trkpt lat="-35.59015357901459" lon="144.18682618375323"><ele>81.0</ele><time>2026-05-04T04:37:03Z</time></trkpt><trkpt lat="-35.59014926757025" lon="144.18667712918509"><ele>81.0</ele><time>2026-05-04T04:37:05Z</time></trkpt><trkpt lat="-35.59017826826207" lon="144.18658438973063"><ele>81.0</ele><time>2026-05-04T04:37:06Z</time></trkpt><trkpt lat="-35.59020895954195" lon="144.18649765242114"><ele>81.0</ele><time>2026-05-04T04:37:07Z</time></trkpt><trkpt lat="-35.590275332493306" lon="144.18639238370875"><ele>81.0</ele><time>2026-05-04T04:37:09Z</time></trkpt><trkpt lat="-35.59038222964185" lon="144.18639660037704"><ele>81.0</ele><time>2026-05-04T04:37:11Z</time></trkpt><trkpt lat="-35.59044317625929" lon="144.18642888974964"><ele>81.0</ele><time>2026-05-04T04:37:12Z</time></trkpt><trkpt lat="-35.590516302624515" lon="144.1864685602063"><ele>81.5</ele><time>2026-05-04T04:37:13Z</time></trkpt><trkpt lat="-35.590601246107745" lon="144.18648186143565"><ele>82.0</ele><time>2026-05-04T04:37:14Z</time></trkpt><trkpt lat="-35.590680615562526" lon="144.18648590752687"><ele>82.5</ele><time>2026-05-04T04:37:15Z</time></trkpt><trkpt lat="-35.59075541995627" lon="144.18646851317422"><ele>83.0</ele><time>2026-05-04T04:37:16Z</time></trkpt><trkpt lat="-35.590829508087126" lon="144.18643540378628"><ele>83.5</ele><time>2026-05-04T04:37:17Z</time></trkpt><trkpt lat="-35.590888946681254" lon="144.18638322544155"><ele>84.0</ele><time>2026-05-04T04:37:18Z</time></trkpt><trkpt lat="-35.590946595771825" lon="144.18632901142308"><ele>84.0</ele><time>2026-05-04T04:37:19Z</time></trkpt><trkpt lat="-35.591007789138416" lon="144.18621671369337"><ele>84.0</ele><time>2026-05-04T04:37:21Z</time></trkpt><trkpt lat="-35.59095658559474" lon="144.18609533637982"><ele>84.0</ele><time>2026-05-04T04:37:23Z</time></trkpt><trkpt lat="-35.590885417652494" lon="144.18598695589395"><ele>84.0</ele><time>2026-05-04T04:37:25Z</time></trkpt><trkpt lat="-35.590815438164455" lon="144.18594460389264"><ele>84.0</ele><time>2026-05-04T04:37:27Z</time></trkpt><trkpt lat="-35.59072646192251" lon="144.18603350258564"><ele>84.0</ele><time>2026-05-04T04:37:29Z</time></trkpt><trkpt lat="-35.5907287861596" lon="144.18619998070534"><ele>84.0</ele><time>2026-05-04T04:37:31Z</time></trkpt><trkpt lat="-35.590750834229794" lon="144.18628656415422"><ele>84.0</ele><time>2026-05-04T04:37:32Z</time></trkpt><trkpt lat="-35.59075937713956" lon="144.18641397027076"><ele>84.0</ele><time>2026-05-04T04:37:33Z</time></trkpt><trkpt lat="-35.590734428651935" lon="144.1864985987748"><ele>84.0</ele><time>2026-05-04T04:37:35Z</time></trkpt><trkpt lat="-35.59062021103353" lon="144.1864876463594"><ele>84.0</ele><time>2026-05-04T04:37:37Z</time></trkpt><trkpt lat="-35.59053393867229" lon="144.18647892593137"><ele>84.0</ele><time>2026-05-04T04:37:38Z</time></trkpt><trkpt lat="-35.590429208088395" lon="144.18643716956132"><ele>84.0</ele><time>2026-05-04T04:37:39Z</time></trkpt><trkpt lat="-35.590336521367675" lon="144.18642127303968"><ele>84.0</ele><time>2026-05-04T04:37:40Z</time></trkpt><trkpt lat="-35.59024914082512" lon="144.1864287903337"><ele>84.0</ele><time>2026-05-04T04:37:41Z</time></trkpt><trkpt lat="-35.5901902166519" lon="144.18649135236197"><ele>83.4</ele><time>2026-05-04T04:37:42Z</time></trkpt><trkpt lat="-35.59017003673332" lon="144.18660070080486"><ele>82.80000000000001</ele><time>2026-05-04T04:37:43Z</time></trkpt><trkpt lat="-35.59013724419999" lon="144.18672438723135"><ele>82.19999999999999</ele><time>2026-05-04T04:37:44Z</time></trkpt><trkpt lat="-35.590141062950366" lon="144.18683629046274"><ele>81.6</ele><time>2026-05-04T04:37:45Z</time></trkpt><trkpt lat="-35.59017704174978" lon="144.18692969684383"><ele>81.0</ele><time>2026-05-04T04:37:46Z</time></trkpt><trkpt lat="-35.59023669767012" lon="144.1870202103616"><ele>81.0</ele><time>2026-05-04T04:37:47Z</time></trkpt><trkpt lat="-35.59026287845104" lon="144.18715606137397"><ele>81.0</ele><time>2026-05-04T04:37:49Z</time></trkpt><trkpt lat="-35.5902195571842" lon="144.18721587929485"><ele>81.0</ele><time>2026-05-04T04:37:50Z</time></trkpt><trkpt lat="-35.590159719208536" lon="144.18725000874443"><ele>81.0</ele><time>2026-05-04T04:37:51Z</time></trkpt><trkpt lat="-35.590099434672126" lon="144.18728303260454"><ele>81.0</ele><time>2026-05-04T04:37:52Z</time></trkpt><trkpt lat="-35.59003914456145" lon="144.187327083946"><ele>81.0</ele><time>2026-05-04T04:37:53Z</time></trkpt><trkpt lat="-35.58997430938299" lon="144.18735493447448"><ele>81.0</ele><time>2026-05-04T04:37:54Z</time></trkpt><trkpt lat="-35.589899277952604" lon="144.18736969596057"><ele>81.0</ele><time>2026-05-04T04:37:55Z</time></trkpt><trkpt lat="-35.58981475239211" lon="144.18737279624128"><ele>81.0</ele><time>2026-05-04T04:37:56Z</time></trkpt><trkpt lat="-35.58974077373368" lon="144.1873532995387"><ele>81.0</ele><time>2026-05-04T04:37:57Z</time></trkpt><trkpt lat="-35.58967904396771" lon="144.18728590137889"><ele>81.0</ele><time>2026-05-04T04:37:58Z</time></trkpt><trkpt lat="-35.58961675723088" lon="144.187234409013"><ele>81.0</ele><time>2026-05-04T04:37:59Z</time></trkpt><trkpt lat="-35.58957486438183" lon="144.18717490948282"><ele>81.0</ele><time>2026-05-04T04:38:00Z</time></trkpt><trkpt lat="-35.58945632123356" lon="144.18711425272957"><ele>81.19999999999999</ele><time>2026-05-04T04:38:02Z</time></trkpt><trkpt lat="-35.58937319118972" lon="144.18710558976528"><ele>81.39999999999999</ele><time>2026-05-04T04:38:03Z</time></trkpt><trkpt lat="-35.58928055142007" lon="144.18712243116374"><ele>81.6</ele><time>2026-05-04T04:38:04Z</time></trkpt><trkpt lat="-35.589177518183305" lon="144.18716942043068"><ele>81.8</ele><time>2026-05-04T04:38:05Z</time></trkpt><trkpt lat="-35.58907123662227" lon="144.18719809222836"><ele>82.0</ele><time>2026-05-04T04:38:06Z</time></trkpt><trkpt lat="-35.5889667837391" lon="144.1871988922284"><ele>82.0</ele><time>2026-05-04T04:38:07Z</time></trkpt><trkpt lat="-35.5888729109545" lon="144.18717890616085"><ele>82.0</ele><time>2026-05-04T04:38:08Z</time></trkpt><trkpt lat="-35.58877775319622" lon="144.18712645531852"><ele>82.0</ele><time>2026-05-04T04:38:09Z</time></trkpt><trkpt lat="-35.58867886436407" lon="144.18705587726382"><ele>82.0</ele><time>2026-05-04T04:38:10Z</time></trkpt><trkpt lat="-35.588578205395656" lon="144.18697464180775"><ele>82.0</ele><time>2026-05-04T04:38:11Z</time></trkpt><trkpt lat="-35.588463967601854" lon="144.18688149945055"><ele>82.5</ele><time>2026-05-04T04:38:12Z</time></trkpt><trkpt lat="-35.5883506966064" lon="144.18679693398533"><ele>83.0</ele><time>2026-05-04T04:38:13Z</time></trkpt><trkpt lat="-35.58821862948575" lon="144.18670102701805"><ele>83.5</ele><time>2026-05-04T04:38:14Z</time></trkpt><trkpt lat="-35.588086299580155" lon="144.18660009008883"><ele>84.0</ele><time>2026-05-04T04:38:15Z</time></trkpt><trkpt lat="-35.58795503282671" lon="144.18650312777766"><ele>84.0</ele><time>2026-05-04T04:38:16Z</time></trkpt><trkpt lat="-35.5878289743511" lon="144.18640007661304"><ele>84.0</ele><time>2026-05-04T04:38:17Z</time></trkpt><trkpt lat="-35.58771945554135" lon="144.1862963031457"><ele>84.0</ele><time>2026-05-04T04:38:18Z</time></trkpt><trkpt lat="-35.587607232539625" lon="144.1861943366972"><ele>84.0</ele><time>2026-05-04T04:38:19Z</time></trkpt><trkpt lat="-35.58750682524773" lon="144.18608526529718"><ele>84.0</ele><time>2026-05-04T04:38:20Z</time></trkpt><trkpt lat="-35.58741231923403" lon="144.18595191738225"><ele>84.0</ele><time>2026-05-04T04:38:21Z</time></trkpt><trkpt lat="-35.587332956524705" lon="144.18581286991352"><ele>84.0</ele><time>2026-05-04T04:38:22Z</time></trkpt><trkpt lat="-35.58727085346253" lon="144.185663773572"><ele>84.0</ele><time>2026-05-04T04:38:23Z</time></trkpt><trkpt lat="-35.58719375608052" lon="144.18552984585313"><ele>83.75</ele><time>2026-05-04T04:38:24Z</time></trkpt><trkpt lat="-35.58713842399923" lon="144.18537980679113"><ele>83.5</ele><time>2026-05-04T04:38:25Z</time></trkpt><trkpt lat="-35.58707322711361" lon="144.18525430534493"><ele>83.25</ele><time>2026-05-04T04:38:26Z</time></trkpt><trkpt lat="-35.587003190942966" lon="144.18513560332661"><ele>83.0</ele><time>2026-05-04T04:38:27Z</time></trkpt><trkpt lat="-35.586932991930354" lon="144.18504419395302"><ele>83.0</ele><time>2026-05-04T04:38:28Z</time></trkpt><trkpt lat="-35.586858859429476" lon="144.18498042909525"><ele>83.0</ele><time>2026-05-04T04:38:29Z</time></trkpt><trkpt lat="-35.58677753027641" lon="144.1848844264087"><ele>83.0</ele><time>2026-05-04T04:38:30Z</time></trkpt><trkpt lat="-35.586689774171276" lon="144.1848009282985"><ele>83.0</ele><time>2026-05-04T04:38:31Z</time></trkpt><trkpt lat="-35.5866059866586" lon="144.18471198680874"><ele>83.0</ele><time>2026-05-04T04:38:32Z</time></trkpt><trkpt lat="-35.58654367272945" lon="144.18461775732456"><ele>82.66666666666667</ele><time>2026-05-04T04:38:33Z</time></trkpt><trkpt lat="-35.58650752101282" lon="144.184497237484"><ele>82.33333333333334</ele><time>2026-05-04T04:38:34Z</time></trkpt><trkpt lat="-35.58648026870635" lon="144.18437728125747"><ele>82.0</ele><time>2026-05-04T04:38:35Z</time></trkpt><trkpt lat="-35.58646330186716" lon="144.1842721374942"><ele>81.66666666666667</ele><time>2026-05-04T04:38:36Z</time></trkpt><trkpt lat="-35.586467618659114" lon="144.18419119838245"><ele>81.33333333333333</ele><time>2026-05-04T04:38:37Z</time></trkpt><trkpt lat="-35.586509389681794" lon="144.18411654895007"><ele>81.0</ele><time>2026-05-04T04:38:38Z</time></trkpt><trkpt lat="-35.58659393583623" lon="144.18406024738835"><ele>80.5</ele><time>2026-05-04T04:38:39Z</time></trkpt><trkpt lat="-35.58667867396299" lon="144.18399081519158"><ele>80.0</ele><time>2026-05-04T04:38:40Z</time></trkpt><trkpt lat="-35.58676631160481" lon="144.18391243965007"><ele>79.5</ele><time>2026-05-04T04:38:41Z</time></trkpt><trkpt lat="-35.58686650330977" lon="144.1838133364619"><ele>79.0</ele><time>2026-05-04T04:38:42Z</time></trkpt><trkpt lat="-35.58697172159919" lon="144.18371585018076"><ele>79.6</ele><time>2026-05-04T04:38:43Z</time></trkpt><trkpt lat="-35.58707174646926" lon="144.18361636583612"><ele>80.2</ele><time>2026-05-04T04:38:44Z</time></trkpt><trkpt lat="-35.58716336283566" lon="144.18352423510606"><ele>80.8</ele><time>2026-05-04T04:38:45Z</time></trkpt><trkpt lat="-35.5872378348906" lon="144.18343455030237"><ele>81.39999999999999</ele><time>2026-05-04T04:38:46Z</time></trkpt><trkpt lat="-35.587307344765655" lon="144.18336406941054"><ele>82.0</ele><time>2026-05-04T04:38:47Z</time></trkpt><trkpt lat="-35.587375737483406" lon="144.18332718613874"><ele>82.0</ele><time>2026-05-04T04:38:48Z</time></trkpt><trkpt lat="-35.587449807268925" lon="144.1833248858987"><ele>82.0</ele><time>2026-05-04T04:38:49Z</time></trkpt><trkpt lat="-35.58751337921181" lon="144.18331161070387"><ele>82.0</ele><time>2026-05-04T04:38:50Z</time></trkpt><trkpt lat="-35.587576241916175" lon="144.18323968651052"><ele>82.0</ele><time>2026-05-04T04:38:52Z</time></trkpt><trkpt lat="-35.587582723447916" lon="144.18315882987898"><ele>82.0</ele><time>2026-05-04T04:38:53Z</time></trkpt><trkpt lat="-35.58765880445263" lon="144.18312205650142"><ele>82.0</ele><time>2026-05-04T04:38:56Z</time></trkpt><trkpt lat="-35.58777162992658" lon="144.1831161176038"><ele>82.0</ele><time>2026-05-04T04:38:58Z</time></trkpt><trkpt lat="-35.58783732489442" lon="144.18310618771784"><ele>82.0</ele><time>2026-05-04T04:38:59Z</time></trkpt><trkpt lat="-35.58792989557361" lon="144.18308942084798"><ele>82.0</ele><time>2026-05-04T04:39:01Z</time></trkpt><trkpt lat="-35.58800125637192" lon="144.18306844739445"><ele>82.0</ele><time>2026-05-04T04:39:03Z</time></trkpt><trkpt lat="-35.58808704005253" lon="144.18306288046895"><ele>82.0</ele><time>2026-05-04T04:39:06Z</time></trkpt><trkpt lat="-35.588172206182506" lon="144.1830463243087"><ele>82.0</ele><time>2026-05-04T04:39:09Z</time></trkpt><trkpt lat="-35.58824657118553" lon="144.1830438867722"><ele>82.66666666666666</ele><time>2026-05-04T04:39:11Z</time></trkpt><trkpt lat="-35.588332014058764" lon="144.1830309598519"><ele>83.33333333333333</ele><time>2026-05-04T04:39:13Z</time></trkpt><trkpt lat="-35.588443990807264" lon="144.18301280286866"><ele>84.0</ele><time>2026-05-04T04:39:15Z</time></trkpt><trkpt lat="-35.58851578202413" lon="144.18300144046256"><ele>84.66666666666667</ele><time>2026-05-04T04:39:16Z</time></trkpt><trkpt lat="-35.588596074232" lon="144.18299517578663"><ele>85.33333333333334</ele><time>2026-05-04T04:39:17Z</time></trkpt><trkpt lat="-35.58867686709766" lon="144.18298827535745"><ele>86.0</ele><time>2026-05-04T04:39:18Z</time></trkpt><trkpt lat="-35.588771410593964" lon="144.1829723632619"><ele>86.19999999999999</ele><time>2026-05-04T04:39:19Z</time></trkpt><trkpt lat="-35.58886559922214" lon="144.1829547374305"><ele>86.39999999999999</ele><time>2026-05-04T04:39:20Z</time></trkpt><trkpt lat="-35.58895876347629" lon="144.18293211836826"><ele>86.6</ele><time>2026-05-04T04:39:21Z</time></trkpt><trkpt lat="-35.589050626550325" lon="144.18291127568153"><ele>86.8</ele><time>2026-05-04T04:39:22Z</time></trkpt><trkpt lat="-35.58913736238887" lon="144.18290320926508"><ele>87.0</ele><time>2026-05-04T04:39:23Z</time></trkpt><trkpt lat="-35.58922004913787" lon="144.1829024742647"><ele>87.0</ele><time>2026-05-04T04:39:24Z</time></trkpt><trkpt lat="-35.58931048436805" lon="144.18289226763795"><ele>87.0</ele><time>2026-05-04T04:39:25Z</time></trkpt><trkpt lat="-35.589397643036094" lon="144.18287808280115"><ele>87.0</ele><time>2026-05-04T04:39:26Z</time></trkpt><trkpt lat="-35.5894708719395" lon="144.18285979592218"><ele>87.0</ele><time>2026-05-04T04:39:27Z</time></trkpt><trkpt lat="-35.58954396343767" lon="144.18285281555717"><ele>87.0</ele><time>2026-05-04T04:39:28Z</time></trkpt><trkpt lat="-35.58961620505463" lon="144.18284824758072"><ele>87.0</ele><time>2026-05-04T04:39:29Z</time></trkpt><trkpt lat="-35.589766552141946" lon="144.18283922042315"><ele>87.16666666666667</ele><time>2026-05-04T04:39:31Z</time></trkpt><trkpt lat="-35.589856495719076" lon="144.182814299577"><ele>87.33333333333333</ele><time>2026-05-04T04:39:32Z</time></trkpt><trkpt lat="-35.58993182604157" lon="144.18279817804236"><ele>87.5</ele><time>2026-05-04T04:39:33Z</time></trkpt><trkpt lat="-35.59001885291129" lon="144.18279075523463"><ele>87.66666666666666</ele><time>2026-05-04T04:39:34Z</time></trkpt><trkpt lat="-35.59010814659802" lon="144.18278965020403"><ele>87.83333333333333</ele><time>2026-05-04T04:39:35Z</time></trkpt><trkpt lat="-35.59019621814264" lon="144.18278458115114"><ele>88.0</ele><time>2026-05-04T04:39:36Z</time></trkpt><trkpt lat="-35.59028495505596" lon="144.18277321973724"><ele>87.80000000000001</ele><time>2026-05-04T04:39:37Z</time></trkpt><trkpt lat="-35.59037799984443" lon="144.1827638523388"><ele>87.6</ele><time>2026-05-04T04:39:38Z</time></trkpt><trkpt lat="-35.59046632962515" lon="144.1827439318714"><ele>87.4</ele><time>2026-05-04T04:39:39Z</time></trkpt><trkpt lat="-35.59055488218011" lon="144.18272095169402"><ele>87.19999999999999</ele><time>2026-05-04T04:39:40Z</time></trkpt><trkpt lat="-35.590648918738275" lon="144.18270380856487"><ele>87.0</ele><time>2026-05-04T04:39:41Z</time></trkpt><trkpt lat="-35.59073744755598" lon="144.18267468525204"><ele>87.0</ele><time>2026-05-04T04:39:42Z</time></trkpt><trkpt lat="-35.590819860317005" lon="144.18262642589056"><ele>87.0</ele><time>2026-05-04T04:39:43Z</time></trkpt><trkpt lat="-35.590895358619775" lon="144.182564088122"><ele>87.0</ele><time>2026-05-04T04:39:44Z</time></trkpt><trkpt lat="-35.590964535497605" lon="144.1824927203349"><ele>87.0</ele><time>2026-05-04T04:39:45Z</time></trkpt><trkpt lat="-35.591021782893726" lon="144.1824078129068"><ele>87.0</ele><time>2026-05-04T04:39:46Z</time></trkpt><trkpt lat="-35.591069179898625" lon="144.1823170084223"><ele>87.0</ele><time>2026-05-04T04:39:47Z</time></trkpt><trkpt lat="-35.591108003719505" lon="144.1822190462346"><ele>87.0</ele><time>2026-05-04T04:39:48Z</time></trkpt><trkpt lat="-35.59114261519882" lon="144.1821093949279"><ele>87.0</ele><time>2026-05-04T04:39:49Z</time></trkpt><trkpt lat="-35.59116541069215" lon="144.18200009413553"><ele>87.0</ele><time>2026-05-04T04:39:50Z</time></trkpt><trkpt lat="-35.59118650780775" lon="144.18188750388086"><ele>87.0</ele><time>2026-05-04T04:39:51Z</time></trkpt><trkpt lat="-35.591206589194606" lon="144.18176923014246"><ele>87.19999999999999</ele><time>2026-05-04T04:39:52Z</time></trkpt><trkpt lat="-35.59123021147603" lon="144.18164633311432"><ele>87.4</ele><time>2026-05-04T04:39:53Z</time></trkpt><trkpt lat="-35.591253437019375" lon="144.18153387389538"><ele>87.6</ele><time>2026-05-04T04:39:54Z</time></trkpt><trkpt lat="-35.59127207818047" lon="144.1814166434753"><ele>87.80000000000001</ele><time>2026-05-04T04:39:55Z</time></trkpt><trkpt lat="-35.59129182745125" lon="144.18130837012106"><ele>88.0</ele><time>2026-05-04T04:39:56Z</time></trkpt><trkpt lat="-35.59131399639258" lon="144.18120073988067"><ele>88.0</ele><time>2026-05-04T04:39:57Z</time></trkpt><trkpt lat="-35.591333882573615" lon="144.18109198763364"><ele>88.0</ele><time>2026-05-04T04:39:58Z</time></trkpt><trkpt lat="-35.59135707647871" lon="144.18098032709563"><ele>88.0</ele><time>2026-05-04T04:39:59Z</time></trkpt><trkpt lat="-35.59138248450247" lon="144.18088038674824"><ele>88.0</ele><time>2026-05-04T04:40:00Z</time></trkpt><trkpt lat="-35.591391510520396" lon="144.1807953509102"><ele>88.0</ele><time>2026-05-04T04:40:01Z</time></trkpt><trkpt lat="-35.59140913125158" lon="144.18068555254334"><ele>88.0</ele><time>2026-05-04T04:40:02Z</time></trkpt><trkpt lat="-35.59143369349821" lon="144.18057466555626"><ele>88.0</ele><time>2026-05-04T04:40:03Z</time></trkpt><trkpt lat="-35.59144966204975" lon="144.18047665970929"><ele>88.0</ele><time>2026-05-04T04:40:04Z</time></trkpt><trkpt lat="-35.5914754234787" lon="144.18037665140065"><ele>88.0</ele><time>2026-05-04T04:40:05Z</time></trkpt><trkpt lat="-35.59149309600123" lon="144.18027815173923"><ele>88.0</ele><time>2026-05-04T04:40:06Z</time></trkpt><trkpt lat="-35.591514118516685" lon="144.1801801538547"><ele>88.0</ele><time>2026-05-04T04:40:07Z</time></trkpt><trkpt lat="-35.59153725490908" lon="144.18007947629656"><ele>88.0</ele><time>2026-05-04T04:40:08Z</time></trkpt><trkpt lat="-35.591560985705" lon="144.17997152388662"><ele>88.0</ele><time>2026-05-04T04:40:09Z</time></trkpt><trkpt lat="-35.591574505718306" lon="144.17986918604834"><ele>88.0</ele><time>2026-05-04T04:40:10Z</time></trkpt><trkpt lat="-35.59159380007668" lon="144.17976780423643"><ele>88.0</ele><time>2026-05-04T04:40:11Z</time></trkpt><trkpt lat="-35.59161278592374" lon="144.17966552706"><ele>88.0</ele><time>2026-05-04T04:40:12Z</time></trkpt><trkpt lat="-35.591632173188174" lon="144.17956744507126"><ele>88.0</ele><time>2026-05-04T04:40:13Z</time></trkpt><trkpt lat="-35.59164756260129" lon="144.17948393609484"><ele>88.0</ele><time>2026-05-04T04:40:14Z</time></trkpt><trkpt lat="-35.59167440416309" lon="144.17934139769827"><ele>88.0</ele><time>2026-05-04T04:40:16Z</time></trkpt><trkpt lat="-35.59169219021399" lon="144.17926605703477"><ele>88.0</ele><time>2026-05-04T04:40:18Z</time></trkpt><trkpt lat="-35.59173124783907" lon="144.1791705356759"><ele>88.0</ele><time>2026-05-04T04:40:30Z</time></trkpt><trkpt lat="-35.59175450543874" lon="144.17909213398067"><ele>88.0</ele><time>2026-05-04T04:40:31Z</time></trkpt><trkpt lat="-35.59176289993013" lon="144.17900933932887"><ele>88.0</ele><time>2026-05-04T04:40:32Z</time></trkpt><trkpt lat="-35.59177276631065" lon="144.17891476823803"><ele>88.0</ele><time>2026-05-04T04:40:33Z</time></trkpt><trkpt lat="-35.59179061056606" lon="144.1788312582438"><ele>88.0</ele><time>2026-05-04T04:40:34Z</time></trkpt><trkpt lat="-35.5918267420085" lon="144.17870466151143"><ele>87.80000000000001</ele><time>2026-05-04T04:40:36Z</time></trkpt><trkpt lat="-35.59186395958759" lon="144.17860019287988"><ele>87.6</ele><time>2026-05-04T04:40:38Z</time></trkpt><trkpt lat="-35.591958923709065" lon="144.17854392174775"><ele>87.4</ele><time>2026-05-04T04:40:40Z</time></trkpt><trkpt lat="-35.59206149037263" lon="144.17850321330442"><ele>87.19999999999999</ele><time>2026-05-04T04:40:42Z</time></trkpt><trkpt lat="-35.59218397765092" lon="144.1784718029273"><ele>87.0</ele><time>2026-05-04T04:40:44Z</time></trkpt><trkpt lat="-35.59226157082219" lon="144.17841756535384"><ele>86.5</ele><time>2026-05-04T04:40:45Z</time></trkpt><trkpt lat="-35.592312808927815" lon="144.17835709997942"><ele>86.0</ele><time>2026-05-04T04:40:46Z</time></trkpt><trkpt lat="-35.59233145305888" lon="144.1782773469319"><ele>85.5</ele><time>2026-05-04T04:40:47Z</time></trkpt><trkpt lat="-35.592316046546266" lon="144.17819828314433"><ele>85.0</ele><time>2026-05-04T04:40:48Z</time></trkpt><trkpt lat="-35.592277388052516" lon="144.17810719857584"><ele>84.5</ele><time>2026-05-04T04:40:49Z</time></trkpt><trkpt lat="-35.59223744675324" lon="144.17801986522232"><ele>84.0</ele><time>2026-05-04T04:40:50Z</time></trkpt><trkpt lat="-35.592206250262194" lon="144.17792687211116"><ele>84.0</ele><time>2026-05-04T04:40:51Z</time></trkpt><trkpt lat="-35.592188942572" lon="144.17783919094452"><ele>84.0</ele><time>2026-05-04T04:40:52Z</time></trkpt><trkpt lat="-35.592169224601165" lon="144.17776414848896"><ele>84.0</ele><time>2026-05-04T04:40:53Z</time></trkpt><trkpt lat="-35.59215106540565" lon="144.1776803537401"><ele>84.0</ele><time>2026-05-04T04:40:54Z</time></trkpt><trkpt lat="-35.59212867010067" lon="144.177597553367"><ele>84.0</ele><time>2026-05-04T04:40:55Z</time></trkpt><trkpt lat="-35.5921116948709" lon="144.17751596471467"><ele>84.0</ele><time>2026-05-04T04:40:56Z</time></trkpt><trkpt lat="-35.592109878740644" lon="144.1773476996226"><ele>83.5</ele><time>2026-05-04T04:40:58Z</time></trkpt><trkpt lat="-35.592119370169506" lon="144.17725262342498"><ele>83.0</ele><time>2026-05-04T04:40:59Z</time></trkpt><trkpt lat="-35.59212953717336" lon="144.17714951468878"><ele>82.5</ele><time>2026-05-04T04:41:00Z</time></trkpt><trkpt lat="-35.592143211497046" lon="144.17704437687803"><ele>82.0</ele><time>2026-05-04T04:41:01Z</time></trkpt><trkpt lat="-35.592155940903034" lon="144.17693112667925"><ele>81.5</ele><time>2026-05-04T04:41:02Z</time></trkpt><trkpt lat="-35.592170399999596" lon="144.17682017284702"><ele>81.0</ele><time>2026-05-04T04:41:03Z</time></trkpt><trkpt lat="-35.59217744187239" lon="144.17670498390024"><ele>81.0</ele><time>2026-05-04T04:41:04Z</time></trkpt><trkpt lat="-35.592174801412845" lon="144.17658363366814"><ele>81.0</ele><time>2026-05-04T04:41:05Z</time></trkpt><trkpt lat="-35.592172742882674" lon="144.17643504767426"><ele>81.0</ele><time>2026-05-04T04:41:06Z</time></trkpt><trkpt lat="-35.59216292049491" lon="144.17628681519489"><ele>81.0</ele><time>2026-05-04T04:41:07Z</time></trkpt><trkpt lat="-35.59215663157931" lon="144.17613027638245"><ele>81.0</ele><time>2026-05-04T04:41:08Z</time></trkpt><trkpt lat="-35.592151835157466" lon="144.17597925581904"><ele>81.0</ele><time>2026-05-04T04:41:09Z</time></trkpt><trkpt lat="-35.592144380288346" lon="144.1758148033949"><ele>81.0</ele><time>2026-05-04T04:41:10Z</time></trkpt><trkpt lat="-35.592138185948734" lon="144.1756521386528"><ele>81.0</ele><time>2026-05-04T04:41:11Z</time></trkpt><trkpt lat="-35.59212865044953" lon="144.17548837587034"><ele>81.0</ele><time>2026-05-04T04:41:12Z</time></trkpt><trkpt lat="-35.592123511252076" lon="144.17532815571758"><ele>81.0</ele><time>2026-05-04T04:41:13Z</time></trkpt><trkpt lat="-35.59211164889308" lon="144.17516596747137"><ele>81.0</ele><time>2026-05-04T04:41:14Z</time></trkpt><trkpt lat="-35.592097870769" lon="144.17499704665673"><ele>81.0</ele><time>2026-05-04T04:41:15Z</time></trkpt><trkpt lat="-35.592095941212094" lon="144.17483476147305"><ele>81.16666666666667</ele><time>2026-05-04T04:41:16Z</time></trkpt><trkpt lat="-35.592091118427895" lon="144.17469275801074"><ele>81.33333333333333</ele><time>2026-05-04T04:41:17Z</time></trkpt><trkpt lat="-35.592084896868414" lon="144.17457090900785"><ele>81.5</ele><time>2026-05-04T04:41:18Z</time></trkpt><trkpt lat="-35.59208406570463" lon="144.17445817330324"><ele>81.66666666666666</ele><time>2026-05-04T04:41:19Z</time></trkpt><trkpt lat="-35.59208031295643" lon="144.17437565285806"><ele>81.83333333333333</ele><time>2026-05-04T04:41:20Z</time></trkpt><trkpt lat="-35.59207795892627" lon="144.17429784682074"><ele>82.0</ele><time>2026-05-04T04:41:21Z</time></trkpt><trkpt lat="-35.59207400473966" lon="144.1742059091851"><ele>82.0</ele><time>2026-05-04T04:41:22Z</time></trkpt><trkpt lat="-35.592041432150076" lon="144.17410781959092"><ele>82.0</ele><time>2026-05-04T04:41:23Z</time></trkpt><trkpt lat="-35.591998825200264" lon="144.17400769878446"><ele>82.0</ele><time>2026-05-04T04:41:24Z</time></trkpt><trkpt lat="-35.591976042620786" lon="144.17389147518404"><ele>82.0</ele><time>2026-05-04T04:41:25Z</time></trkpt><trkpt lat="-35.59196246723827" lon="144.17377692935477"><ele>82.0</ele><time>2026-05-04T04:41:26Z</time></trkpt><trkpt lat="-35.591945712892105" lon="144.17367562669307"><ele>82.0</ele><time>2026-05-04T04:41:27Z</time></trkpt><trkpt lat="-35.59192948860672" lon="144.17357187849726"><ele>82.0</ele><time>2026-05-04T04:41:28Z</time></trkpt><trkpt lat="-35.59192222468057" lon="144.17348664018607"><ele>82.0</ele><time>2026-05-04T04:41:29Z</time></trkpt><trkpt lat="-35.59190847089493" lon="144.17338360377826"><ele>82.0</ele><time>2026-05-04T04:41:31Z</time></trkpt><trkpt lat="-35.59190873581679" lon="144.17330366091622"><ele>82.0</ele><time>2026-05-04T04:41:32Z</time></trkpt><trkpt lat="-35.59190736187067" lon="144.1732040421861"><ele>82.0</ele><time>2026-05-04T04:41:33Z</time></trkpt><trkpt lat="-35.591898566013775" lon="144.17309143144794"><ele>82.0</ele><time>2026-05-04T04:41:34Z</time></trkpt><trkpt lat="-35.591901042294936" lon="144.17297073645364"><ele>82.0</ele><time>2026-05-04T04:41:35Z</time></trkpt><trkpt lat="-35.591911172137294" lon="144.17285962147125"><ele>82.0</ele><time>2026-05-04T04:41:36Z</time></trkpt><trkpt lat="-35.5919265188777" lon="144.17274763239317"><ele>82.0</ele><time>2026-05-04T04:41:37Z</time></trkpt><trkpt lat="-35.59194336524291" lon="144.17264017991218"><ele>82.0</ele><time>2026-05-04T04:41:38Z</time></trkpt><trkpt lat="-35.59196842374778" lon="144.17252407768146"><ele>82.0</ele><time>2026-05-04T04:41:39Z</time></trkpt><trkpt lat="-35.59199938806342" lon="144.1723975172795"><ele>82.0</ele><time>2026-05-04T04:41:40Z</time></trkpt><trkpt lat="-35.5920261541828" lon="144.1722691097788"><ele>82.0</ele><time>2026-05-04T04:41:41Z</time></trkpt><trkpt lat="-35.592050770398494" lon="144.17213097605065"><ele>82.0</ele><time>2026-05-04T04:41:42Z</time></trkpt><trkpt lat="-35.5920787409546" lon="144.17199204001298"><ele>82.0</ele><time>2026-05-04T04:41:43Z</time></trkpt><trkpt lat="-35.59211253977603" lon="144.1718480536643"><ele>82.0</ele><time>2026-05-04T04:41:44Z</time></trkpt><trkpt lat="-35.59214501809554" lon="144.1717064884749"><ele>82.0</ele><time>2026-05-04T04:41:45Z</time></trkpt><trkpt lat="-35.59217747201076" lon="144.1715702143241"><ele>82.0</ele><time>2026-05-04T04:41:46Z</time></trkpt><trkpt lat="-35.59219928402801" lon="144.17143702515563"><ele>82.0</ele><time>2026-05-04T04:41:47Z</time></trkpt><trkpt lat="-35.59221414778426" lon="144.17129723739504"><ele>82.25</ele><time>2026-05-04T04:41:48Z</time></trkpt><trkpt lat="-35.59222835682161" lon="144.17115653868143"><ele>82.5</ele><time>2026-05-04T04:41:49Z</time></trkpt><trkpt lat="-35.59223420646599" lon="144.17101294707402"><ele>82.75</ele><time>2026-05-04T04:41:50Z</time></trkpt><trkpt lat="-35.592238592443394" lon="144.17086661014886"><ele>83.0</ele><time>2026-05-04T04:41:51Z</time></trkpt><trkpt lat="-35.59223691698874" lon="144.17071834315257"><ele>83.0</ele><time>2026-05-04T04:41:52Z</time></trkpt><trkpt lat="-35.592235153370446" lon="144.1705719870517"><ele>83.0</ele><time>2026-05-04T04:41:53Z</time></trkpt><trkpt lat="-35.59222796954646" lon="144.17042829115957"><ele>83.0</ele><time>2026-05-04T04:41:54Z</time></trkpt><trkpt lat="-35.592223469019146" lon="144.17028731259393"><ele>83.0</ele><time>2026-05-04T04:41:55Z</time></trkpt><trkpt lat="-35.59222555293555" lon="144.17014460249146"><ele>83.0</ele><time>2026-05-04T04:41:56Z</time></trkpt><trkpt lat="-35.59223201368792" lon="144.16999218774816"><ele>83.0</ele><time>2026-05-04T04:41:57Z</time></trkpt><trkpt lat="-35.592237828279295" lon="144.16983530371655"><ele>83.0</ele><time>2026-05-04T04:41:58Z</time></trkpt><trkpt lat="-35.59223732547326" lon="144.16967843079973"><ele>83.0</ele><time>2026-05-04T04:41:59Z</time></trkpt><trkpt lat="-35.592234124384156" lon="144.16952301201718"><ele>83.25</ele><time>2026-05-04T04:42:00Z</time></trkpt><trkpt lat="-35.592233134233396" lon="144.16936434400856"><ele>83.5</ele><time>2026-05-04T04:42:01Z</time></trkpt><trkpt lat="-35.59223115493745" lon="144.16920349115523"><ele>83.75</ele><time>2026-05-04T04:42:02Z</time></trkpt><trkpt lat="-35.59223050614793" lon="144.16904246322753"><ele>84.0</ele><time>2026-05-04T04:42:03Z</time></trkpt><trkpt lat="-35.592232947302726" lon="144.16887941838456"><ele>83.5</ele><time>2026-05-04T04:42:04Z</time></trkpt><trkpt lat="-35.59223210530981" lon="144.16871143430197"><ele>83.0</ele><time>2026-05-04T04:42:05Z</time></trkpt><trkpt lat="-35.592230588023774" lon="144.16854446942247"><ele>82.5</ele><time>2026-05-04T04:42:06Z</time></trkpt><trkpt lat="-35.59223088951051" lon="144.1683833157964"><ele>82.0</ele><time>2026-05-04T04:42:07Z</time></trkpt><trkpt lat="-35.59223335420916" lon="144.16822946688112"><ele>82.5</ele><time>2026-05-04T04:42:08Z</time></trkpt><trkpt lat="-35.59223821763632" lon="144.16807469595545"><ele>83.0</ele><time>2026-05-04T04:42:09Z</time></trkpt><trkpt lat="-35.592241003107674" lon="144.16792251477492"><ele>83.5</ele><time>2026-05-04T04:42:10Z</time></trkpt><trkpt lat="-35.59224084305393" lon="144.16778494988193"><ele>84.0</ele><time>2026-05-04T04:42:11Z</time></trkpt><trkpt lat="-35.59222939819313" lon="144.16765473805108"><ele>84.0</ele><time>2026-05-04T04:42:12Z</time></trkpt><trkpt lat="-35.59219296625884" lon="144.167541888705"><ele>84.0</ele><time>2026-05-04T04:42:13Z</time></trkpt><trkpt lat="-35.59213828948697" lon="144.16744470881505"><ele>84.0</ele><time>2026-05-04T04:42:14Z</time></trkpt><trkpt lat="-35.59207306604438" lon="144.16737564138555"><ele>84.0</ele><time>2026-05-04T04:42:15Z</time></trkpt><trkpt lat="-35.5920118727367" lon="144.1673215375585"><ele>84.0</ele><time>2026-05-04T04:42:17Z</time></trkpt><trkpt lat="-35.59210298424845" lon="144.16724333063277"><ele>83.6</ele><time>2026-05-04T04:42:20Z</time></trkpt><trkpt lat="-35.592179168817694" lon="144.167244945245"><ele>83.2</ele><time>2026-05-04T04:42:21Z</time></trkpt><trkpt lat="-35.592259013336594" lon="144.1671868980965"><ele>82.8</ele><time>2026-05-04T04:42:23Z</time></trkpt><trkpt lat="-35.592274582943915" lon="144.1670616840536"><ele>82.39999999999999</ele><time>2026-05-04T04:42:25Z</time></trkpt><trkpt lat="-35.59226320456287" lon="144.16698403909555"><ele>82.0</ele><time>2026-05-04T04:42:26Z</time></trkpt><trkpt lat="-35.592272085016404" lon="144.1668366865463"><ele>82.0</ele><time>2026-05-04T04:42:28Z</time></trkpt><trkpt lat="-35.592281111527015" lon="144.16670627636225"><ele>82.0</ele><time>2026-05-04T04:42:30Z</time></trkpt><trkpt lat="-35.59231089996619" lon="144.16657449304856"><ele>82.0</ele><time>2026-05-04T04:42:32Z</time></trkpt><trkpt lat="-35.5923176839575" lon="144.16645743859291"><ele>82.0</ele><time>2026-05-04T04:42:34Z</time></trkpt><trkpt lat="-35.59234280080112" lon="144.1663085357239"><ele>82.0</ele><time>2026-05-04T04:42:36Z</time></trkpt><trkpt lat="-35.592358098664775" lon="144.16622574764241"><ele>81.5</ele><time>2026-05-04T04:42:37Z</time></trkpt><trkpt lat="-35.59235525581462" lon="144.16612752405447"><ele>81.0</ele><time>2026-05-04T04:42:38Z</time></trkpt><trkpt lat="-35.592356703673424" lon="144.16602136968655"><ele>80.5</ele><time>2026-05-04T04:42:39Z</time></trkpt><trkpt lat="-35.59237298675426" lon="144.16591295033743"><ele>80.0</ele><time>2026-05-04T04:42:40Z</time></trkpt><trkpt lat="-35.59239106110196" lon="144.16580116752573"><ele>79.5</ele><time>2026-05-04T04:42:41Z</time></trkpt><trkpt lat="-35.592409433009394" lon="144.16568630477138"><ele>79.0</ele><time>2026-05-04T04:42:42Z</time></trkpt><trkpt lat="-35.59242132207681" lon="144.16556227096868"><ele>79.0</ele><time>2026-05-04T04:42:43Z</time></trkpt><trkpt lat="-35.59244022942896" lon="144.16547704488286"><ele>79.0</ele><time>2026-05-04T04:42:44Z</time></trkpt><trkpt lat="-35.59252474106617" lon="144.16539649427438"><ele>79.0</ele><time>2026-05-04T04:42:46Z</time></trkpt><trkpt lat="-35.5925673200561" lon="144.16533627774314"><ele>79.0</ele><time>2026-05-04T04:42:47Z</time></trkpt><trkpt lat="-35.59260153551306" lon="144.16526479176108"><ele>79.0</ele><time>2026-05-04T04:42:48Z</time></trkpt><trkpt lat="-35.5926422624078" lon="144.16519641739535"><ele>79.0</ele><time>2026-05-04T04:42:49Z</time></trkpt><trkpt lat="-35.59272746785794" lon="144.16509385238916"><ele>79.0</ele><time>2026-05-04T04:42:51Z</time></trkpt><trkpt lat="-35.592777694057816" lon="144.16496901358144"><ele>79.0</ele><time>2026-05-04T04:42:53Z</time></trkpt><trkpt lat="-35.592808471479394" lon="144.16483565434885"><ele>79.0</ele><time>2026-05-04T04:42:55Z</time></trkpt><trkpt lat="-35.59283026963598" lon="144.16469800328534"><ele>79.0</ele><time>2026-05-04T04:42:57Z</time></trkpt><trkpt lat="-35.59281464795644" lon="144.16457115222914"><ele>79.0</ele><time>2026-05-04T04:42:59Z</time></trkpt><trkpt lat="-35.59278912308156" lon="144.16444441888314"><ele>78.8</ele><time>2026-05-04T04:43:01Z</time></trkpt><trkpt lat="-35.59282227683898" lon="144.1643018103294"><ele>78.60000000000001</ele><time>2026-05-04T04:43:03Z</time></trkpt><trkpt lat="-35.59284889621012" lon="144.16421942059333"><ele>78.4</ele><time>2026-05-04T04:43:04Z</time></trkpt><trkpt lat="-35.59288122341947" lon="144.16411684930821"><ele>78.2</ele><time>2026-05-04T04:43:05Z</time></trkpt><trkpt lat="-35.592924537981446" lon="144.1639916989055"><ele>78.0</ele><time>2026-05-04T04:43:06Z</time></trkpt><trkpt lat="-35.59298078395475" lon="144.16384528010047"><ele>79.33333333333333</ele><time>2026-05-04T04:43:07Z</time></trkpt><trkpt lat="-35.59302564593009" lon="144.16370505590064"><ele>80.66666666666666</ele><time>2026-05-04T04:43:08Z</time></trkpt><trkpt lat="-35.59307644370021" lon="144.1635412410786"><ele>82.0</ele><time>2026-05-04T04:43:09Z</time></trkpt><trkpt lat="-35.593156145075895" lon="144.1633243439469"><ele>82.0</ele><time>2026-05-04T04:43:10Z</time></trkpt><trkpt lat="-35.59325449931484" lon="144.16309198352204"><ele>82.0</ele><time>2026-05-04T04:43:11Z</time></trkpt><trkpt lat="-35.59335752334428" lon="144.16283603168858"><ele>82.0</ele><time>2026-05-04T04:43:12Z</time></trkpt><trkpt lat="-35.59346200897346" lon="144.16254767834556"><ele>82.5</ele><time>2026-05-04T04:43:13Z</time></trkpt><trkpt lat="-35.59356864374445" lon="144.16227458576475"><ele>83.0</ele><time>2026-05-04T04:43:14Z</time></trkpt><trkpt lat="-35.593673095070365" lon="144.1620217753986"><ele>83.0</ele><time>2026-05-04T04:43:15Z</time></trkpt><trkpt lat="-35.59376686744298" lon="144.16177854144925"><ele>83.0</ele><time>2026-05-04T04:43:16Z</time></trkpt><trkpt lat="-35.593862629907086" lon="144.1615320455966"><ele>83.0</ele><time>2026-05-04T04:43:17Z</time></trkpt><trkpt lat="-35.5939576259813" lon="144.16128701573192"><ele>82.5</ele><time>2026-05-04T04:43:18Z</time></trkpt><trkpt lat="-35.594056737114585" lon="144.16103775904827"><ele>82.0</ele><time>2026-05-04T04:43:19Z</time></trkpt><trkpt lat="-35.59415717276288" lon="144.1607875398791"><ele>81.33333333333333</ele><time>2026-05-04T04:43:20Z</time></trkpt><trkpt lat="-35.59424985704964" lon="144.16055147844432"><ele>80.66666666666667</ele><time>2026-05-04T04:43:21Z</time></trkpt><trkpt lat="-35.59434619706411" lon="144.16028917943817"><ele>80.0</ele><time>2026-05-04T04:43:22Z</time></trkpt><trkpt lat="-35.5944387589984" lon="144.16003512829803"><ele>79.0</ele><time>2026-05-04T04:43:23Z</time></trkpt><trkpt lat="-35.594524353446566" lon="144.1597823831352"><ele>78.0</ele><time>2026-05-04T04:43:24Z</time></trkpt><trkpt lat="-35.59460577691037" lon="144.15952914562598"><ele>77.0</ele><time>2026-05-04T04:43:25Z</time></trkpt><trkpt lat="-35.59468241183898" lon="144.15927220391373"><ele>78.0</ele><time>2026-05-04T04:43:26Z</time></trkpt><trkpt lat="-35.59475531151731" lon="144.15900562658027"><ele>79.0</ele><time>2026-05-04T04:43:27Z</time></trkpt><trkpt lat="-35.59482424836488" lon="144.15873481216266"><ele>79.0</ele><time>2026-05-04T04:43:28Z</time></trkpt><trkpt lat="-35.594885090987255" lon="144.1584520582188"><ele>79.0</ele><time>2026-05-04T04:43:29Z</time></trkpt><trkpt lat="-35.59494898380814" lon="144.1581649471395"><ele>78.5</ele><time>2026-05-04T04:43:30Z</time></trkpt><trkpt lat="-35.595007648852295" lon="144.15788232279988"><ele>78.0</ele><time>2026-05-04T04:43:31Z</time></trkpt><trkpt lat="-35.59506265895446" lon="144.1575991868393"><ele>78.0</ele><time>2026-05-04T04:43:32Z</time></trkpt><trkpt lat="-35.595105450717064" lon="144.15730986330834"><ele>78.0</ele><time>2026-05-04T04:43:33Z</time></trkpt><trkpt lat="-35.595150116821884" lon="144.1570248994368"><ele>78.0</ele><time>2026-05-04T04:43:34Z</time></trkpt><trkpt lat="-35.595198296901074" lon="144.15673038857585"><ele>78.0</ele><time>2026-05-04T04:43:35Z</time></trkpt><trkpt lat="-35.595239916498045" lon="144.15644336323598"><ele>78.5</ele><time>2026-05-04T04:43:36Z</time></trkpt><trkpt lat="-35.595308283554544" lon="144.15616691578325"><ele>79.0</ele><time>2026-05-04T04:43:37Z</time></trkpt><trkpt lat="-35.595342026328694" lon="144.15588822344426"><ele>78.5</ele><time>2026-05-04T04:43:38Z</time></trkpt><trkpt lat="-35.595383105425555" lon="144.15560055935413"><ele>78.0</ele><time>2026-05-04T04:43:39Z</time></trkpt><trkpt lat="-35.59542616435137" lon="144.1553133872602"><ele>78.0</ele><time>2026-05-04T04:43:40Z</time></trkpt><trkpt lat="-35.59547444599003" lon="144.15502907754706"><ele>78.0</ele><time>2026-05-04T04:43:41Z</time></trkpt><trkpt lat="-35.595517537252285" lon="144.15474265174822"><ele>78.0</ele><time>2026-05-04T04:43:42Z</time></trkpt><trkpt lat="-35.59556323482538" lon="144.15445426608116"><ele>78.0</ele><time>2026-05-04T04:43:43Z</time></trkpt><trkpt lat="-35.59561166965498" lon="144.15416170626105"><ele>78.5</ele><time>2026-05-04T04:43:44Z</time></trkpt><trkpt lat="-35.59566167418803" lon="144.1538599475923"><ele>79.0</ele><time>2026-05-04T04:43:45Z</time></trkpt><trkpt lat="-35.59571233148781" lon="144.1535550492312"><ele>79.0</ele><time>2026-05-04T04:43:46Z</time></trkpt><trkpt lat="-35.59576187765617" lon="144.15325896949003"><ele>79.0</ele><time>2026-05-04T04:43:47Z</time></trkpt><trkpt lat="-35.595808531014754" lon="144.15295969301144"><ele>80.0</ele><time>2026-05-04T04:43:48Z</time></trkpt><trkpt lat="-35.59585410418945" lon="144.15266827901456"><ele>81.0</ele><time>2026-05-04T04:43:49Z</time></trkpt><trkpt lat="-35.5959008247658" lon="144.15237406654944"><ele>81.5</ele><time>2026-05-04T04:43:50Z</time></trkpt><trkpt lat="-35.5959456318682" lon="144.15207779598705"><ele>82.0</ele><time>2026-05-04T04:43:51Z</time></trkpt><trkpt lat="-35.59599134468522" lon="144.15178530472758"><ele>82.5</ele><time>2026-05-04T04:43:52Z</time></trkpt><trkpt lat="-35.59604223063031" lon="144.1514864577486"><ele>83.0</ele><time>2026-05-04T04:43:53Z</time></trkpt><trkpt lat="-35.59608917486447" lon="144.15117915454087"><ele>83.0</ele><time>2026-05-04T04:43:54Z</time></trkpt><trkpt lat="-35.59613178317104" lon="144.15087569023925"><ele>83.0</ele><time>2026-05-04T04:43:55Z</time></trkpt><trkpt lat="-35.5961820154463" lon="144.15056799971717"><ele>81.0</ele><time>2026-05-04T04:43:56Z</time></trkpt><trkpt lat="-35.59624020245747" lon="144.15026303082772"><ele>79.0</ele><time>2026-05-04T04:43:57Z</time></trkpt><trkpt lat="-35.596308247248665" lon="144.1499539233137"><ele>79.5</ele><time>2026-05-04T04:43:58Z</time></trkpt><trkpt lat="-35.59638619432038" lon="144.1496576777518"><ele>80.0</ele><time>2026-05-04T04:43:59Z</time></trkpt><trkpt lat="-35.59647728404302" lon="144.14937119395196"><ele>80.0</ele><time>2026-05-04T04:44:00Z</time></trkpt><trkpt lat="-35.59657562811111" lon="144.1490859011191"><ele>80.0</ele><time>2026-05-04T04:44:01Z</time></trkpt><trkpt lat="-35.59668203245298" lon="144.14880433501855"><ele>79.5</ele><time>2026-05-04T04:44:02Z</time></trkpt><trkpt lat="-35.596798305075836" lon="144.14852415417096"><ele>79.0</ele><time>2026-05-04T04:44:03Z</time></trkpt><trkpt lat="-35.5969246524541" lon="144.14825024622692"><ele>79.5</ele><time>2026-05-04T04:44:04Z</time></trkpt><trkpt lat="-35.59705932789246" lon="144.14797333908797"><ele>80.0</ele><time>2026-05-04T04:44:05Z</time></trkpt><trkpt lat="-35.5972033785563" lon="144.14770551846826"><ele>80.0</ele><time>2026-05-04T04:44:06Z</time></trkpt><trkpt lat="-35.59735689975065" lon="144.14744711762006"><ele>80.0</ele><time>2026-05-04T04:44:07Z</time></trkpt><trkpt lat="-35.597521646196874" lon="144.1471952868062"><ele>80.0</ele><time>2026-05-04T04:44:08Z</time></trkpt><trkpt lat="-35.59768765636253" lon="144.1469533525698"><ele>80.0</ele><time>2026-05-04T04:44:09Z</time></trkpt><trkpt lat="-35.597857288585175" lon="144.14672278366032"><ele>79.5</ele><time>2026-05-04T04:44:10Z</time></trkpt><trkpt lat="-35.598035732426396" lon="144.14650198134854"><ele>79.0</ele><time>2026-05-04T04:44:11Z</time></trkpt><trkpt lat="-35.5982243715039" lon="144.14629259677594"><ele>79.0</ele><time>2026-05-04T04:44:12Z</time></trkpt><trkpt lat="-35.59842258999022" lon="144.14609442815058"><ele>79.0</ele><time>2026-05-04T04:44:13Z</time></trkpt><trkpt lat="-35.59862566299164" lon="144.1459046954614"><ele>79.5</ele><time>2026-05-04T04:44:14Z</time></trkpt><trkpt lat="-35.598837958913116" lon="144.14572894907587"><ele>80.0</ele><time>2026-05-04T04:44:15Z</time></trkpt><trkpt lat="-35.59905628610624" lon="144.14555955727926"><ele>80.0</ele><time>2026-05-04T04:44:16Z</time></trkpt><trkpt lat="-35.59927732681534" lon="144.14539600019768"><ele>80.0</ele><time>2026-05-04T04:44:17Z</time></trkpt><trkpt lat="-35.599500510473426" lon="144.1452472752312"><ele>79.0</ele><time>2026-05-04T04:44:18Z</time></trkpt><trkpt lat="-35.599734874314734" lon="144.14511446133935"><ele>78.0</ele><time>2026-05-04T04:44:19Z</time></trkpt><trkpt lat="-35.59997470776674" lon="144.14499320484512"><ele>78.0</ele><time>2026-05-04T04:44:20Z</time></trkpt><trkpt lat="-35.60021686213428" lon="144.14488141645137"><ele>78.0</ele><time>2026-05-04T04:44:21Z</time></trkpt><trkpt lat="-35.600452296025885" lon="144.1447841489947"><ele>79.0</ele><time>2026-05-04T04:44:22Z</time></trkpt><trkpt lat="-35.60068735177288" lon="144.14467272473513"><ele>80.0</ele><time>2026-05-04T04:44:23Z</time></trkpt><trkpt lat="-35.60092072021182" lon="144.14456211514488"><ele>80.0</ele><time>2026-05-04T04:44:24Z</time></trkpt><trkpt lat="-35.601158667170324" lon="144.14445633636146"><ele>80.0</ele><time>2026-05-04T04:44:25Z</time></trkpt><trkpt lat="-35.60140037719961" lon="144.14435466607227"><ele>79.5</ele><time>2026-05-04T04:44:26Z</time></trkpt><trkpt lat="-35.60164568897951" lon="144.14425188309224"><ele>79.0</ele><time>2026-05-04T04:44:27Z</time></trkpt><trkpt lat="-35.60188122511159" lon="144.14414395671113"><ele>79.0</ele><time>2026-05-04T04:44:28Z</time></trkpt><trkpt lat="-35.60212630448278" lon="144.14402548520852"><ele>79.0</ele><time>2026-05-04T04:44:29Z</time></trkpt><trkpt lat="-35.60237434707683" lon="144.14390810820905"><ele>79.0</ele><time>2026-05-04T04:44:30Z</time></trkpt><trkpt lat="-35.60262207535602" lon="144.14379543267728"><ele>79.0</ele><time>2026-05-04T04:44:31Z</time></trkpt><trkpt lat="-35.60286784854374" lon="144.14368781575396"><ele>79.0</ele><time>2026-05-04T04:44:32Z</time></trkpt><trkpt lat="-35.60311360330815" lon="144.14358191199582"><ele>79.0</ele><time>2026-05-04T04:44:33Z</time></trkpt><trkpt lat="-35.6033514998202" lon="144.14347243481174"><ele>79.0</ele><time>2026-05-04T04:44:34Z</time></trkpt><trkpt lat="-35.60358879907519" lon="144.1433639680242"><ele>79.0</ele><time>2026-05-04T04:44:35Z</time></trkpt><trkpt lat="-35.603826292541" lon="144.14325677277364"><ele>79.0</ele><time>2026-05-04T04:44:36Z</time></trkpt><trkpt lat="-35.60406433314536" lon="144.14315476458148"><ele>79.0</ele><time>2026-05-04T04:44:37Z</time></trkpt><trkpt lat="-35.60430453044154" lon="144.14304797107673"><ele>79.5</ele><time>2026-05-04T04:44:38Z</time></trkpt><trkpt lat="-35.60454674129269" lon="144.1429410318563"><ele>80.0</ele><time>2026-05-04T04:44:39Z</time></trkpt><trkpt lat="-35.604786727225616" lon="144.14284316800627"><ele>80.0</ele><time>2026-05-04T04:44:40Z</time></trkpt><trkpt lat="-35.60503112359149" lon="144.14274635077692"><ele>80.0</ele><time>2026-05-04T04:44:41Z</time></trkpt><trkpt lat="-35.605278499916515" lon="144.1426531715352"><ele>79.0</ele><time>2026-05-04T04:44:42Z</time></trkpt><trkpt lat="-35.605529783703886" lon="144.14258075042068"><ele>78.0</ele><time>2026-05-04T04:44:43Z</time></trkpt><trkpt lat="-35.60578777237707" lon="144.14252871082067"><ele>78.0</ele><time>2026-05-04T04:44:44Z</time></trkpt><trkpt lat="-35.606043627617964" lon="144.142484260373"><ele>78.0</ele><time>2026-05-04T04:44:45Z</time></trkpt><trkpt lat="-35.606298965470295" lon="144.14245758917315"><ele>77.5</ele><time>2026-05-04T04:44:46Z</time></trkpt><trkpt lat="-35.60655343821965" lon="144.14245129482717"><ele>77.0</ele><time>2026-05-04T04:44:47Z</time></trkpt><trkpt lat="-35.606808869519895" lon="144.14245806033955"><ele>78.0</ele><time>2026-05-04T04:44:48Z</time></trkpt><trkpt lat="-35.60706380367331" lon="144.1424690426961"><ele>79.0</ele><time>2026-05-04T04:44:49Z</time></trkpt><trkpt lat="-35.60731824079173" lon="144.1424907700948"><ele>79.0</ele><time>2026-05-04T04:44:50Z</time></trkpt><trkpt lat="-35.607569095126884" lon="144.1425265687624"><ele>79.0</ele><time>2026-05-04T04:44:51Z</time></trkpt><trkpt lat="-35.6078149976017" lon="144.1425803788342"><ele>79.5</ele><time>2026-05-04T04:44:52Z</time></trkpt><trkpt lat="-35.608062526419765" lon="144.14264302709572"><ele>80.0</ele><time>2026-05-04T04:44:53Z</time></trkpt><trkpt lat="-35.608314385763414" lon="144.142705589993"><ele>80.0</ele><time>2026-05-04T04:44:54Z</time></trkpt><trkpt lat="-35.60856660422986" lon="144.1427627344539"><ele>80.0</ele><time>2026-05-04T04:44:55Z</time></trkpt><trkpt lat="-35.60881411169241" lon="144.14281713506912"><ele>80.5</ele><time>2026-05-04T04:44:56Z</time></trkpt><trkpt lat="-35.60905467182087" lon="144.14287222961767"><ele>81.0</ele><time>2026-05-04T04:44:57Z</time></trkpt><trkpt lat="-35.60929233651161" lon="144.14293272977653"><ele>82.0</ele><time>2026-05-04T04:44:58Z</time></trkpt><trkpt lat="-35.609527596470535" lon="144.14299408758905"><ele>83.0</ele><time>2026-05-04T04:44:59Z</time></trkpt><trkpt lat="-35.609757268154866" lon="144.14305585540396"><ele>83.0</ele><time>2026-05-04T04:45:00Z</time></trkpt><trkpt lat="-35.609988587058524" lon="144.14312014293145"><ele>83.0</ele><time>2026-05-04T04:45:01Z</time></trkpt><trkpt lat="-35.61022659905031" lon="144.1431841762616"><ele>82.0</ele><time>2026-05-04T04:45:02Z</time></trkpt><trkpt lat="-35.61046777560939" lon="144.14323173518048"><ele>81.0</ele><time>2026-05-04T04:45:03Z</time></trkpt><trkpt lat="-35.61070866495595" lon="144.14326627185991"><ele>81.0</ele><time>2026-05-04T04:45:04Z</time></trkpt><trkpt lat="-35.61094939009257" lon="144.14328119815485"><ele>81.0</ele><time>2026-05-04T04:45:05Z</time></trkpt><trkpt lat="-35.611185249264196" lon="144.14327177994096"><ele>81.0</ele><time>2026-05-04T04:45:06Z</time></trkpt><trkpt lat="-35.611411778407415" lon="144.14322718440707"><ele>81.0</ele><time>2026-05-04T04:45:07Z</time></trkpt><trkpt lat="-35.61163895392264" lon="144.14316762810853"><ele>80.5</ele><time>2026-05-04T04:45:08Z</time></trkpt><trkpt lat="-35.61186384516369" lon="144.14308514418124"><ele>80.0</ele><time>2026-05-04T04:45:09Z</time></trkpt><trkpt lat="-35.61208368385421" lon="144.14297762490244"><ele>80.0</ele><time>2026-05-04T04:45:10Z</time></trkpt><trkpt lat="-35.61229509254345" lon="144.1428487077981"><ele>80.0</ele><time>2026-05-04T04:45:11Z</time></trkpt><trkpt lat="-35.6124929057586" lon="144.14269942333954"><ele>80.0</ele><time>2026-05-04T04:45:12Z</time></trkpt><trkpt lat="-35.61268359014892" lon="144.14253359292442"><ele>80.0</ele><time>2026-05-04T04:45:13Z</time></trkpt><trkpt lat="-35.612862700004236" lon="144.14234611526993"><ele>80.0</ele><time>2026-05-04T04:45:14Z</time></trkpt><trkpt lat="-35.613028346463764" lon="144.14214195920948"><ele>80.0</ele><time>2026-05-04T04:45:15Z</time></trkpt><trkpt lat="-35.61317823703807" lon="144.1419183435542"><ele>80.0</ele><time>2026-05-04T04:45:16Z</time></trkpt><trkpt lat="-35.61331289145956" lon="144.14168378653218"><ele>80.0</ele><time>2026-05-04T04:45:17Z</time></trkpt><trkpt lat="-35.61344034505193" lon="144.14144084868883"><ele>80.5</ele><time>2026-05-04T04:45:18Z</time></trkpt><trkpt lat="-35.613561734844474" lon="144.14119419898418"><ele>81.0</ele><time>2026-05-04T04:45:19Z</time></trkpt><trkpt lat="-35.61368009388946" lon="144.1409372606946"><ele>81.5</ele><time>2026-05-04T04:45:20Z</time></trkpt><trkpt lat="-35.61379956824333" lon="144.14068573623777"><ele>82.0</ele><time>2026-05-04T04:45:21Z</time></trkpt><trkpt lat="-35.61392236792384" lon="144.14043862057193"><ele>82.0</ele><time>2026-05-04T04:45:22Z</time></trkpt><trkpt lat="-35.61404118957444" lon="144.14019825925016"><ele>82.0</ele><time>2026-05-04T04:45:23Z</time></trkpt><trkpt lat="-35.61416188338659" lon="144.1399556289709"><ele>82.0</ele><time>2026-05-04T04:45:24Z</time></trkpt><trkpt lat="-35.61428070750753" lon="144.13971582083505"><ele>82.0</ele><time>2026-05-04T04:45:25Z</time></trkpt><trkpt lat="-35.614406597796716" lon="144.1394710930183"><ele>82.0</ele><time>2026-05-04T04:45:26Z</time></trkpt><trkpt lat="-35.6145275926366" lon="144.13922114629315"><ele>82.0</ele><time>2026-05-04T04:45:27Z</time></trkpt><trkpt lat="-35.61464588100452" lon="144.13897015348186"><ele>81.0</ele><time>2026-05-04T04:45:28Z</time></trkpt><trkpt lat="-35.6147634443752" lon="144.13872798619417"><ele>80.0</ele><time>2026-05-04T04:45:29Z</time></trkpt><trkpt lat="-35.614880834914906" lon="144.13848460437316"><ele>80.0</ele><time>2026-05-04T04:45:30Z</time></trkpt><trkpt lat="-35.61499834100165" lon="144.13824446153987"><ele>80.0</ele><time>2026-05-04T04:45:31Z</time></trkpt><trkpt lat="-35.61511764502721" lon="144.1380034639852"><ele>80.5</ele><time>2026-05-04T04:45:32Z</time></trkpt><trkpt lat="-35.61523762280632" lon="144.1377685641882"><ele>81.0</ele><time>2026-05-04T04:45:33Z</time></trkpt><trkpt lat="-35.61535703271162" lon="144.13752863121388"><ele>81.5</ele><time>2026-05-04T04:45:34Z</time></trkpt><trkpt lat="-35.61547548014056" lon="144.137282601231"><ele>82.0</ele><time>2026-05-04T04:45:35Z</time></trkpt><trkpt lat="-35.6155932393432" lon="144.1370356506898"><ele>82.0</ele><time>2026-05-04T04:45:36Z</time></trkpt><trkpt lat="-35.61571281023333" lon="144.13679896151905"><ele>82.0</ele><time>2026-05-04T04:45:37Z</time></trkpt><trkpt lat="-35.61582518816822" lon="144.13656720733036"><ele>82.0</ele><time>2026-05-04T04:45:38Z</time></trkpt><trkpt lat="-35.6159301912417" lon="144.13635387262758"><ele>81.0</ele><time>2026-05-04T04:45:39Z</time></trkpt><trkpt lat="-35.61603363424121" lon="144.13615235536048"><ele>80.0</ele><time>2026-05-04T04:45:40Z</time></trkpt><trkpt lat="-35.61612985179323" lon="144.1359645758235"><ele>79.0</ele><time>2026-05-04T04:45:41Z</time></trkpt><trkpt lat="-35.6162241829166" lon="144.1357931894083"><ele>79.25</ele><time>2026-05-04T04:45:42Z</time></trkpt><trkpt lat="-35.61631538260833" lon="144.13564269418455"><ele>79.5</ele><time>2026-05-04T04:45:43Z</time></trkpt><trkpt lat="-35.61640258082045" lon="144.13550220461647"><ele>79.75</ele><time>2026-05-04T04:45:44Z</time></trkpt><trkpt lat="-35.61647869684929" lon="144.13536976904922"><ele>80.0</ele><time>2026-05-04T04:45:45Z</time></trkpt><trkpt lat="-35.61655453497065" lon="144.13526252060308"><ele>80.0</ele><time>2026-05-04T04:45:46Z</time></trkpt><trkpt lat="-35.61663792687721" lon="144.13518008418768"><ele>80.0</ele><time>2026-05-04T04:45:47Z</time></trkpt><trkpt lat="-35.6167296661379" lon="144.13514504305468"><ele>80.0</ele><time>2026-05-04T04:45:48Z</time></trkpt><trkpt lat="-35.61677478527531" lon="144.13506545035034"><ele>80.0</ele><time>2026-05-04T04:45:49Z</time></trkpt><trkpt lat="-35.61695683485541" lon="144.13522037559162"><ele>79.33333333333334</ele><time>2026-05-04T04:45:50Z</time></trkpt><trkpt lat="-35.61709426836959" lon="144.13526405110696"><ele>78.66666666666667</ele><time>2026-05-04T04:45:51Z</time></trkpt><trkpt lat="-35.61723949746622" lon="144.13531077019556"><ele>78.0</ele><time>2026-05-04T04:45:52Z</time></trkpt><trkpt lat="-35.61740127977952" lon="144.13534830322277"><ele>78.0</ele><time>2026-05-04T04:45:53Z</time></trkpt><trkpt lat="-35.61757722260791" lon="144.13535632584484"><ele>78.0</ele><time>2026-05-04T04:45:54Z</time></trkpt><trkpt lat="-35.617767474517024" lon="144.13533247103484"><ele>78.0</ele><time>2026-05-04T04:45:55Z</time></trkpt><trkpt lat="-35.6179581982638" lon="144.135301134238"><ele>77.66666666666667</ele><time>2026-05-04T04:45:56Z</time></trkpt><trkpt lat="-35.61815463189372" lon="144.13527225862444"><ele>77.33333333333334</ele><time>2026-05-04T04:45:57Z</time></trkpt><trkpt lat="-35.61834993364702" lon="144.13523780080106"><ele>77.0</ele><time>2026-05-04T04:45:58Z</time></trkpt><trkpt lat="-35.61854686536931" lon="144.13520371145216"><ele>77.0</ele><time>2026-05-04T04:45:59Z</time></trkpt><trkpt lat="-35.61875224951234" lon="144.13517022078148"><ele>77.0</ele><time>2026-05-04T04:46:00Z</time></trkpt><trkpt lat="-35.61895165808572" lon="144.1351352689666"><ele>77.0</ele><time>2026-05-04T04:46:01Z</time></trkpt><trkpt lat="-35.619140027910774" lon="144.1351069710028"><ele>77.0</ele><time>2026-05-04T04:46:02Z</time></trkpt><trkpt lat="-35.61933053787503" lon="144.13507576827686"><ele>77.0</ele><time>2026-05-04T04:46:03Z</time></trkpt><trkpt lat="-35.61951852841234" lon="144.13504669188507"><ele>77.0</ele><time>2026-05-04T04:46:04Z</time></trkpt><trkpt lat="-35.619703716413255" lon="144.13501866309352"><ele>77.66666666666667</ele><time>2026-05-04T04:46:05Z</time></trkpt><trkpt lat="-35.61988369860429" lon="144.13498400512853"><ele>78.33333333333333</ele><time>2026-05-04T04:46:06Z</time></trkpt><trkpt lat="-35.6200585737254" lon="144.13495131532906"><ele>79.0</ele><time>2026-05-04T04:46:07Z</time></trkpt><trkpt lat="-35.62023284292007" lon="144.13492573744495"><ele>79.33333333333333</ele><time>2026-05-04T04:46:08Z</time></trkpt><trkpt lat="-35.62040349280096" lon="144.13489674539935"><ele>79.66666666666667</ele><time>2026-05-04T04:46:09Z</time></trkpt><trkpt lat="-35.620576225019654" lon="144.13486644888084"><ele>80.0</ele><time>2026-05-04T04:46:10Z</time></trkpt><trkpt lat="-35.62074910206453" lon="144.13483607351876"><ele>80.0</ele><time>2026-05-04T04:46:11Z</time></trkpt><trkpt lat="-35.620923770651764" lon="144.13480844654015"><ele>80.0</ele><time>2026-05-04T04:46:12Z</time></trkpt><trkpt lat="-35.6210951916291" lon="144.1347813563413"><ele>80.0</ele><time>2026-05-04T04:46:13Z</time></trkpt><trkpt lat="-35.62126682981257" lon="144.1347503168656"><ele>81.33333333333334</ele><time>2026-05-04T04:46:14Z</time></trkpt><trkpt lat="-35.621438509889614" lon="144.13472156710935"><ele>82.66666666666667</ele><time>2026-05-04T04:46:15Z</time></trkpt><trkpt lat="-35.621608258852916" lon="144.1346972962859"><ele>84.0</ele><time>2026-05-04T04:46:16Z</time></trkpt><trkpt lat="-35.621773537303966" lon="144.1346740019637"><ele>84.0</ele><time>2026-05-04T04:46:17Z</time></trkpt><trkpt lat="-35.62193975776702" lon="144.13464776526865"><ele>84.0</ele><time>2026-05-04T04:46:18Z</time></trkpt><trkpt lat="-35.62210452500735" lon="144.1346211290067"><ele>84.0</ele><time>2026-05-04T04:46:19Z</time></trkpt><trkpt lat="-35.62227245134349" lon="144.13459245085306"><ele>83.0</ele><time>2026-05-04T04:46:20Z</time></trkpt><trkpt lat="-35.62243685191388" lon="144.1345650520623"><ele>82.0</ele><time>2026-05-04T04:46:21Z</time></trkpt><trkpt lat="-35.62259997026315" lon="144.13454012586476"><ele>81.0</ele><time>2026-05-04T04:46:22Z</time></trkpt><trkpt lat="-35.622762659001864" lon="144.13451162712474"><ele>80.66666666666667</ele><time>2026-05-04T04:46:23Z</time></trkpt><trkpt lat="-35.62292648584151" lon="144.1344829493662"><ele>80.33333333333334</ele><time>2026-05-04T04:46:24Z</time></trkpt><trkpt lat="-35.623095308089056" lon="144.134458286424"><ele>80.0</ele><time>2026-05-04T04:46:25Z</time></trkpt><trkpt lat="-35.62326565871064" lon="144.13442995695138"><ele>80.0</ele><time>2026-05-04T04:46:26Z</time></trkpt><trkpt lat="-35.6234355591414" lon="144.13439876864135"><ele>80.0</ele><time>2026-05-04T04:46:27Z</time></trkpt><trkpt lat="-35.62360341932718" lon="144.13437026726731"><ele>80.0</ele><time>2026-05-04T04:46:28Z</time></trkpt><trkpt lat="-35.62377474508337" lon="144.1343450155199"><ele>80.0</ele><time>2026-05-04T04:46:29Z</time></trkpt><trkpt lat="-35.62394114529919" lon="144.1343166702363"><ele>80.0</ele><time>2026-05-04T04:46:30Z</time></trkpt><trkpt lat="-35.62411075512938" lon="144.13428891571317"><ele>80.0</ele><time>2026-05-04T04:46:31Z</time></trkpt><trkpt lat="-35.62426598290057" lon="144.13426049917553"><ele>80.0</ele><time>2026-05-04T04:46:32Z</time></trkpt><trkpt lat="-35.62441031747709" lon="144.13423866540396"><ele>80.0</ele><time>2026-05-04T04:46:33Z</time></trkpt><trkpt lat="-35.62454690891671" lon="144.1342204779573"><ele>80.0</ele><time>2026-05-04T04:46:34Z</time></trkpt><trkpt lat="-35.62466160613159" lon="144.13420434661694"><ele>80.0</ele><time>2026-05-04T04:46:35Z</time></trkpt><trkpt lat="-35.62474039350024" lon="144.13419065363135"><ele>79.83333333333334</ele><time>2026-05-04T04:46:36Z</time></trkpt><trkpt lat="-35.62482618603279" lon="144.13416986802827"><ele>79.66666666666667</ele><time>2026-05-04T04:46:38Z</time></trkpt><trkpt lat="-35.62489783307003" lon="144.13415693810518"><ele>79.5</ele><time>2026-05-04T04:46:40Z</time></trkpt><trkpt lat="-35.62496627230216" lon="144.13411308155548"><ele>79.33333333333333</ele><time>2026-05-04T04:46:42Z</time></trkpt><trkpt lat="-35.62494181328839" lon="144.133959908415"><ele>79.16666666666666</ele><time>2026-05-04T04:46:43Z</time></trkpt><trkpt lat="-35.62492400387865" lon="144.13386913964862"><ele>79.0</ele><time>2026-05-04T04:46:44Z</time></trkpt><trkpt lat="-35.62492578933024" lon="144.13376345252843"><ele>79.0</ele><time>2026-05-04T04:46:46Z</time></trkpt><trkpt lat="-35.62510338328597" lon="144.1337504598294"><ele>79.0</ele><time>2026-05-04T04:46:47Z</time></trkpt><trkpt lat="-35.62521039736626" lon="144.13375293022648"><ele>79.0</ele><time>2026-05-04T04:46:48Z</time></trkpt><trkpt lat="-35.62532477301874" lon="144.1337399597169"><ele>79.0</ele><time>2026-05-04T04:46:49Z</time></trkpt><trkpt lat="-35.62545272435977" lon="144.13371721026073"><ele>79.25</ele><time>2026-05-04T04:46:50Z</time></trkpt><trkpt lat="-35.625588535097975" lon="144.13369410956182"><ele>79.5</ele><time>2026-05-04T04:46:51Z</time></trkpt><trkpt lat="-35.62571944725724" lon="144.13367171506698"><ele>79.75</ele><time>2026-05-04T04:46:52Z</time></trkpt><trkpt lat="-35.6258528740151" lon="144.13364620926671"><ele>80.0</ele><time>2026-05-04T04:46:53Z</time></trkpt><trkpt lat="-35.62598782763416" lon="144.13362054808692"><ele>80.0</ele><time>2026-05-04T04:46:54Z</time></trkpt><trkpt lat="-35.62612833862916" lon="144.13360099950262"><ele>80.0</ele><time>2026-05-04T04:46:55Z</time></trkpt><trkpt lat="-35.62626477109668" lon="144.13358286114678"><ele>80.0</ele><time>2026-05-04T04:46:56Z</time></trkpt><trkpt lat="-35.62639779617412" lon="144.13355789057147"><ele>80.0</ele><time>2026-05-04T04:46:57Z</time></trkpt><trkpt lat="-35.62653400968769" lon="144.13353807327368"><ele>80.4</ele><time>2026-05-04T04:46:58Z</time></trkpt><trkpt lat="-35.62665492835699" lon="144.13351594719958"><ele>80.8</ele><time>2026-05-04T04:46:59Z</time></trkpt><trkpt lat="-35.62675569569411" lon="144.1334969246903"><ele>81.19999999999999</ele><time>2026-05-04T04:47:00Z</time></trkpt><trkpt lat="-35.62684589099404" lon="144.13345889333172"><ele>81.6</ele><time>2026-05-04T04:47:01Z</time></trkpt><trkpt lat="-35.62692337553164" lon="144.13337987051443"><ele>82.0</ele><time>2026-05-04T04:47:02Z</time></trkpt><trkpt lat="-35.626957441597185" lon="144.13326089348877"><ele>81.75</ele><time>2026-05-04T04:47:03Z</time></trkpt><trkpt lat="-35.62694336858439" lon="144.13311834083106"><ele>81.5</ele><time>2026-05-04T04:47:04Z</time></trkpt><trkpt lat="-35.62692378530308" lon="144.13298342149903"><ele>81.25</ele><time>2026-05-04T04:47:05Z</time></trkpt><trkpt lat="-35.6269020478126" lon="144.13285174732343"><ele>81.0</ele><time>2026-05-04T04:47:06Z</time></trkpt><trkpt lat="-35.62687950175262" lon="144.13271292776315"><ele>81.0</ele><time>2026-05-04T04:47:07Z</time></trkpt><trkpt lat="-35.626856291024524" lon="144.13256447217316"><ele>81.0</ele><time>2026-05-04T04:47:08Z</time></trkpt><trkpt lat="-35.6268372310706" lon="144.13240828981174"><ele>81.0</ele><time>2026-05-04T04:47:09Z</time></trkpt><trkpt lat="-35.62682061624732" lon="144.13225676268254"><ele>81.0</ele><time>2026-05-04T04:47:10Z</time></trkpt><trkpt lat="-35.62682264126467" lon="144.13210067762236"><ele>81.0</ele><time>2026-05-04T04:47:11Z</time></trkpt><trkpt lat="-35.62680470956917" lon="144.13195547586457"><ele>81.0</ele><time>2026-05-04T04:47:12Z</time></trkpt><trkpt lat="-35.6267887224956" lon="144.13180642557722"><ele>81.0</ele><time>2026-05-04T04:47:13Z</time></trkpt><trkpt lat="-35.6267737053833" lon="144.13164923172573"><ele>81.0</ele><time>2026-05-04T04:47:14Z</time></trkpt><trkpt lat="-35.626760241083964" lon="144.13150871547944"><ele>80.75</ele><time>2026-05-04T04:47:15Z</time></trkpt><trkpt lat="-35.62674523669385" lon="144.13135963464043"><ele>80.5</ele><time>2026-05-04T04:47:16Z</time></trkpt><trkpt lat="-35.62672847908284" lon="144.13121150250626"><ele>80.25</ele><time>2026-05-04T04:47:17Z</time></trkpt><trkpt lat="-35.62671140158559" lon="144.13106054263488"><ele>80.0</ele><time>2026-05-04T04:47:18Z</time></trkpt><trkpt lat="-35.62669330408233" lon="144.13090841263505"><ele>80.0</ele><time>2026-05-04T04:47:19Z</time></trkpt><trkpt lat="-35.62667555558151" lon="144.13075956966728"><ele>80.0</ele><time>2026-05-04T04:47:20Z</time></trkpt><trkpt lat="-35.626657971946926" lon="144.13061187025696"><ele>80.0</ele><time>2026-05-04T04:47:21Z</time></trkpt><trkpt lat="-35.62664144632596" lon="144.13046167289727"><ele>80.0</ele><time>2026-05-04T04:47:22Z</time></trkpt><trkpt lat="-35.62662585049367" lon="144.13031992613818"><ele>80.0</ele><time>2026-05-04T04:47:23Z</time></trkpt><trkpt lat="-35.62661086556769" lon="144.13018232814426"><ele>80.0</ele><time>2026-05-04T04:47:24Z</time></trkpt><trkpt lat="-35.62659542980041" lon="144.13004044993443"><ele>80.0</ele><time>2026-05-04T04:47:25Z</time></trkpt><trkpt lat="-35.62658029051439" lon="144.12990129693767"><ele>80.0</ele><time>2026-05-04T04:47:26Z</time></trkpt><trkpt lat="-35.626566108128856" lon="144.12977093916774"><ele>80.0</ele><time>2026-05-04T04:47:27Z</time></trkpt><trkpt lat="-35.62655438002807" lon="144.12966314014233"><ele>80.0</ele><time>2026-05-04T04:47:28Z</time></trkpt><trkpt lat="-35.626541713514264" lon="144.12954421360982"><ele>80.0</ele><time>2026-05-04T04:47:30Z</time></trkpt><trkpt lat="-35.62635746783834" lon="144.12956842003845"><ele>80.0</ele><time>2026-05-04T04:47:31Z</time></trkpt><trkpt lat="-35.62628049894862" lon="144.1295902633334"><ele>80.0</ele><time>2026-05-04T04:47:32Z</time></trkpt><trkpt lat="-35.62620275345024" lon="144.12961266338948"><ele>80.0</ele><time>2026-05-04T04:47:33Z</time></trkpt><trkpt lat="-35.62611304189741" lon="144.1296241952542"><ele>80.0</ele><time>2026-05-04T04:47:34Z</time></trkpt><trkpt lat="-35.62602099837809" lon="144.129633894675"><ele>80.0</ele><time>2026-05-04T04:47:35Z</time></trkpt><trkpt lat="-35.62592858817897" lon="144.12964628197966"><ele>80.0</ele><time>2026-05-04T04:47:36Z</time></trkpt><trkpt lat="-35.625842215952865" lon="144.12965231867858"><ele>80.0</ele><time>2026-05-04T04:47:37Z</time></trkpt><trkpt lat="-35.625775132175036" lon="144.1296592158682"><ele>80.0</ele><time>2026-05-04T04:47:38Z</time></trkpt><trkpt lat="-35.62569308510103" lon="144.1296870055933"><ele>80.0</ele><time>2026-05-04T04:47:40Z</time></trkpt><trkpt lat="-35.62573028888441" lon="144.12976722691377"><ele>80.0</ele><time>2026-05-04T04:48:52Z</time></trkpt><trkpt lat="-35.62579376641439" lon="144.12992963775173"><ele>80.0</ele><time>2026-05-04T04:49:17Z</time></trkpt><trkpt lat="-35.62571358994547" lon="144.1298434527326"><ele>80.0</ele><time>2026-05-04T04:49:35Z</time></trkpt><trkpt lat="-35.62566339471841" lon="144.129892878002"><ele>80.0</ele><time>2026-05-04T04:49:46Z</time></trkpt><trkpt lat="-35.62569374666871" lon="144.12981595173957"><ele>81.0</ele><time>2026-05-04T04:49:50Z</time></trkpt><trkpt lat="-35.62565714172469" lon="144.129886901868"><ele>81.0</ele><time>2026-05-04T04:50:15Z</time></trkpt></trkseg></trk></gpx>